[[{"header":{"parameterUnit":"m.s-1","parameterCategory":1,"la1":30.6,"la2":29.2853,"lo1":-89.7004,"lo2":-87.6739,"dy":0.0162,"dx":0.0183,"nx":112,"ny":82,"refTime":"2023-11-20T18:00:00:Z","depth":0,"parameterNumber":2,"parameterNumberName":"U-component_of_WINDS"},"data":[0.0,0.0,0.0,0.0,0.0,0.0,0.0,0.0,0.0,0.0,0.0,0.0,0.0,0.0,0.0,0.0,0.0,0.0,0.0,0.0,0.0,0.0,0.0,0.0,0.0,0.0,0.0,0.0,0.0,0.0,0.0,0.0,0.0,0.0,0.0,0.0,0.0,0.0,0.0,0.0,0.0,0.0,0.0,0.0,0.0,0.0,0.0,0.0,0.0,0.0,0.0,0.0,0.0,0.0,0.0,0.0,0.0,0.0,0.0,0.0,0.0,0.0,0.0,0.0,0.0,0.0,0.0,0.0,0.0,0.0,0.0,0.0,0.0,0.0,0.0,0.0,0.0,0.0,0.0,0.0,0.0,0.0,0.0,0.0,0.0,0.0,0.0,0.0,0.0,0.0,3.0506,3.0506,3.0506,3.0506,3.0506,3.0506,3.0634,3.0975,0.0,0.0,0.0,0.0,0.0,0.0,0.0,0.0,0.0,0.0,0.0,0.0,0.0,0.0,0.0,0.0,0.0,0.0,0.0,0.0,0.0,0.0,0.0,0.0,0.0,0.0,0.0,0.0,0.0,0.0,0.0,0.0,0.0,0.0,0.0,0.0,0.0,0.0,0.0,0.0,0.0,0.0,0.0,0.0,0.0,0.0,0.0,0.0,0.0,0.0,0.0,0.0,0.0,0.0,0.0,0.0,0.0,0.0,0.0,0.0,0.0,0.0,0.0,0.0,0.0,0.0,0.0,0.0,0.0,0.0,0.0,0.0,0.0,0.0,0.0,0.0,0.0,0.0,0.0,0.0,0.0,0.0,0.0,0.0,0.0,0.0,0.0,0.0,0.0,0.0,0.0,0.0,0.0,0.0,0.0,0.0,0.0,0.0,0.0,0.0,0.0,0.0,0.0,0.0,3.0506,3.0506,3.0506,3.0506,3.0506,3.0506,3.0634,3.0975,0.0,0.0,0.0,0.0,0.0,0.0,0.0,0.0,0.0,0.0,0.0,0.0,0.0,0.0,0.0,0.0,0.0,0.0,0.0,0.0,0.0,0.0,0.0,0.0,0.0,0.0,0.0,0.0,0.0,0.0,0.0,0.0,0.0,0.0,0.0,0.0,0.0,0.0,0.0,0.0,0.0,0.0,0.0,0.0,0.0,0.0,0.0,0.0,0.0,0.0,0.0,0.0,0.0,0.0,0.0,0.0,0.0,0.0,0.0,0.0,0.0,0.0,0.0,0.0,0.0,0.0,0.0,0.0,0.0,0.0,0.0,0.0,0.0,0.0,0.0,0.0,0.0,0.0,0.0,0.0,0.0,0.0,0.0,0.0,0.0,0.0,0.0,0.0,0.0,0.0,0.0,0.0,0.0,0.0,0.0,0.0,0.0,0.0,0.0,0.0,0.0,0.0,0.0,3.0506,3.0506,3.0506,3.0506,3.0506,3.0506,3.0506,3.0568,3.0722,3.0733,0.0,0.0,0.0,0.0,0.0,0.0,0.0,0.0,0.0,0.0,0.0,0.0,0.0,0.0,0.0,0.0,0.0,0.0,0.0,0.0,0.0,0.0,0.0,0.0,0.0,0.0,0.0,0.0,0.0,0.0,0.0,0.0,0.0,0.0,0.0,0.0,0.0,0.0,0.0,0.0,0.0,0.0,0.0,0.0,0.0,0.0,0.0,0.0,0.0,0.0,0.0,0.0,0.0,0.0,0.0,0.0,0.0,0.0,0.0,0.0,0.0,0.0,0.0,0.0,0.0,0.0,0.0,0.0,0.0,0.0,0.0,0.0,0.0,0.0,0.0,0.0,0.0,0.0,0.0,0.0,0.0,0.0,0.0,0.0,0.0,0.0,0.0,0.0,0.0,0.0,0.0,0.0,0.0,0.0,0.0,0.0,0.0,0.0,0.0,0.0,0.0,0.0,3.088,3.0754,3.0754,3.0605,3.0506,3.0506,3.0506,3.0506,3.0506,3.0506,0.0,0.0,0.0,0.0,0.0,0.0,0.0,0.0,0.0,0.0,0.0,0.0,0.0,0.0,0.0,0.0,0.0,0.0,0.0,0.0,0.0,0.0,0.0,0.0,0.0,0.0,0.0,0.0,0.0,0.0,0.0,0.0,0.0,0.0,0.0,0.0,0.0,0.0,0.0,0.0,0.0,0.0,0.0,0.0,0.0,0.0,0.0,0.0,0.0,0.0,0.0,0.0,0.0,0.0,0.0,0.0,0.0,0.0,0.0,0.0,0.0,0.0,0.0,0.0,0.0,0.0,0.0,0.0,0.0,0.0,0.0,0.0,0.0,0.0,0.0,0.0,0.0,0.0,0.0,0.0,0.0,0.0,0.0,0.0,0.0,0.0,0.0,0.0,0.0,0.0,0.0,0.0,0.0,0.0,0.0,0.0,0.0,0.0,0.0,0.0,0.0,0.0,3.194,3.1515,3.1515,3.0903,3.0506,3.0506,3.0506,3.0506,3.0506,3.0506,0.0,0.0,0.0,0.0,0.0,0.0,0.0,0.0,0.0,0.0,0.0,0.0,0.0,0.0,0.0,0.0,0.0,0.0,0.0,0.0,0.0,0.0,0.0,0.0,0.0,0.0,0.0,0.0,0.0,0.0,0.0,0.0,0.0,0.0,0.0,0.0,0.0,0.0,0.0,0.0,0.0,0.0,0.0,0.0,0.0,0.0,0.0,0.0,0.0,0.0,0.0,0.0,0.0,0.0,0.0,0.0,0.0,0.0,0.0,0.0,0.0,0.0,0.0,0.0,0.0,0.0,0.0,0.0,0.0,0.0,0.0,0.0,0.0,0.0,0.0,0.0,0.0,0.0,0.0,0.0,0.0,0.0,0.0,0.0,0.0,0.0,0.0,0.0,0.0,0.0,0.0,0.0,0.0,0.0,0.0,0.0,0.0,0.0,0.0,0.0,0.0,0.0,3.2459,3.2282,0.0,3.2034,3.1868,3.1868,3.1868,3.1686,3.1217,0.0,0.0,0.0,0.0,0.0,0.0,0.0,0.0,0.0,0.0,0.0,0.0,0.0,0.0,0.0,0.0,0.0,0.0,0.0,0.0,0.0,0.0,0.0,0.0,0.0,0.0,0.0,0.0,0.0,0.0,0.0,0.0,0.0,0.0,0.0,0.0,0.0,0.0,0.0,0.0,0.0,0.0,0.0,0.0,0.0,0.0,0.0,0.0,0.0,0.0,0.0,0.0,0.0,0.0,0.0,0.0,0.0,0.0,0.0,0.0,0.0,0.0,0.0,0.0,0.0,0.0,0.0,0.0,0.0,0.0,0.0,0.0,0.0,0.0,0.0,0.0,0.0,0.0,0.0,0.0,0.0,0.0,0.0,0.0,0.0,0.0,0.0,0.0,0.0,0.0,0.0,0.0,0.0,0.0,0.0,0.0,0.0,0.0,0.0,0.0,0.0,0.0,3.3403,3.3188,3.3039,0.0,3.284,3.2691,3.2691,3.2691,3.2492,3.1973,0.0,0.0,0.0,0.0,0.0,0.0,0.0,0.0,0.0,0.0,0.0,0.0,0.0,0.0,0.0,0.0,0.0,0.0,0.0,0.0,0.0,0.0,0.0,0.0,0.0,0.0,0.0,0.0,0.0,0.0,0.0,0.0,0.0,0.0,0.0,0.0,0.0,0.0,0.0,0.0,0.0,0.0,0.0,0.0,0.0,0.0,0.0,0.0,0.0,0.0,0.0,0.0,0.0,0.0,0.0,0.0,0.0,0.0,0.0,0.0,0.0,0.0,0.0,0.0,0.0,0.0,0.0,0.0,0.0,0.0,0.0,0.0,0.0,0.0,0.0,0.0,0.0,0.0,0.0,0.0,0.0,0.0,0.0,0.0,0.0,0.0,0.0,0.0,0.0,0.0,0.0,0.0,0.0,0.0,0.0,0.0,0.0,0.0,0.0,0.0,0.0,0.0,3.4899,3.4265,3.3817,3.3817,3.3155,3.2724,3.2724,3.2724,3.2707,0.0,0.0,0.0,0.0,0.0,0.0,0.0,0.0,0.0,0.0,0.0,0.0,0.0,0.0,0.0,0.0,0.0,0.0,0.0,0.0,0.0,0.0,0.0,0.0,0.0,0.0,0.0,0.0,0.0,0.0,0.0,0.0,0.0,0.0,0.0,0.0,0.0,0.0,0.0,0.0,0.0,0.0,0.0,0.0,0.0,0.0,0.0,0.0,0.0,0.0,0.0,0.0,0.0,0.0,0.0,0.0,0.0,0.0,0.0,0.0,0.0,0.0,0.0,0.0,0.0,0.0,0.0,0.0,0.0,0.0,0.0,0.0,0.0,0.0,0.0,0.0,0.0,0.0,0.0,0.0,0.0,0.0,0.0,0.0,0.0,0.0,0.0,0.0,0.0,0.0,0.0,0.0,0.0,0.0,0.0,0.0,0.0,0.0,0.0,0.0,0.0,0.0,0.0,3.4899,3.47,3.458,3.458,3.4369,3.4237,3.4237,3.4237,3.4033,3.3503,0.0,0.0,0.0,0.0,0.0,0.0,0.0,0.0,0.0,0.0,0.0,0.0,0.0,0.0,0.0,0.0,0.0,0.0,0.0,0.0,0.0,0.0,0.0,0.0,0.0,0.0,0.0,0.0,0.0,0.0,0.0,0.0,0.0,0.0,0.0,0.0,0.0,0.0,0.0,0.0,0.0,0.0,0.0,0.0,0.0,0.0,0.0,0.0,0.0,0.0,0.0,0.0,0.0,0.0,0.0,0.0,0.0,0.0,0.0,0.0,0.0,0.0,0.0,0.0,0.0,0.0,0.0,0.0,0.0,0.0,0.0,0.0,0.0,0.0,0.0,0.0,0.0,0.0,0.0,0.0,0.0,0.0,0.0,0.0,0.0,0.0,0.0,0.0,0.0,0.0,0.0,0.0,0.0,0.0,0.0,0.0,0.0,0.0,0.0,0.0,0.0,0.0,3.4899,3.4899,3.4899,3.4899,3.4899,3.4899,3.4899,3.4899,3.47,3.4281,0.0,0.0,0.0,0.0,0.0,0.0,0.0,0.0,0.0,0.0,0.0,0.0,0.0,0.0,0.0,0.0,0.0,0.0,0.0,0.0,0.0,0.0,0.0,0.0,0.0,0.0,0.0,0.0,0.0,0.0,0.0,0.0,0.0,0.0,0.0,0.0,0.0,0.0,0.0,0.0,0.0,0.0,0.0,0.0,0.0,0.0,0.0,0.0,0.0,0.0,0.0,0.0,0.0,0.0,0.0,0.0,0.0,0.0,0.0,0.0,0.0,0.0,0.0,0.0,0.0,0.0,0.0,0.0,0.0,0.0,0.0,0.0,0.0,0.0,0.0,0.0,0.0,0.0,0.0,0.0,0.0,0.0,0.0,0.0,0.0,0.0,0.0,0.0,0.0,0.0,0.0,0.0,0.0,0.0,0.0,0.0,0.0,0.0,0.0,0.0,0.0,0.0,3.4899,3.4811,3.4775,3.4887,3.4863,3.4828,3.4828,3.4828,3.4799,3.4751,0.0,0.0,0.0,0.0,0.0,0.0,0.0,0.0,0.0,0.0,0.0,0.0,0.0,0.0,0.0,0.0,0.0,0.0,0.0,0.0,0.0,0.0,0.0,0.0,0.0,0.0,0.0,0.0,0.0,0.0,0.0,0.0,0.0,0.0,0.0,0.0,0.0,0.0,0.0,0.0,0.0,0.0,0.0,0.0,0.0,0.0,0.0,0.0,0.0,0.0,0.0,0.0,0.0,0.0,0.0,0.0,0.0,0.0,0.0,0.0,3.4039,0.0,0.0,0.0,0.0,0.0,0.0,0.0,0.0,0.0,0.0,0.0,0.0,0.0,0.0,0.0,0.0,0.0,0.0,0.0,0.0,0.0,0.0,0.0,0.0,0.0,0.0,0.0,0.0,0.0,0.0,0.0,0.0,0.0,0.0,0.0,0.0,0.0,0.0,0.0,0.0,0.0,3.4851,3.4127,3.391,3.4799,3.4521,3.4275,3.4275,3.4275,3.4068,3.3588,3.3563,0.0,0.0,0.0,0.0,0.0,0.0,0.0,0.0,0.0,0.0,0.0,0.0,0.0,0.0,0.0,0.0,0.0,0.0,0.0,0.0,0.0,0.0,0.0,0.0,0.0,0.0,0.0,0.0,0.0,0.0,0.0,0.0,0.0,0.0,0.0,0.0,0.0,0.0,0.0,0.0,0.0,0.0,0.0,0.0,0.0,0.0,0.0,0.0,0.0,0.0,0.0,0.0,0.0,0.0,0.0,0.0,0.0,0.0,0.0,0.0,3.409,0.0,0.0,0.0,0.0,0.0,0.0,0.0,0.0,0.0,0.0,0.0,0.0,0.0,0.0,0.0,0.0,0.0,0.0,0.0,0.0,0.0,0.0,0.0,0.0,0.0,0.0,0.0,0.0,0.0,0.0,0.0,0.0,0.0,0.0,0.0,0.0,0.0,0.0,0.0,0.0,3.4485,3.4005,3.3748,3.4048,3.4081,3.3984,3.3684,3.3607,3.3462,3.3224,3.3145,0.0,0.0,0.0,0.0,0.0,0.0,0.0,0.0,0.0,0.0,0.0,0.0,0.0,0.0,0.0,0.0,0.0,0.0,0.0,0.0,0.0,0.0,0.0,0.0,0.0,0.0,0.0,0.0,0.0,0.0,0.0,0.0,0.0,0.0,0.0,0.0,0.0,0.0,0.0,0.0,0.0,0.0,0.0,0.0,0.0,0.0,0.0,0.0,0.0,0.0,0.0,0.0,0.0,3.2906,3.2906,3.2906,3.2906,3.2906,3.2906,3.2906,3.3026,3.3251,3.3736,0.0,0.0,0.0,0.0,0.0,0.0,0.0,0.0,0.0,0.0,0.0,0.0,0.0,0.0,0.0,0.0,0.0,0.0,0.0,0.0,0.0,0.0,0.0,0.0,3.2408,3.2299,3.2732,0.0,0.0,0.0,0.0,0.0,0.0,0.0,0.0,0.0,0.0,0.0,3.3933,3.3781,3.3517,3.3198,3.353,3.3543,3.3053,3.2906,3.2853,3.2906,3.2799,3.2841,0.0,0.0,0.0,0.0,0.0,0.0,0.0,0.0,0.0,0.0,0.0,0.0,0.0,0.0,0.0,0.0,0.0,0.0,0.0,0.0,0.0,0.0,0.0,0.0,0.0,0.0,0.0,0.0,0.0,0.0,0.0,0.0,3.1511,3.1511,0.0,0.0,0.0,0.0,0.0,0.0,0.0,0.0,0.0,0.0,0.0,0.0,0.0,3.1625,3.1625,3.1697,3.1725,3.1725,3.1725,3.1725,3.1725,3.1725,3.1725,3.1725,3.1725,0.0,3.3211,3.329,0.0,0.0,0.0,0.0,0.0,0.0,0.0,0.0,0.0,0.0,0.0,0.0,0.0,0.0,0.0,0.0,0.0,0.0,0.0,0.0,0.0,0.0,3.1365,3.1351,3.1307,3.1293,0.0,3.2256,3.3026,3.3026,3.2957,0.0,0.0,0.0,0.0,0.0,0.0,0.0,3.3264,3.2449,3.2146,3.2933,3.2639,3.2338,3.2255,3.2227,3.2075,3.1753,3.171,3.1937,3.2479,3.2437,0.0,0.0,0.0,0.0,0.0,0.0,0.0,0.0,0.0,0.0,0.0,0.0,0.0,0.0,0.0,0.0,0.0,0.0,0.0,0.0,0.0,0.0,0.0,0.0,0.0,0.0,0.0,0.0,0.0,3.1511,3.1511,3.1511,3.1511,3.1511,0.0,0.0,0.0,0.0,0.0,0.0,0.0,0.0,0.0,3.1511,3.1869,3.2049,3.2049,3.2437,3.2617,3.2617,3.2617,3.2617,3.2617,3.2617,3.2617,3.2617,3.2617,3.2913,3.333,3.2924,3.2911,3.3179,0.0,0.0,0.0,0.0,3.3948,3.391,3.3684,3.3578,3.354,3.329,0.0,0.0,0.0,0.0,0.0,0.0,0.0,0.0,0.0,0.0,3.1451,3.1029,3.1014,3.1102,3.1102,3.1451,3.1793,0.0,3.2171,3.2391,3.2473,0.0,0.0,0.0,0.0,3.2198,3.2444,3.2032,3.1807,3.2019,3.2089,3.2005,3.1781,3.1624,3.1524,3.1511,3.1366,3.1452,3.1881,3.1895,3.1895,0.0,0.0,0.0,0.0,0.0,0.0,0.0,0.0,0.0,0.0,0.0,0.0,0.0,0.0,0.0,0.0,0.0,0.0,0.0,0.0,0.0,0.0,0.0,0.0,0.0,0.0,0.0,0.0,3.1511,3.1511,3.1511,3.1511,3.1496,0.0,0.0,0.0,0.0,0.0,0.0,3.1662,3.1648,3.1708,3.1886,3.2363,3.2646,3.2676,3.3169,3.3438,3.3499,3.3499,3.3499,3.3499,3.3499,3.3499,3.3499,3.3499,3.3499,3.344,3.2724,3.252,3.2684,3.2904,3.3079,3.3195,3.3195,3.3195,3.3185,3.3039,3.3002,3.296,3.2828,3.2866,3.2986,3.2933,0.0,0.0,0.0,0.0,3.1608,3.097,3.1175,3.1421,3.0881,3.0866,3.0969,3.0969,3.088,3.0836,0.0,3.1393,3.1737,3.1765,0.0,0.0,0.0,0.0,3.1708,3.1708,3.1708,3.1551,3.1205,3.1523,3.1666,3.1409,3.1205,3.1205,3.1467,3.1307,3.1293,3.1496,3.1511,3.1511,3.1511,0.0,0.0,0.0,0.0,0.0,0.0,0.0,0.0,0.0,0.0,0.0,0.0,0.0,0.0,0.0,0.0,0.0,0.0,0.0,0.0,0.0,0.0,0.0,0.0,0.0,0.0,0.0,0.0,0.0,3.1511,3.1511,0.0,0.0,0.0,0.0,3.1322,3.1307,3.156,3.2139,3.2047,3.2267,3.2901,3.296,3.3038,3.3163,3.3208,3.3315,3.3499,3.3499,3.3499,3.3499,3.3499,3.3499,3.3499,3.3499,3.3499,3.3455,3.2781,3.282,3.329,3.2686,3.2747,3.3195,3.3195,3.3195,3.3132,3.2614,3.2437,3.2356,3.1768,3.1965,3.2396,3.2199,3.2144,0.0,0.0,3.1407,3.0851,3.0806,3.0732,3.0657,3.0627,3.0627,3.0642,3.0642,3.0717,3.0791,0.0,3.0747,3.0717,3.0836,0.0,3.0969,3.1176,3.1161,3.1132,3.1132,3.1132,3.1058,3.0836,3.0851,3.0925,3.1117,3.1117,3.1205,3.1467,3.1496,3.1496,3.1511,3.1511,3.1511,3.1511,3.1511,0.0,0.0,0.0,0.0,0.0,0.0,0.0,0.0,0.0,0.0,0.0,0.0,0.0,0.0,0.0,0.0,0.0,0.0,0.0,0.0,0.0,0.0,0.0,0.0,0.0,0.0,0.0,0.0,3.1496,3.1351,0.0,3.1307,3.1278,3.1383,3.1708,3.1752,3.2032,3.2682,3.268,3.2752,3.2989,3.3432,3.3671,3.3704,3.4101,3.4339,3.4404,3.4404,3.4404,3.4404,3.4404,3.4468,3.4595,3.4595,3.466,3.4741,3.4053,3.3652,3.3426,3.32,3.3226,3.3386,3.3386,3.3386,3.3296,3.2683,3.2416,3.221,3.1485,3.1395,3.1553,3.1481,3.1466,3.1423,3.1248,3.1308,3.1405,3.1269,3.1542,3.183,3.183,3.183,3.183,3.183,3.1862,3.1893,3.1893,3.1255,3.0747,3.0791,3.0732,3.0717,3.088,3.0821,3.0777,3.0777,3.0777,3.0777,3.0791,3.0925,3.1058,3.1219,3.1146,3.1205,3.1467,3.1336,3.1322,3.1496,3.1511,3.1511,3.1511,3.1073,3.1073,0.0,0.0,0.0,0.0,0.0,0.0,0.0,0.0,0.0,0.0,0.0,0.0,0.0,0.0,0.0,0.0,0.0,0.0,0.0,0.0,0.0,0.0,0.0,0.0,0.0,0.0,3.1351,3.1467,3.1442,3.1442,3.1531,3.1648,3.1883,3.2203,3.2232,3.2541,3.3189,3.3185,3.3256,3.346,3.3901,3.417,3.425,3.4629,3.4866,3.4902,3.4902,3.4902,3.4902,3.4902,3.4968,3.5098,3.5098,3.5197,3.5362,3.4851,3.4404,3.405,3.3664,3.3499,3.3499,3.3499,3.3454,3.3333,3.2839,3.2614,3.2448,3.1914,3.1751,3.1736,3.1661,3.1646,3.1601,3.1419,3.1694,3.2014,3.1875,3.2177,3.2497,3.2497,3.2497,3.2497,3.2497,3.2497,3.2497,3.2497,3.1893,3.1373,3.1373,3.1297,3.1266,3.1358,3.1297,3.1251,3.1251,3.1047,3.0947,3.1038,3.0968,3.0999,3.1117,3.1117,3.1205,3.1409,3.1307,3.1307,3.1496,3.1511,3.1511,3.1511,3.0837,3.0614,3.0837,0.0,0.0,0.0,0.0,0.0,0.0,0.0,0.0,0.0,0.0,0.0,0.0,0.0,0.0,0.0,0.0,0.0,0.0,0.0,0.0,0.0,0.0,0.0,3.1307,3.1307,3.1366,3.1511,3.1812,3.2029,3.2015,3.2604,3.291,3.2735,3.2719,3.3027,3.3718,3.3629,3.3835,3.4426,3.4455,3.454,3.4756,3.4756,3.4808,3.4944,3.4944,3.4944,3.4944,3.4944,3.4944,3.496,3.496,3.5075,3.5223,3.5043,3.506,3.5137,3.399,3.3544,3.3544,3.3544,3.3406,3.3206,3.308,3.3003,3.2988,3.2988,3.2972,3.2941,3.2753,3.269,3.2658,3.2544,3.2511,3.2526,3.2526,3.2555,3.2555,3.2555,3.2555,3.2555,3.2555,3.2555,3.2555,3.2555,3.2555,3.2555,3.2511,3.2497,3.2497,3.2497,3.2497,0.0,3.2497,3.1931,3.1525,3.151,3.0989,3.0687,3.0791,3.0984,3.1161,3.1292,3.1394,3.1452,3.1452,3.1438,3.1423,3.1409,3.0792,3.0133,2.9473,0.0,0.0,0.0,0.0,0.0,0.0,0.0,0.0,0.0,0.0,0.0,0.0,0.0,0.0,0.0,0.0,0.0,0.0,0.0,0.0,0.0,0.0,3.1031,3.1146,3.153,3.1811,3.1871,3.217,3.2409,3.249,3.2587,3.2813,3.3247,3.3276,3.3756,3.4879,3.4903,3.5142,3.5764,3.5793,3.581,3.5863,3.5863,3.5881,3.5918,3.5918,3.5918,3.5918,3.5918,3.5988,3.6125,3.6125,3.6229,3.6369,3.6286,3.6318,3.6237,3.5004,3.4518,3.4518,3.4518,3.4191,3.3744,3.3568,3.3196,3.2769,3.2672,3.264,3.2624,3.2576,3.256,3.2544,3.2513,3.2846,3.3226,3.3226,3.3543,3.3875,3.3875,3.3875,3.3875,3.3875,3.3875,3.3875,3.3875,3.3875,3.3585,3.2656,3.2497,3.2497,3.2497,3.2497,0.0,3.2497,3.2351,3.2094,3.1754,3.1656,3.1439,3.1058,3.1161,3.1219,3.1161,3.0688,3.0479,3.0613,3.0161,2.9717,2.9329,2.9627,2.944,0.0,0.0,0.0,0.0,0.0,0.0,0.0,0.0,0.0,0.0,0.0,0.0,0.0,0.0,0.0,0.0,0.0,0.0,0.0,0.0,0.0,0.0,3.0761,3.0731,3.0725,3.1358,3.198,3.2367,3.2703,3.3071,3.3464,3.3625,3.3978,3.462,3.4678,3.4997,3.5738,3.5781,3.5941,3.6301,3.6301,3.6301,3.6301,3.6301,3.6301,3.6301,3.6301,3.6301,3.6301,3.6301,3.6369,3.6475,3.6475,3.6564,3.6708,3.662,3.6638,0.0,0.0,0.0,0.0,0.0,3.5375,3.5052,3.4866,3.452,3.4212,3.4126,3.4092,3.4092,3.4092,3.4092,3.4092,3.4092,3.437,3.4678,3.4678,3.4936,3.5212,3.5212,3.5212,3.5212,3.5212,3.5212,3.5212,3.5212,3.5212,0.0,3.3877,3.3485,3.3294,3.3294,3.3294,3.3294,3.3294,3.3079,3.2822,3.254,3.2326,3.1948,3.1319,3.1127,0.0,0.0,0.0,2.978,2.9963,2.9579,0.0,0.0,0.0,2.8744,2.8088,0.0,0.0,0.0,2.8762,2.8705,0.0,0.0,0.0,0.0,0.0,0.0,0.0,0.0,0.0,0.0,0.0,0.0,0.0,0.0,0.0,0.0,3.0477,3.0508,3.0414,3.1183,3.2063,3.2925,3.3487,3.406,3.4731,3.5228,3.5723,3.6272,3.6301,3.6326,3.6417,0.0,0.0,0.0,0.0,3.6519,3.6519,3.6519,3.6519,3.6519,3.6519,3.6519,3.6519,3.6519,3.6519,3.6519,3.6519,3.6623,3.6765,3.6587,3.6623,3.6769,3.6749,3.6728,3.6743,3.6617,3.6579,3.6529,3.6369,0.0,0.0,3.6301,3.6301,3.6301,3.6301,3.6301,3.6301,3.6301,3.6301,3.6301,3.6301,3.6301,3.6301,3.6301,3.6301,3.6301,3.6301,3.6301,3.6301,3.6301,3.6301,3.6127,3.5595,3.4954,3.4501,3.4412,3.4397,3.4397,3.4397,3.3937,3.3543,3.339,0.0,0.0,3.1452,3.0943,3.0462,2.9878,2.9505,2.9333,2.9416,2.9432,2.9175,2.8603,2.8587,2.8305,2.7699,2.8229,2.8494,2.8512,2.91,2.9106,0.0,0.0,0.0,0.0,0.0,0.0,0.0,0.0,0.0,0.0,0.0,0.0,0.0,0.0,0.0,3.0443,3.0236,3.0475,3.1519,3.2268,3.2838,3.314,3.4695,3.5807,3.5959,3.6072,3.617,3.6301,3.6301,3.6548,3.7085,3.7114,3.7331,3.7825,3.7839,3.7839,3.7839,3.7839,3.7839,3.7839,0.0,0.0,3.7839,3.7839,3.7839,3.7839,3.7839,3.7858,3.7895,3.7858,3.7858,3.7793,3.6797,3.639,3.639,3.6369,3.6369,3.6351,3.6315,3.6301,3.6301,3.6301,3.6301,3.6301,3.6301,3.6301,0.0,3.6301,3.6301,3.6301,3.6301,3.6301,3.6301,3.6301,3.6301,3.6301,3.6301,3.6301,3.6301,3.6301,3.6301,3.6272,3.6156,3.5622,3.5026,3.447,3.4397,3.4397,3.4397,3.4312,3.3823,3.2808,3.2587,3.1996,3.0721,3.0615,3.0474,3.0139,2.9661,2.9213,2.886,2.9009,2.9096,2.9144,2.9144,2.9075,2.8952,2.907,2.9122,2.9122,2.925,2.9482,0.0,0.0,0.0,0.0,0.0,0.0,0.0,0.0,0.0,0.0,0.0,3.1379,0.0,0.0,3.0726,3.053,3.039,3.0624,3.1558,3.2585,3.3462,3.403,3.54,3.6428,3.678,3.6809,3.6939,3.723,3.7259,3.7404,3.7738,3.7752,3.7897,3.8188,3.8202,3.8202,3.8202,3.8202,3.8202,3.8202,3.8202,3.8202,3.8202,3.8202,3.8202,3.8202,3.8202,3.8202,3.8202,3.8202,3.8202,3.8144,3.7506,3.7259,3.7259,3.7259,3.7259,3.7259,3.7259,3.7259,3.7259,3.7259,3.7259,3.7259,3.7259,3.7259,3.7259,3.7259,3.7259,3.7259,3.7259,3.6932,3.6602,3.6602,3.6274,3.5957,3.5957,3.5957,3.5957,3.5957,3.5957,3.584,3.5559,3.5251,3.4878,3.4383,3.4311,3.4043,3.3336,3.3241,3.301,3.2374,3.2312,3.1874,3.0837,3.0204,2.9731,2.9469,2.92,2.9035,2.9007,2.911,2.9199,2.9292,2.9292,2.9292,2.9292,2.9575,2.9706,2.9719,3.0024,3.0137,0.0,0.0,0.0,0.0,0.0,0.0,0.0,0.0,3.1281,3.1391,3.1764,3.1723,3.063,3.0788,3.1008,3.079,3.0771,3.0947,3.1474,3.2674,3.3834,3.4768,3.5781,3.67,3.7415,3.7458,3.768,3.8159,3.8202,3.8202,3.8202,3.8202,3.8202,3.8202,3.8202,3.8202,3.8202,3.8202,3.8202,3.8202,3.8202,3.8202,3.8202,3.8202,3.8202,3.8202,3.8202,3.8202,3.8202,3.8202,3.8202,3.8202,3.8202,3.8202,3.8202,3.8202,3.8202,3.8202,3.8202,3.8202,3.8202,3.8202,3.8202,3.8202,3.8202,3.8202,3.8202,3.8202,3.8202,3.8202,3.8202,3.7682,3.715,3.715,3.6615,3.6068,3.5889,3.5849,3.5795,3.5635,3.5595,3.5459,3.4958,3.4871,3.4699,3.4186,3.4097,3.3674,3.2404,3.225,3.2155,3.1887,3.1874,3.1594,3.0904,2.9864,2.9148,2.8932,2.8913,2.9096,2.9506,2.9511,2.956,2.9632,2.9632,2.9632,2.9632,3.0053,3.0275,3.0302,3.0764,3.0738,3.0514,3.051,3.0569,3.0808,3.0514,3.0132,0.0,0.0,2.9999,3.0017,3.0075,3.0208,3.0518,3.0639,3.0802,3.1231,3.1298,3.1499,3.2039,3.2919,3.3727,3.4383,3.5864,3.7172,3.8011,3.8101,3.813,3.8202,3.8202,3.8202,3.8202,3.8202,3.8202,3.8202,3.8202,3.8202,3.8202,3.8202,3.8202,3.8202,3.8202,3.8202,3.8202,3.8202,3.8202,3.8202,3.8202,3.8202,3.8202,3.8202,3.8202,3.8202,3.8202,3.8202,3.8202,3.8202,3.8202,3.8202,3.8202,3.8202,3.8202,3.8202,3.8202,3.8202,3.8202,3.8202,3.8202,3.8202,3.8202,3.8202,3.8202,3.8127,3.8037,3.8037,3.7981,3.7701,3.6922,3.6747,3.6531,3.5735,3.5595,3.5581,3.5513,3.55,3.5106,3.3932,3.3756,3.3539,3.2886,3.2805,3.2342,3.1172,3.1044,3.0745,3.0005,2.9801,2.9719,2.968,2.968,2.9859,3.0252,3.0271,3.044,3.079,3.0809,3.0809,3.0809,3.0874,3.0895,3.0895,3.0979,3.0966,3.0056,3.0065,3.0123,0.0,3.0094,2.9895,2.9811,2.9792,2.9918,3.035,3.0347,3.0484,3.1125,3.1133,3.1235,0.0,3.1863,3.2064,3.2641,3.3043,3.354,3.4309,3.5012,3.597,3.7304,3.7905,3.8202,3.8202,3.8202,3.8202,3.8202,3.8202,3.8202,3.8202,3.8202,3.8202,3.8202,3.8202,3.8202,3.8202,3.8202,3.8202,3.8202,3.8202,3.8202,3.8202,3.8202,3.8202,3.8202,3.8202,3.8202,3.8202,3.8202,3.8202,3.8202,3.8202,3.8202,3.8202,3.8202,3.8202,3.8202,3.8202,3.8202,3.8202,3.8202,3.8202,3.8202,3.8202,3.8202,3.8089,3.7587,3.7078,3.6576,3.6096,3.5595,3.5128,3.4759,3.469,3.4587,3.4212,3.415,3.415,3.415,3.415,3.3973,3.3444,3.348,3.3219,3.2169,3.174,3.1222,3.0349,3.026,3.0139,2.983,2.9792,2.985,2.9972,2.9972,3.0094,3.0387,3.0514,3.0647,3.083,3.093,3.1005,3.1005,3.1005,3.1005,3.1005,3.1005,3.1169,2.9871,0.0,0.0,3.0018,3.0018,3.0055,3.0206,3.0231,3.0383,3.0933,3.0921,3.1037,3.1721,3.1727,3.18,3.2365,3.2453,3.2604,3.304,3.3102,3.3326,3.3971,3.4251,3.4971,3.6399,3.7116,3.7477,3.7477,3.7701,3.7739,3.7496,3.7943,3.8089,3.7848,3.8071,3.8202,3.8202,3.8202,3.8202,3.8202,3.8202,3.8202,3.8202,3.8202,3.8202,3.8202,3.8202,3.8202,3.8202,3.8202,3.8202,3.8202,3.8202,3.8202,3.8202,3.8202,3.8202,3.8202,3.8202,3.8202,3.8202,3.8202,3.8202,3.8202,3.8202,3.8202,3.8202,3.8202,3.8202,3.8,3.713,3.6439,3.5749,3.4937,3.4246,3.3747,3.3505,3.3454,3.339,3.3145,3.3102,3.3102,3.3102,3.3102,3.3102,3.3102,3.3275,3.2954,3.177,3.1014,3.0437,3.0068,2.988,2.9792,2.9792,2.9792,2.9869,3.0011,3.0056,3.019,3.0387,3.0533,3.0641,3.0698,3.0849,3.0911,3.0911,3.0968,3.1065,3.1222,3.1222,3.1516,0.0,0.0,3.0575,3.0575,3.0575,3.0701,3.1223,3.1356,3.1369,3.1381,3.1381,3.1537,3.2089,3.219,3.2378,3.2977,3.3077,3.3077,3.3102,3.3102,3.3124,3.3145,3.3886,3.4724,0.0,3.5655,3.5675,3.5675,3.6458,3.6557,3.5715,3.729,3.781,3.6975,3.7772,3.8202,3.8202,3.8202,3.8202,3.8202,3.8202,3.8202,3.8202,3.8202,3.8202,3.8202,3.8202,3.8202,3.8202,3.8202,3.8202,3.8202,3.8202,3.8202,3.8202,3.8202,3.8202,3.8202,3.8202,3.8202,3.8202,3.8202,3.8202,3.8202,3.8202,3.8202,3.8202,3.8202,3.8202,3.8,3.713,3.6878,3.6649,3.5769,3.5534,3.5305,3.453,3.4356,3.4105,3.3261,3.3102,3.3102,3.3102,3.3102,3.3102,3.3102,3.3099,3.2885,3.2265,3.1253,3.0588,3.0575,3.0118,2.9792,2.9792,2.9792,2.9792,2.9811,2.9991,3.019,3.0387,3.0406,3.0501,3.0698,3.0717,3.0717,3.0717,3.0892,3.1274,3.1784,3.1784,3.2104,3.0896,0.0,3.1135,3.1135,3.1135,3.1173,3.1369,3.1406,3.1499,3.1863,3.1938,3.2114,3.2679,3.2801,3.2855,3.3065,3.3102,3.3102,3.3102,3.3102,3.3102,3.3102,3.3368,0.0,0.0,0.0,0.0,3.729,3.7606,3.7625,3.7328,3.7886,3.8071,3.7772,3.7491,3.7342,3.7342,3.7342,3.7342,3.7342,3.7924,3.8202,3.8202,3.8202,3.8202,3.8202,3.8202,3.8202,3.8202,3.8202,3.8202,3.8202,3.8202,3.8202,3.8202,3.8202,3.8202,3.8202,3.8202,3.8202,3.8202,3.8202,3.8202,3.8202,3.8202,3.8202,3.8202,3.8202,3.8202,3.7886,3.6405,3.6029,3.5689,3.4275,3.3932,3.3882,3.3611,3.3539,3.3454,3.3167,3.3102,3.3102,3.3102,3.3102,3.3102,3.3102,3.3102,3.2889,3.229,3.188,3.1537,3.1173,3.0972,3.0846,3.0846,3.0846,3.0846,3.0846,3.0926,3.1066,3.1305,3.1456,3.1627,3.1811,3.1824,3.1889,3.2026,3.1948,3.2091,3.2411,3.2411,3.2725,3.1449,3.1537,3.1687,3.1687,3.1687,3.1738,3.1972,3.2009,3.2123,3.2453,3.2516,3.2641,3.3027,3.3102,3.3102,3.3102,3.3102,3.3102,3.3102,3.3102,3.3102,3.3102,3.3102,3.3219,0.0,0.0,0.0,3.6379,3.6669,3.6708,3.6399,3.6961,3.7136,3.6858,3.659,3.6439,3.6439,3.6439,3.6576,3.6917,3.7791,3.8202,3.8202,3.8202,3.8202,3.8202,3.8202,3.8202,3.8202,3.8202,3.8202,3.8202,3.8202,3.8202,3.8202,3.8202,3.8202,3.8202,3.8202,3.8202,3.8202,3.8202,3.8202,3.8146,3.7829,3.7739,3.7663,3.7347,3.7271,3.6947,3.5541,3.5176,3.4821,3.342,3.3102,3.3102,3.3102,3.3102,3.3102,3.3102,3.3102,3.3102,3.3102,3.3102,3.3102,3.3102,3.3102,3.2964,3.2566,3.234,3.2077,3.1725,3.1499,3.1406,3.1406,3.1406,3.1406,3.1406,3.146,3.1582,3.1757,3.1972,3.2166,3.2293,3.2353,3.246,3.2599,3.254,3.2684,3.3012,3.3012,3.3326,3.1625,3.1863,3.2252,3.2252,3.2252,3.2403,3.2977,3.3102,3.3102,3.3102,3.3102,3.3102,0.0,0.0,3.3102,3.3102,3.3128,3.314,3.314,3.3165,3.3178,0.0,0.0,0.0,0.0,0.0,0.0,3.3294,0.0,3.423,3.3398,3.4869,3.5379,3.4613,3.5325,3.5729,3.5729,3.5757,3.6204,3.706,3.7868,3.826,3.826,3.8217,3.8202,3.8202,3.8202,3.8202,3.8202,3.8202,3.8202,3.8202,3.8202,3.8202,3.8202,3.8202,3.8202,3.8202,3.8202,3.8202,3.8202,3.8202,3.8165,3.7981,3.715,3.6878,3.6669,3.5829,3.5595,3.5406,3.46,3.4397,3.4189,3.3304,3.3102,3.3102,3.3102,3.3102,3.3102,3.3102,3.3102,3.3102,3.3102,3.3102,3.3102,3.3102,3.3102,3.3102,3.3102,3.2591,3.2252,3.2252,3.1788,3.1494,3.1494,3.1494,3.1494,3.1494,3.1691,3.1805,3.1805,3.2041,3.2195,3.2215,3.2384,3.2471,3.2491,3.2677,3.3077,3.3639,3.3639,3.3901,3.27,3.2776,3.2876,3.2876,3.2876,3.2914,3.3065,3.3102,3.3102,3.3102,3.3102,3.3102,0.0,0.0,0.0,3.3102,3.3442,0.0,3.3696,3.4048,0.0,3.4276,0.0,3.4388,3.4597,3.4805,0.0,0.0,3.6123,3.713,3.6922,3.729,3.7438,3.7227,3.7279,3.7318,3.7318,3.7813,3.8474,3.9283,3.9064,3.8942,3.8928,3.8434,3.8202,3.8202,3.8202,3.8202,3.8202,3.8202,3.8202,3.8202,3.8202,3.8202,3.8202,3.8202,3.8202,3.8202,3.8202,3.8202,3.8202,3.8202,3.7772,3.7188,3.6975,3.6439,3.5889,3.5655,3.5595,3.5406,3.46,3.4397,3.4189,3.3304,3.3102,3.3102,3.3102,3.3102,3.3102,3.3102,3.3102,3.3102,3.3102,3.3102,3.3102,3.3102,3.3102,3.3102,3.3102,3.2977,3.2876,3.2876,3.2751,3.2675,3.2675,3.2798,3.2883,3.2883,3.3093,3.3185,3.3185,3.3261,3.3399,3.3586,3.3449,3.3553,3.3884,3.3781,3.39,3.4188,3.4188,3.4267,3.3102,3.3102,3.3102,3.3102,3.3102,3.3102,3.3102,3.3102,3.3102,3.3102,3.3102,0.0,0.0,0.0,0.0,0.0,0.0,0.0,3.4223,3.4502,3.4703,0.0,3.4703,0.0,3.4703,3.506,3.5258,0.0,3.6138,3.6661,3.6661,3.6661,3.6661,3.6661,3.6554,3.6511,3.6511,3.7661,3.8469,3.8926,3.9388,3.9596,3.9581,3.9204,3.903,3.903,0.0,3.903,3.9015,3.8754,3.8638,3.8609,3.8318,3.8202,3.8202,3.8202,3.8202,3.8202,3.8202,3.8202,3.8202,3.8202,3.7606,3.6839,3.6439,3.5742,3.4992,3.4615,3.4511,3.44,3.3958,3.3823,3.3717,3.3219,3.3102,3.3102,3.3102,3.3102,3.3102,3.3102,3.3102,3.3102,3.3102,3.3102,3.3102,3.3102,3.3102,3.3102,3.3102,3.3102,3.3102,3.3102,3.3102,3.3102,3.3102,3.3197,3.3313,3.3398,3.3513,3.362,3.3691,3.3691,3.3831,3.4097,3.3937,3.4042,3.4397,3.4293,3.4293,3.4397,3.4397,3.4397,3.3102,3.3102,3.3102,3.3102,3.3102,3.3102,3.3102,3.3102,3.3102,3.3102,0.0,3.3102,3.3102,3.3153,3.3366,3.3822,0.0,3.4264,3.4741,3.4879,3.4939,3.4939,3.4939,3.4939,3.4939,3.5609,3.605,3.605,3.5353,3.4954,3.505,3.5038,3.5098,3.5161,3.5174,3.5235,3.5298,3.686,3.7685,3.7833,3.9319,4.0101,4.0234,4.0133,4.0104,4.0104,4.0104,4.0104,4.006,3.9538,3.932,3.9262,3.8681,3.8449,3.8449,3.8362,3.8333,3.8318,3.8231,3.8127,3.8018,3.8018,3.7453,3.657,3.5689,3.4875,3.4063,3.3304,3.3102,3.3102,3.3102,3.3102,3.3102,3.3102,3.3102,3.3102,3.3102,3.3102,3.3102,3.3102,3.3102,3.3102,3.3102,3.3102,3.3102,3.3102,3.3102,3.3102,3.3102,3.3102,3.3102,3.3102,3.3102,3.3102,3.3102,3.3124,3.3219,3.3398,3.3462,3.3556,3.3691,3.3734,3.3852,3.4097,3.4097,3.4202,3.4397,3.4397,3.4397,3.4397,3.4397,3.4397,3.3102,3.3102,3.3102,3.3102,3.3102,3.3102,3.3102,3.3102,0.0,0.0,3.3102,3.3102,3.3102,3.3467,3.3784,3.3884,0.0,0.0,0.0,0.0,3.6105,0.0,0.0,0.0,0.0,0.0,0.0,0.0,3.6186,3.6309,3.6825,3.6836,3.7107,3.7653,3.7667,3.793,3.8399,3.8722,3.9292,4.0032,3.9851,4.0177,4.0902,4.035,4.0104,4.0104,4.0104,0.0,4.0089,3.9987,3.9944,3.9929,3.9813,3.977,3.9712,3.9218,3.903,3.8942,3.8391,3.772,3.713,3.713,3.6537,3.5669,3.4855,3.4021,3.3283,3.3133,3.3102,3.3102,3.3102,3.3102,3.3102,3.3102,3.3102,3.3102,3.3102,3.3102,3.3102,3.3102,3.3102,3.3102,3.3102,3.3102,3.3102,3.3102,3.3102,3.3102,3.3102,3.3102,3.3102,3.3102,3.3102,3.3102,3.3102,3.3261,3.3356,3.3398,3.3759,3.3894,3.3713,3.3915,3.4055,3.4097,3.4097,3.4202,3.4397,3.4397,3.4397,3.4397,3.4397,3.4397,3.3102,3.3102,3.3102,3.3102,3.3102,3.3102,3.3102,0.0,0.0,0.0,3.3102,3.3328,3.4097,0.0,0.0,0.0,0.0,0.0,0.0,0.0,0.0,0.0,0.0,0.0,0.0,0.0,0.0,3.6405,3.6405,3.6527,3.6831,3.7307,3.7714,3.8038,3.8051,3.7924,3.7736,3.8238,3.8698,3.9166,3.9341,3.9692,4.0104,4.029,4.0355,4.0375,4.0903,4.1134,4.1105,4.0757,4.0612,4.0583,4.0234,4.0104,4.006,3.977,3.9668,3.9625,3.9305,3.8598,3.7758,3.7294,3.6178,3.4903,3.4509,3.3802,3.3102,3.3102,3.3102,3.3102,3.3102,3.3102,3.3102,3.3102,3.3102,3.3102,3.3102,3.3102,3.3102,3.3102,3.3102,3.3102,3.3102,3.3102,3.3102,3.3102,3.3102,3.3102,3.3102,3.3102,3.3102,3.3102,3.3102,3.3102,3.3102,3.3197,3.3304,3.3398,3.3704,3.3894,3.3915,3.4034,3.416,3.4264,3.416,3.4202,3.4397,3.4397,3.4397,3.4397,3.4397,3.4397,3.3102,3.3102,3.3102,3.3102,3.3102,3.3102,3.3102,3.3102,0.0,0.0,3.3438,3.3964,3.5243,0.0,0.0,0.0,0.0,0.0,0.0,0.0,0.0,0.0,0.0,0.0,0.0,0.0,0.0,3.6405,3.6405,3.6405,3.6405,3.7106,3.75,3.75,3.75,3.7152,3.6405,3.7129,3.7602,3.7808,3.8742,3.921,3.9219,4.0159,4.0482,4.0367,4.1353,4.1773,4.175,4.143,4.1308,4.123,4.0513,4.035,4.049,4.0132,4.0148,4.0292,4.0147,3.9364,3.8311,3.7623,3.618,3.4708,3.451,3.399,3.3454,3.3454,3.3454,3.3454,3.3454,3.3454,3.3454,3.3454,3.3454,3.3416,3.3303,3.3278,3.3241,3.3128,3.3102,3.3102,3.3102,3.3102,3.3102,3.3102,3.3102,3.3102,3.3102,3.3102,3.3102,3.3102,3.3102,3.3102,3.3102,3.3102,3.3176,3.3334,3.3513,3.3747,3.4013,3.4076,3.4202,3.4397,3.4243,3.4243,3.4397,3.4397,3.4397,3.4397,3.4397,3.4397,3.3102,3.3102,3.3102,3.3102,3.3102,3.3102,3.3102,0.0,0.0,3.3721,3.449,3.5278,3.5918,0.0,0.0,0.0,0.0,0.0,0.0,0.0,0.0,0.0,0.0,0.0,0.0,0.0,0.0,3.6405,3.6405,3.6405,3.6405,3.6476,3.6523,3.6523,3.6523,3.6499,3.6405,3.6499,3.6956,3.7808,3.8742,3.921,3.9219,4.0159,4.0138,3.9373,4.0324,4.0731,0.0,4.1659,4.2005,4.1908,4.0936,4.1111,4.1728,4.027,4.0283,4.0916,4.0307,3.8966,3.7517,3.7433,3.6692,3.5717,3.4908,3.462,3.4552,3.4552,3.4552,3.4552,3.4552,3.4552,3.4552,3.4552,3.4552,3.4414,3.3935,3.3822,3.3671,3.319,3.3102,3.3102,3.3102,3.3102,3.3102,3.3102,3.3102,3.3102,3.3102,3.3102,3.3102,3.3102,3.3102,3.3102,3.3102,3.3102,3.3124,3.3133,3.3313,3.3513,3.3747,3.3971,3.4202,3.4397,3.4377,3.4377,3.4397,3.4397,3.4397,3.4397,3.4397,3.4397,3.3102,3.3102,3.3102,3.3102,3.3102,3.3328,3.4221,0.0,3.4058,3.5785,3.5933,3.6126,3.7259,0.0,0.0,0.0,0.0,0.0,0.0,0.0,0.0,0.0,0.0,0.0,0.0,0.0,3.6405,3.6405,3.6405,3.6405,3.6405,3.6956,3.7245,3.7245,3.7245,3.6979,3.6405,3.6405,3.6886,3.7808,3.8183,3.8653,3.9219,4.0159,4.0094,3.9241,4.0181,4.0603,0.0,4.1015,4.1556,4.2009,4.0993,4.0831,4.1043,3.9845,3.9632,3.9912,3.9661,3.8708,3.7652,3.7652,3.7003,3.606,3.5005,3.4703,3.4703,3.4703,3.4703,3.4703,3.4703,3.4703,3.4703,3.4703,3.4703,3.464,3.4427,3.4377,3.4324,3.411,3.406,3.406,3.406,3.3796,3.3571,3.3571,3.3316,3.3102,3.3102,3.3102,3.3102,3.3102,3.3102,3.3102,3.3102,3.3102,3.3102,3.3102,3.3398,3.362,3.3691,3.4063,3.4314,3.4397,3.4397,3.4397,3.4397,3.4397,3.4397,3.4397,3.4397,3.4593,3.3197,3.3154,3.3192,3.3644,3.3747,3.4131,0.0,0.0,3.5174,3.7377,3.7284,3.7155,3.8399,3.8324,0.0,0.0,0.0,3.8576,0.0,0.0,0.0,0.0,0.0,0.0,0.0,3.6405,3.6405,3.6405,3.6405,3.6405,3.6405,3.7026,3.7384,3.7384,3.7384,3.7059,3.6405,3.6405,3.6722,3.7384,3.7671,3.816,3.881,3.9768,3.9834,3.9241,3.9899,4.0181,0.0,4.0181,4.0781,4.1556,4.0575,4.0353,4.0482,3.9549,3.921,3.921,3.921,3.8599,3.7808,3.7808,3.7152,3.6243,3.5441,3.5203,3.5203,3.5203,3.5203,3.5203,3.5203,3.5203,3.5203,3.5203,3.5203,3.5165,3.4979,3.4941,3.4891,3.4728,3.4703,3.4703,3.4703,3.4377,3.4148,3.4148,3.3809,3.3558,3.3558,3.3558,3.3508,3.3354,3.3341,3.3278,3.3115,3.3154,3.3197,3.3197,3.3513,3.3734,3.3831,3.4147,3.4335,3.4397,3.4397,3.4397,3.4397,3.4397,3.4397,3.4397,3.4397,3.4724,3.3398,3.3261,3.3452,3.4915,3.528,3.568,0.0,0.0,3.652,3.8071,3.838,3.8534,3.9088,3.9929,4.0267,3.9351,0.0,0.0,3.7955,0.0,0.0,0.0,0.0,0.0,3.6593,3.6405,3.6405,3.6405,3.6405,0.0,3.6405,3.6405,3.6405,3.6405,3.6405,3.6405,3.6405,3.6405,3.6405,3.6428,3.7361,3.7808,3.7854,3.8787,3.921,3.921,3.921,3.921,0.0,3.921,3.9768,4.0504,3.9571,3.9768,4.0482,3.9549,3.921,3.921,3.921,3.8599,3.7808,3.7808,3.7152,3.6405,3.6392,3.6392,3.6392,3.6392,3.6392,3.6392,3.6392,3.6392,3.6392,3.6392,3.6392,3.6218,3.5631,3.5495,3.532,3.4803,3.4703,3.4703,3.4703,3.469,3.469,3.469,3.469,3.4678,3.4678,3.4678,3.4477,3.3947,3.3884,3.3671,3.3153,3.3283,3.3398,3.3398,3.3598,3.3831,3.4076,3.4097,3.4202,3.4397,3.4397,3.4397,3.4397,3.4397,3.4397,3.4397,3.4397,3.4724,3.4828,3.4988,3.5126,3.6139,3.6635,3.7128,3.8123,0.0,3.8085,3.9592,3.9903,3.9958,4.0131,4.0396,4.0504,4.0202,3.9615,0.0,0.0,0.0,0.0,0.0,0.0,0.0,0.0,0.0,3.6405,3.6405,3.6405,3.6405,3.6405,3.6405,3.6405,3.6405,3.6405,3.6405,3.6405,3.6405,3.6722,3.7361,3.7648,3.8137,3.8765,3.9055,3.921,3.9166,3.8531,3.8621,3.9166,3.8509,3.8787,3.9549,3.8621,3.8419,3.8563,3.7635,3.7302,3.7302,3.7302,3.7106,3.6839,3.6839,3.664,3.6405,3.6405,3.6405,3.6405,3.6405,3.6405,3.6405,3.6405,3.6405,3.6405,3.6405,3.6405,3.6344,3.6168,3.613,3.6067,3.5891,3.5866,3.5866,3.5866,3.5506,3.5245,3.5245,3.4941,3.4703,3.4703,3.4703,3.4628,3.4452,3.4439,3.4152,3.338,3.3356,3.3462,3.3598,3.3649,3.3831,3.4097,3.4097,3.4202,3.4397,3.4397,3.4397,3.4397,3.4397,3.4607,3.5012,3.5391,3.5887,0.0,3.6064,3.6356,3.7378,3.8075,0.0,0.0,0.0,3.9607,4.0901,4.0852,4.0603,4.0603,4.0603,4.0603,4.0603,4.0116,0.0,0.0,0.0,0.0,0.0,0.0,0.0,0.0,3.6617,3.6405,3.6405,3.6405,3.6405,3.6405,3.6405,3.6405,3.6405,3.6405,3.6405,3.6405,3.6405,3.6675,3.7268,3.7268,3.775,3.8653,3.8653,3.8877,3.9166,3.8206,3.8137,0.0,3.7658,3.7818,3.8621,3.8024,3.7808,3.7717,3.7129,3.6698,3.6405,3.6405,3.6405,3.6405,3.6405,3.6405,3.6405,3.6405,3.6405,3.6405,3.6405,3.6405,3.6405,3.6405,3.6405,3.6405,3.6405,3.6405,3.6405,3.6405,3.6405,3.6405,3.6405,3.6405,3.6405,3.6405,3.6081,3.5832,3.5832,3.5567,3.5341,3.5341,3.5341,3.5265,3.5029,3.5017,3.4743,3.41,3.4098,3.4206,3.4323,3.4504,3.4675,3.4859,3.4859,3.491,3.5038,3.5038,3.5038,3.5038,3.5038,3.5234,3.5613,3.6175,3.6645,0.0,3.6772,0.0,0.0,0.0,0.0,0.0,0.0,0.0,4.1814,4.1296,4.071,4.071,4.071,4.071,4.071,4.0582,0.0,0.0,0.0,0.0,0.0,3.7451,0.0,3.7625,3.6896,3.6405,3.6405,3.6405,3.6405,3.6405,3.6405,3.6405,3.6405,3.6405,3.6405,3.6405,3.6405,3.6405,3.6405,3.6405,3.6862,3.7694,3.7694,3.8215,0.0,3.8115,3.774,3.7717,3.6792,3.6896,3.7694,3.7694,3.7694,3.7694,3.7694,3.7152,3.6405,3.6405,3.6405,3.6405,3.6405,3.6405,3.6405,3.6405,3.6405,3.6405,3.6405,3.6405,3.6405,3.6405,3.6405,3.6405,3.6405,3.6405,3.6405,3.6405,3.6405,3.6405,3.6405,3.6405,3.6405,3.6405,3.6405,3.6405,3.6405,3.6405,3.6405,3.6405,3.6405,3.6193,3.5631,3.5558,3.5472,3.5218,3.5315,3.542,3.5442,3.5837,3.6088,3.6109,3.6088,3.6088,3.6109,3.6109,3.6109,3.6109,3.6109,3.6123,3.6188,3.6737,3.7024,3.9475,0.0,3.8991,3.9815,4.0953,4.1742,0.0,0.0,0.0,0.0,0.0,4.1752,4.1752,4.1752,4.1752,4.1752,4.0503,3.9439,3.9219,0.0,0.0,3.707,3.6675,3.6499,3.6698,3.6523,3.6405,3.6405,3.6405,3.6405,3.6405,3.6405,3.6405,3.6405,3.6405,3.6405,3.6405,3.6405,3.6405,3.6405,3.6405,3.6523,3.6722,3.6722,3.7245,3.8069,3.7129,3.7129,3.7717,3.6792,3.6523,3.6722,3.6722,3.6722,3.6722,3.6722,3.6581,3.6405,3.6405,3.6405,3.6405,3.6405,3.6405,3.6405,3.6405,3.6405,3.6405,3.6405,3.6405,3.6405,3.6405,3.6405,3.6405,3.6405,3.6405,3.6405,3.6405,3.6405,3.6405,3.6405,3.6405,3.6405,3.6405,3.6405,3.6405,3.6405,3.6405,3.6405,3.6405,3.6405,3.6344,3.6205,3.6193,3.6166,3.611,3.5658,3.5487,3.5699,3.5806,3.5934,3.6088,3.5956,3.5934,3.6109,3.6109,3.6109,3.6109,3.6109,3.6345,3.6789,3.6933,3.7246,4.0377,4.0392,4.0006,4.0126,4.1352,4.226,0.0,0.0,0.0,0.0,0.0,0.0,4.2092,4.1717,4.1416,4.1416,4.0165,0.0,0.0,0.0,0.0,3.6452,3.6769,3.6886,0.0,3.6405,3.6405,3.6405,3.6405,3.6405,3.6405,3.6405,3.6405,3.6405,3.6405,3.6405,3.6405,3.6405,3.6405,3.6405,3.6405,3.6405,3.6405,3.6405,3.6675,3.7129,3.6617,3.6675,3.7129,3.6617,3.6405,3.6405,3.6405,3.6405,3.6405,3.6405,3.6405,3.6405,3.6405,3.6405,3.6405,3.6405,3.6405,3.6405,3.6405,3.6405,3.6405,3.6405,3.6405,3.6405,3.6405,3.6405,3.6405,3.6405,3.6405,3.6405,3.6405,3.6405,3.6405,3.6405,3.6405,3.6405,3.6405,3.6405,3.6405,3.6405,3.6405,3.6405,3.6405,3.6405,3.6405,3.6405,3.6405,3.6405,3.6405,3.6153,3.6108,3.637,3.6619,3.6798,3.6933,3.6821,3.6798,3.6933,3.6933,3.6933,3.6933,3.6933,3.709,3.7416,3.7416,3.7586,4.0633,4.0781,4.0482,4.0238,4.1331,4.2225,0.0,0.0,0.0,0.0,0.0,0.0,0.0,0.0,0.0,0.0,0.0,0.0,3.774,3.7592,3.7292,3.6499,3.7106,0.0,3.6476,3.6405,3.6405,3.6405,3.6405,3.6405,3.6405,3.6405,3.6405,3.6405,3.6405,3.6405,3.6405,3.6405,3.6405,3.6405,3.6405,3.6405,3.6405,3.6405,3.6405,3.6405,0.0,0.0,3.6405,3.6405,3.6405,3.6405,3.6405,3.6405,3.6405,3.6405,3.6405,3.6405,3.6405,3.6405,3.6405,3.6405,3.6405,3.6405,3.6405,3.6405,3.6405,3.6405,3.6405,3.6405,3.6405,3.6405,3.6405,3.6405,3.6405,3.6405,3.6405,3.6405,3.6405,3.6405,3.6405,3.6405,3.6405,3.6405,3.6405,3.6405,3.6405,3.6405,3.6405,3.6405,3.6405,3.6405,3.6405,3.6405,3.6405,3.6581,3.6815,3.7085,3.7551,3.7854,3.79,3.79,3.79,3.79,3.79,3.79,3.79,3.79,3.79,3.79,3.79,3.79,4.2629,4.1601,4.0454,4.124,4.1339,4.1423,4.2034,0.0,0.0,0.0,0.0,0.0,0.0,0.0,0.0,0.0,0.0,3.8585,0.0,0.0,3.657,3.6428,0.0,3.657,3.6405,3.6405,3.6405,3.6405,3.6405,3.6405,3.6405,3.6405,3.6405,3.6405,3.6405,3.6405,3.6405,3.6405,3.6405,3.6405,3.6405,3.6405,3.6405,3.6405,3.6405,3.6405,0.0,3.6405,3.6405,3.6405,3.6405,3.6405,3.6405,3.6405,3.6405,3.6405,3.6405,3.6405,3.6405,3.6405,3.6405,3.6405,3.6405,3.6405,3.6405,3.6405,3.6405,3.6405,3.6405,3.6405,3.6405,3.6405,3.6405,3.6405,3.6405,3.6405,3.6405,3.6405,3.6405,3.6405,3.6405,3.6405,3.6405,3.6405,3.6405,3.6405,3.6405,3.6405,3.6405,3.6405,3.6405,3.6405,3.6405,3.6405,3.6405,3.6581,3.6815,3.7085,3.7377,3.7657,3.7877,3.79,3.79,3.79,3.79,3.79,3.79,3.79,3.79,3.79,3.79,3.79,4.2217,4.1734,4.093,4.1505,4.0923,4.0181,4.0094,0.0,0.0,0.0,0.0,0.0,0.0,0.0,4.0057,3.8572,0.0,3.7381,3.6523,3.6839,3.6979,0.0,0.0,3.6956,3.6452,3.6405,3.6405,3.6405,3.6405,3.6405,3.6405,3.6405,3.6405,3.6405,3.6405,3.6405,3.6405,3.6405,3.6405,3.6405,3.6405,3.6405,3.6405,3.6405,3.6405,3.6405,0.0,3.6405,3.6405,3.6405,3.6405,3.6405,3.6405,3.6405,3.6405,3.6405,3.6405,3.6405,3.6405,3.6405,3.6405,3.6405,3.6405,3.6405,3.6405,3.6405,3.6405,3.6405,3.6405,3.6405,3.6405,3.6405,3.6405,3.6405,3.6405,3.6405,3.6405,3.6405,3.6405,3.6405,3.6405,3.6405,3.6405,3.6405,3.6405,3.6405,3.6405,3.6405,3.6405,3.6405,3.6405,3.6405,3.6405,3.6405,3.6405,3.6476,3.6758,3.7284,3.7564,3.7785,3.79,3.79,3.79,3.79,3.79,3.79,3.79,3.79,3.79,3.79,3.79,3.79,4.1914,4.1852,4.1407,4.1497,0.0,3.9508,3.8635,0.0,0.0,0.0,0.0,0.0,0.0,3.9681,0.0,3.6989,3.6722,3.6664,3.6428,3.7026,3.7199,3.6499,3.7036,3.7199,3.6476,3.6405,3.6405,3.6405,3.6405,3.6405,3.6405,3.6405,3.6405,3.6405,3.6405,3.6405,3.6405,3.6405,3.6405,3.6405,3.6405,3.6405,3.6405,3.6405,3.6405,3.6405,3.6405,3.6405,3.6405,3.6405,3.6405,3.6405,3.6405,3.6405,3.6405,3.6405,3.6405,3.6405,3.6405,3.6405,3.6405,3.6405,3.6405,3.6405,3.6405,3.6405,3.6405,3.6405,3.6405,3.6405,3.6405,3.6405,3.6405,3.6405,3.6405,3.6405,3.6405,3.6405,3.6405,3.6405,3.6405,3.6405,3.6405,3.6405,3.6405,3.6405,3.6405,3.6405,3.6405,3.6405,3.6405,3.6405,3.6405,3.6405,3.6405,3.6499,3.6805,3.7366,3.7657,3.7831,3.79,3.79,3.79,3.79,3.79,3.79,3.79,3.79,3.79,3.79,3.79,3.79,4.317,4.2406,4.1539,4.1365,4.0923,0.0,3.9574,3.9293,0.0,0.0,0.0,0.0,0.0,3.9241,3.8877,3.7864,3.7694,3.7407,3.6523,0.0,3.6476,3.6405,3.6452,3.6476,3.6405,3.6405,3.6405,3.6405,3.6405,3.6405,3.6405,3.6405,3.6405,3.6405,3.6405,3.6405,3.6405,3.6405,3.6405,3.6405,3.6405,3.6405,3.6405,3.6405,3.6405,3.6405,3.6405,3.6405,3.6405,3.6405,3.6405,3.6405,3.6405,3.6405,3.6405,3.6405,3.6405,3.6405,3.6405,3.6405,3.6405,3.6405,3.6405,3.6405,3.6405,3.6405,3.6405,3.6405,3.6405,3.6405,3.6405,3.6405,3.6405,3.6405,3.6405,3.6405,3.6405,3.6405,3.6405,3.6405,3.6405,3.6405,3.6405,3.6405,3.6405,3.6405,3.6405,3.6405,3.6405,3.6405,3.6405,3.6405,3.6405,3.6405,3.6405,3.6805,3.7062,3.7132,3.739,3.7634,3.7877,3.79,3.79,3.79,3.79,3.79,3.79,3.79,3.79,3.79,3.79,3.79,4.284,4.1518,3.9929,4.1029,0.0,0.0,0.0,0.0,0.0,0.0,0.0,0.0,0.0,0.0,3.7348,3.6989,3.6932,3.6815,3.6452,3.6405,3.6405,3.6405,3.6405,3.6405,3.6405,3.6405,3.6405,3.6405,3.6405,3.6405,3.6405,3.6405,3.6405,3.6405,3.6405,3.6405,3.6405,3.6405,3.6405,3.6405,3.6405,3.6405,3.6405,3.6405,3.6405,3.6405,3.6405,3.6405,3.6405,3.6405,3.6405,3.6405,3.6405,3.6405,3.6405,3.6405,3.6405,3.6405,3.6405,3.6405,3.6405,3.6405,3.6405,3.6405,3.6405,3.6405,3.6405,3.6405,3.6405,3.6405,3.6405,3.6405,3.6405,3.6405,3.6405,3.6405,3.6405,3.6405,3.6405,3.6405,3.6405,3.6405,3.6405,3.6405,3.6405,3.6405,3.6405,3.6405,3.6405,3.6405,3.6405,3.6405,3.6405,3.6405,3.6405,3.657,3.6781,3.7085,3.7505,3.7785,3.79,3.79,3.79,3.79,3.79,3.79,3.79,3.79,3.79,3.79,3.79,3.79,4.2249,4.1148,3.9689,0.0,0.0,0.0,0.0,0.0,0.0,0.0,0.0,0.0,0.0,0.0,0.0,0.0,3.6405,3.6405,3.6405,3.6405,3.6405,3.6405,3.6405,3.6405,3.6405,3.6405,3.6405,3.6405,3.6405,3.6405,3.6405,3.6405,3.6405,3.6405,3.6405,3.6405,3.6405,3.6405,3.6405,3.6405,3.6405,3.6405,3.6405,3.6405,3.6405,3.6405,3.6405,3.6405,3.6405,3.6405,3.6405,3.6405,3.6405,3.6405,3.6405,3.6405,3.6405,3.6405,3.6405,3.6405,3.6405,3.6405,3.6405,3.6405,3.6405,3.6405,3.6405,3.6405,3.6405,3.6405,3.6405,3.6405,3.6405,3.6405,3.6405,3.6405,3.6405,3.6405,3.6405,3.6405,3.6405,3.6405,3.6405,3.6405,3.6405,3.6405,3.6405,3.6405,3.6405,3.6405,3.6405,3.6405,3.6405,3.6405,3.6405,3.6452,3.664,3.6956,3.7413,3.768,3.7785,3.7772,3.7726,3.7657,3.7726,3.7772,3.7772,3.7854,3.79,3.79,3.79,3.79,4.1608,4.1587,4.1239,0.0,0.0,0.0,0.0,0.0,0.0,0.0,0.0,0.0,0.0,0.0,0.0,3.6546,3.6405,3.6405,3.6405,3.6405,3.6405,3.6405,3.6405,3.6405,3.6405,3.6405,3.6405,3.6405,3.6405,3.6405,3.6405,3.6405,3.6405,3.6405,3.6405,3.6405,3.6405,3.6405,3.6405,3.6405,3.6405,3.6405,3.6405,3.6405,3.6405,3.6405,3.6405,3.6405,3.6405,3.6405,3.6405,3.6405,3.6405,3.6405,3.6405,3.6405,3.6405,3.6405,3.6405,3.6405,3.6405,3.6405,3.6405,3.6405,3.6405,3.6405,3.6405,3.6405,3.6405,3.6405,3.6405,3.6405,3.6405,3.6405,3.6405,3.6405,3.6405,3.6405,3.6405,3.6405,3.6405,3.6405,3.6405,3.6405,3.6405,3.6405,3.6405,3.6405,3.6405,3.6405,3.6405,3.6405,3.6405,3.6405,3.6405,3.6581,3.6686,3.6686,3.6956,3.7214,3.7482,3.7505,3.7366,3.7121,3.7353,3.7505,3.7505,3.7785,3.79,3.79,3.79,3.79,4.2406,4.093,0.0,4.0338,0.0,0.0,0.0,0.0,0.0,0.0,0.0,0.0,0.0,0.0,0.0,3.6452,3.6405,3.6405,3.6405,3.6405,3.6405,3.6405,3.6405,3.6405,3.6405,3.6405,3.6405,3.6405,3.6405,3.6405,3.6405,3.6405,3.6405,3.6405,3.6405,3.6405,3.6405,3.6405,3.6405,3.6405,3.6405,3.6405,3.6405,3.6405,3.6405,3.6405,3.6405,3.6405,3.6405,3.6405,3.6405,3.6405,3.6405,3.6405,3.6405,3.6405,3.6405,3.6405,3.6405,3.6405,3.6405,3.6405,3.6405,3.6405,3.6405,3.6405,3.6405,3.6405,3.6405,3.6405,3.6405,3.6405,3.6405,3.6405,3.6405,3.6405,3.6405,3.6405,3.6405,3.6405,3.6405,3.6405,3.6405,3.6405,3.6405,3.6405,3.6405,3.6405,3.6405,3.6405,3.6405,3.6405,3.6405,3.6405,3.6405,3.6452,3.6557,3.6698,3.6756,3.6932,3.7214,3.7214,3.7191,3.7108,3.7353,3.7505,3.7505,3.7785,3.79,3.79,3.79,3.79,4.1042,3.9645,0.0,3.9002,3.8111,0.0,0.0,0.0,0.0,0.0,0.0,3.7059,3.6499,3.6405,0.0,3.6405,3.6405,3.6405,3.6405,3.6405,3.6405,3.6405,3.6405,3.6405,3.6405,3.6405,3.6405,3.6405,3.6405,3.6405,3.6405,3.6405,3.6405,3.6405,3.6405,3.6405,3.6405,3.6405,3.6405,3.6405,3.6405,3.6405,3.6405,3.6405,3.6405,3.6405,3.6405,3.6405,3.6405,3.6405,3.6405,3.6405,3.6405,3.6405,3.6405,3.6405,3.6405,3.6405,3.6405,3.6405,3.6405,3.6405,3.6405,3.6405,3.6405,3.6405,3.6405,3.6405,3.6405,3.6405,3.6405,3.6405,3.6405,3.6405,3.6405,3.6405,3.6405,3.6405,3.6405,3.6405,3.6405,3.6405,3.6405,3.6405,3.6405,3.6405,3.6405,3.6405,3.6405,3.6405,3.6405,3.6405,3.6405,3.6405,3.6405,3.6405,3.6452,3.6557,3.6581,3.6651,3.6828,3.6898,3.6898,3.6828,3.7062,3.7191,3.7191,3.7564,3.7726,3.7726,3.7854,3.79,3.8559,0.0,0.0,3.6779,3.7243,0.0,3.6651,0.0,0.0,0.0,0.0,3.6405,3.6405,3.6405,3.6405,3.6405,3.6405,3.6405,3.6405,3.6405,3.6405,3.6405,3.6405,3.6405,3.6405,3.6405,3.6405,3.6405,3.6405,3.6405,3.6405,3.6405,3.6405,3.6405,3.6405,3.6405,3.6405,3.6405,3.6405,3.6405,3.6405,3.6405,3.6405,3.6405,3.6405,3.6405,3.6405,3.6405,3.6405,3.6405,3.6405,3.6405,3.6405,3.6405,3.6405,3.6405,3.6405,3.6405,3.6405,3.6405,3.6405,3.6405,3.6405,3.6405,3.6405,3.6405,3.6405,3.6405,3.6405,3.6405,3.6405,3.6405,3.6405,3.6405,3.6405,3.6405,3.6405,3.6405,3.6405,3.6405,3.6405,3.6405,3.6405,3.6405,3.6405,3.6405,3.6405,3.6405,3.6405,3.6405,3.6405,3.6405,3.6405,3.6405,3.6405,3.6405,3.6405,3.6405,3.6405,3.6405,3.6405,3.6581,3.6581,3.6405,3.6604,3.6686,3.6686,3.7201,3.7436,3.7353,3.7598,3.7726,3.9579,3.872,0.0,0.0,3.7129,3.6686,3.6452,3.6405,3.6405,3.6405,3.6405,3.6405,3.6405,3.6405,3.6405,3.6405,3.6405,3.6405,3.6405,3.6405,3.6405,3.6405,3.6405,3.6405,3.6405,3.6405,3.6405,3.6405,3.6405,3.6405,3.6405,3.6405,3.6405,3.6405,3.6405,3.6405,3.6405,3.6405,3.6405,3.6405,3.6405,3.6405,3.6405,3.6405,3.6405,3.6405,3.6405,3.6405,3.6405,3.6405,3.6405,3.6405,3.6405,3.6405,3.6405,3.6405,3.6405,3.6405,3.6405,3.6405,3.6405,3.6405,3.6405,3.6405,3.6405,3.6405,3.6405,3.6405,3.6405,3.6405,3.6405,3.6405,3.6405,3.6405,3.6405,3.6405,3.6405,3.6405,3.6405,3.6405,3.6405,3.6405,3.6405,3.6405,3.6405,3.6405,3.6405,3.6405,3.6405,3.6405,3.6405,3.6405,3.6405,3.6405,3.6405,3.6405,3.6405,3.6405,3.6405,3.6405,3.6405,3.6428,3.6428,3.6405,3.6604,3.6686,3.6686,3.7038,3.6862,3.6249,3.6296,3.6438,3.8639,0.0,0.0,3.7129,0.0,3.6405,3.6405,3.6405,3.6405,3.6405,3.6405,3.6405,3.6405,3.6405,3.6405,3.6405,3.6405,3.6405,3.6405,3.6405,3.6405,3.6405,3.6405,3.6405,3.6405,3.6405,3.6405,3.6405,3.6405,3.6405,3.6405,3.6405,3.6405,3.6405,3.6405,3.6405,3.6405,3.6405,3.6405,3.6405,3.6405,3.6405,3.6405,3.6405,3.6405,3.6405,3.6405,3.6405,3.6405,3.6405,3.6405,3.6405,3.6405,3.6405,3.6405,3.6405,3.6405,3.6405,3.6405,3.6405,3.6405,3.6405,3.6405,3.6405,3.6405,3.6405,3.6405,3.6405,3.6405,3.6405,3.6405,3.6405,3.6405,3.6405,3.6405,3.6405,3.6405,3.6405,3.6405,3.6405,3.6405,3.6405,3.6405,3.6405,3.6405,3.6405,3.6405,3.6405,3.6405,3.6405,3.6405,3.6405,3.6405,3.6405,3.6405,3.6405,3.6405,3.6405,3.6405,3.6405,3.6405,3.6405,3.6405,3.6405,3.6001,3.5798,3.5798,3.5534,3.521,3.4812,3.4897,3.5017,3.7256,0.0,3.6405,3.6405,3.6405,0.0,3.6405,3.6405,3.6405,3.6405,3.6405,3.6405,3.6405,3.6405,3.6405,3.6405,3.6405,3.6405,3.6405,3.6405,3.6405,3.6405,3.6405,3.6405,3.6405,3.6405,3.6405,3.6405,3.6405,3.6405,3.6405,3.6405,3.6405,3.6405,3.6405,3.6405,3.6405,3.6405,3.6405,3.6405,3.6405,3.6405,3.6405,3.6405,3.6405,3.6405,3.6405,3.6405,3.6405,3.6405,3.6405,3.6405,3.6405,3.6405,3.6405,3.6405,3.6405,3.6405,3.6405,3.6405,3.6405,3.6405,3.6405,3.6405,3.6405,3.6405,3.6405,3.6405,3.6405,3.6405,3.6405,3.6405,3.6405,3.6405,3.6263,3.6156,3.6358,3.6405,3.6405,3.6405,3.6405,3.6405,3.6405,3.6405,3.6405,3.6405,3.6405,3.6405,3.6405,3.6405,3.6405,3.6405,3.6227,3.6108,3.6108,3.5953,3.5918,3.6108,3.6108,3.6108,3.6108,3.6108,3.6037,3.5834,3.515,3.4702,3.4508,3.3871,3.3453,3.334,3.3479,3.3603,0.0,0.0,3.6405,0.0,3.6405,3.6405,0.0,0.0,3.6405,0.0,3.6405,3.6405,3.6405,3.6405,3.6405,3.6405,3.6405,3.6405,3.6405,3.6405,3.6405,3.6405,3.6405,3.6405,3.6405,3.6405,3.6405,3.6405,3.6405,3.6405,3.6405,3.6405,3.6405,3.6405,3.6405,3.6405,3.6405,3.6405,3.6405,3.6405,3.6405,3.6405,3.6405,3.6405,3.6405,3.6405,3.6405,3.6405,3.6405,3.6405,3.6405,3.6405,3.6405,3.6405,3.6405,3.6405,3.6405,3.6405,3.6405,3.6405,3.6405,3.6405,3.6405,3.6405,3.6405,3.6405,3.6405,3.6405,3.6405,3.6405,3.6405,3.6405,3.6405,3.6405,3.5691,3.5271,3.6216,3.6405,3.6405,3.6405,3.6405,3.6405,3.6405,3.6405,3.6405,3.6405,3.6405,3.6405,3.6405,3.6405,3.6405,3.6405,3.5571,3.5005,3.5005,3.4165,3.4018,3.4945,3.5005,3.5005,3.5005,3.5005,3.4581,3.3648,3.441,3.4337,3.34,3.3325,3.2901,3.2207,3.2232,3.2387,3.7142,3.664,3.6405,0.0,3.6405,3.6405,3.6405,0.0,3.6405,3.6405,3.6405,3.6405,3.6405,3.6405,3.6405,3.6405,3.6405,3.6405,3.6405,3.6405,3.6405,3.6405,3.6405,3.6405,3.6405,3.6405,3.6405,3.6405,3.6405,3.6405,3.6405,3.6405,3.6405,3.6405,3.6405,3.6405,3.6405,3.6405,3.6405,3.6405,3.6405,3.6405,3.6405,3.6405,3.6405,3.6405,3.6405,3.6405,3.6405,3.6405,3.6405,3.6405,3.6405,3.6405,3.6405,3.6405,3.6405,3.6405,3.6405,3.6405,3.6405,3.6405,3.6405,3.6405,3.6405,3.6405,3.6405,3.6405,3.5966,3.5487,3.5487,3.5054,3.4605,3.4605,3.4263,3.4042,3.4508,3.4605,3.4605,3.4605,3.5571,3.6203,3.5619,3.5989,3.6405,3.6405,3.6405,3.6179,3.5595,3.5487,3.5271,3.4678,3.419,3.3895,3.3895,3.3474,3.34,3.3858,3.3895,3.3895,3.3895,3.3895,3.3388,3.2311,3.2753,3.2778,3.2286,3.1699,3.1234,3.0884,3.0884,3.095,0.0,0.0,3.6405,3.6405,3.6405,3.6405,0.0,0.0,3.6405,0.0,3.6405,3.6405,3.6405,3.6405,3.6405,3.6405,3.6405,3.6405,3.6405,3.6405,3.6405,3.6405,3.6405,3.6405,3.6405,3.6405,3.6405,3.6405,3.6405,3.6405,3.6405,3.6405,3.6405,3.6405,3.6405,3.6405,3.6405,3.6405,3.6405,3.6405,3.6405,3.6405,3.6405,3.6405,3.6405,3.6405,3.6405,3.6405,3.6405,3.6405,3.6405,3.6405,3.6405,3.6405,3.6381,3.6085,3.5989,3.5989,3.5989,3.5989,3.6037,3.631,3.6405,3.6405,3.6405,3.6203,3.5989,3.5989,3.5223,3.4385,3.4385,3.3796,3.3201,3.3201,3.3001,3.2876,3.3151,3.3201,3.3201,3.3201,3.4483,3.5319,3.4532,3.5054,3.5595,3.5595,3.5595,3.5295,3.4508,3.4385,3.4091,3.3275,3.2951,3.2789,3.2789,3.2549,3.2499,3.2775,3.2789,3.2789,3.2789,3.2789,3.2286,3.1201,3.1176,3.1176,3.1187,3.0391,2.9994,2.9994,2.9994,2.9994,0.0,3.6557,0.0,3.6405,3.6405,0.0,0.0,0.0,3.6405,3.6405,3.6405,3.6405,3.6405,3.6405,3.6405,3.6405,3.6405,3.6405,3.6405,3.6405,3.6405,3.6405,3.6405,3.6405,3.6405,3.6405,3.6405,3.6405,3.6405,3.6405,3.6405,3.6405,3.6405,3.6405,3.6405,3.6405,3.6405,3.6405,3.6405,3.6405,3.6405,3.6405,3.6405,3.6405,3.6405,3.6405,3.6405,3.6405,3.6405,3.6405,3.6405,3.6405,3.6405,3.6405,3.6287,3.5247,3.4872,3.4872,3.4872,3.4872,3.5054,3.6061,3.6405,3.6405,3.6405,3.5691,3.4872,3.4872,3.4116,3.3275,3.3275,3.325,3.3201,3.3201,3.2412,3.1957,3.2976,3.3201,3.3201,3.3201,3.33,3.335,3.33,3.3325,3.3375,3.3375,3.3375,3.335,3.33,3.3275,3.325,3.3201,3.2286,3.1677,3.1677,3.0744,3.0588,3.1626,3.1677,3.1677,3.1677,3.1677,3.1187,3.0088,3.0073,3.0073,3.0073,3.002,2.9994,2.9994,2.9994,2.9994,0.0,0.0,0.0,3.6581,3.6499,3.6405,3.6405,3.6405,3.6405,3.6405,3.6405,3.6405,3.6405,3.6405,3.6405,3.6405,3.6405,3.6405,3.6405,3.6405,3.6405,3.6405,3.6405,3.6405,3.6405,3.6405,3.6405,3.6405,3.6405,3.6405,3.6405,3.6405,3.6405,3.6405,3.6405,3.6405,3.6405,3.6405,3.6405,3.6405,3.6405,3.6405,3.6405,3.6405,3.6405,3.6358,3.5667,3.5763,3.6405,3.6405,3.6405,3.6405,3.6405,3.5989,3.5331,3.4945,3.4361,3.3771,3.3771,3.3771,3.3845,3.4214,3.4361,3.4361,3.4361,3.4091,3.3771,3.3771,3.2989,3.2159,3.2159,3.1673,3.1157,3.1157,3.0847,3.0666,3.1069,3.1699,3.1968,3.1274,3.2258,3.2976,3.2286,3.2739,3.3201,3.3201,3.3201,3.2951,3.2261,3.2159,3.1917,3.1223,3.0795,3.0562,3.0562,3.0219,3.0167,3.0536,3.0562,3.0562,3.0562,3.0562,3.0391,3.002,2.9994,2.9994,2.9994,2.9994,2.9994,2.9994,2.9994,2.9994,3.7377,0.0,0.0,0.0,3.6557,3.6405,3.6405,3.6405,3.6405,3.6405,3.6405,3.6405,3.6405,3.6405,3.6405,3.6405,3.6405,3.6405,3.6405,3.6405,3.6405,3.6405,3.6405,3.6405,3.6405,3.6405,3.6405,3.6405,3.6405,0.0,3.6405,3.6405,3.6405,3.6405,3.6405,3.6405,3.6405,3.6405,3.6405,3.6405,3.6405,3.6405,3.6381,3.6037,3.5858,3.5786,3.4727,3.4884,3.5834,3.5463,3.5331,3.5331,3.5331,3.4896,3.4214,3.3858,3.3252,3.2664,3.2664,3.2664,3.2714,3.3076,3.3201,3.3201,3.3201,3.2951,3.2664,3.2664,3.1891,3.1058,3.1058,3.0536,2.9994,2.9994,2.9994,2.9994,2.9994,3.0562,3.0862,3.0151,3.1146,3.1902,3.1187,3.1648,3.2131,3.2131,3.2131,3.1877,3.1161,3.1058,3.0785,3.0073,2.9994,2.9994,2.9994,2.9994,2.9994,2.9994,2.9994,2.9994,2.9994,2.9994,2.9994,2.9994,2.9994,2.9994,2.9994,2.9994,2.9994,2.9994,2.9994,2.9994,0.0,0.0,0.0,0.0,0.0,0.0,3.6405,3.6405,3.6405,3.6405,3.6405,3.6405,3.6405,3.6405,3.6405,3.6405,3.6405,3.6405,3.6405,3.6405,3.6405,3.6405,3.6405,3.6405,3.6405,3.6405,3.6405,3.6405,3.6405,3.6405,3.6405,3.6405,3.6405,3.6405,3.6405,3.6405,3.6405,3.6405,3.6405,3.6405,3.6405,3.6405,3.6358,3.5295,3.4799,3.4727,3.3648,3.3747,3.4629,3.3623,3.3201,3.3201,3.3201,3.3176,3.3026,3.1982,3.1586,3.156,3.156,3.156,3.1728,3.2775,3.3101,3.3101,3.3101,3.2387,3.156,3.156,3.0785,2.9994,2.9994,2.9994,2.9994,2.9994,2.9994,2.9994,2.9994,2.9994,2.9994,2.9994,2.9994,2.9994,2.9994,2.9994,2.9994,2.9994,2.9994,2.9994,2.9994,2.9994,2.9994,2.9994,2.9994,2.9994,2.9994,2.9994,2.9994,2.9994,2.9994,2.9994,2.9994,2.9994,2.9994,2.9994,2.9994,2.9994,2.9994,2.9994,2.9994,2.9994,2.9994,2.9994,3.7703,0.0,0.0,0.0,0.0,0.0,3.6405,3.6405,3.6405,3.6405,3.6405,3.6405,3.6405,3.6405,3.6405,3.6405,3.6405,3.6405,3.6405,3.6405,3.6405,3.6405,3.6405,3.6405,3.6405,3.6405,3.6405,0.0,3.6405,3.6405,3.6405,3.6405,3.6405,3.6405,3.6405,3.6405,3.6405,3.6405,3.6405,3.6405,3.6405,3.6405,3.6358,3.5295,3.4799,3.4702,3.2853,3.221,3.2527,3.3001,3.3201,3.3201,3.3201,3.2725,3.2007,3.1702,3.1109,3.0443,3.0443,3.0443,3.0495,3.0795,3.0899,3.0899,3.0899,3.0677,3.0443,3.0443,3.0219,2.9994,2.9994,2.9994,2.9994,2.9994,2.9994,2.9994,2.9994,2.9994,2.9994,2.9994,2.9994,2.9994,2.9994,2.9994,2.9994,2.9994,2.9994,2.9994,2.9994,2.9994,2.9994,2.9994,2.9994,2.9994,2.9994,2.9994,2.9994,2.9994,2.9994,2.9994,2.9994,2.9994,2.9994,2.9994,2.9994,2.9994,2.9994,2.9994,2.9994,2.9994,2.9994,2.9994,0.0,0.0,0.0,0.0,0.0,0.0,3.6428,3.6452,3.6499,3.6428,3.6405,3.6405,3.6405,3.6405,3.6405,3.6405,3.6405,3.6405,3.6405,3.6405,3.6405,3.6405,3.6405,3.6405,3.6405,3.6405,3.6405,3.6405,3.6405,3.6405,3.6405,3.6405,3.6405,3.6405,3.6405,3.6405,3.6405,3.6405,3.6405,3.6381,3.5942,3.5739,3.5691,3.4153,3.3451,3.3377,3.1662,3.094,3.0991,3.1597,3.1852,3.1852,3.1852,3.1469,3.094,3.094,3.0547,2.9994,2.9994,2.9994,2.9994,2.9994,2.9994,2.9994,2.9994,2.9994,2.9994,2.9994,2.9994,2.9994,2.9994,2.9994,2.9994,2.9994,2.9994,2.9994,2.9994,2.9994,2.9994,2.9994,2.9994,2.9994,2.9994,2.9994,2.9994,2.9994,2.9994,2.9994,2.9994,2.9994,2.9994,2.9994,2.9994,2.9994,2.9994,2.9994,2.9994,2.9994,2.9994,2.9994,2.9994,2.9994,2.9994,2.9994,2.9994,2.9994,2.9994,2.9994,2.9994,2.9994,2.9994,2.9994,0.0,0.0,0.0,0.0,0.0,0.0,3.657,3.6581,3.6651,3.6476,3.6428,3.6405,3.6405,3.6405,3.6405,3.6405,3.6405,3.6405,3.6405,3.6405,3.6405,3.6405,3.6405,3.6405,3.6405,3.6405,3.6405,3.6405,3.6405,3.6405,3.6405,3.6405,3.6405,3.6405,3.6405,3.6405,3.6405,3.6405,3.6334,3.6203,3.5247,3.4727,3.4556,3.2527,3.16,3.1549,3.0469,2.9994,2.9994,2.9994,2.9994,2.9994,2.9994,2.9994,2.9994,2.9994,2.9994,2.9994,2.9994,2.9994,2.9994,2.9994,2.9994,2.9994,2.9994,2.9994,2.9994,2.9994,2.9994,2.9994,2.9994,2.9994,2.9994,2.9994,2.9994,2.9994,2.9994,2.9994,2.9994,2.9994,2.9994,2.9994,2.9994,2.9994,2.9994,2.9994,2.9994,2.9994,2.9994,2.9994,2.9994,2.9994,2.9994,2.9994,2.9994,2.9994,2.9994,2.9994,2.9994,2.9994,2.9994,2.9994,2.9994,2.9994,2.9994,2.9994,2.9994,2.9994,2.9994,2.9994,2.9994,2.9994,0.0,0.0,0.0,0.0,0.0,0.0,3.6968,3.6815,3.6698,3.6651,3.6523,3.6405,3.6405,3.6405,3.6405,3.6405,3.6405,3.6405,3.6405,3.6405,3.6405,3.6405,3.6405,3.6405,3.6405,3.6405,3.6405,3.6405,3.6405,3.6405,3.6405,3.6405,3.6405,3.6405,3.6405,3.6405,3.6405,3.6405,3.5966,3.5102,3.4896,3.4361,3.3474,3.2185,3.16,3.1549,3.0469,2.9994,2.9994,2.9994,2.9994,2.9994,2.9994,2.9994,2.9994,2.9994,2.9994,2.9994,2.9994,2.9994,2.9994,2.9994,2.9994,2.9994,2.9994,2.9994,2.9994,2.9994,2.9994,2.9994,2.9994,2.9994,2.9994,2.9994,2.9994,2.9994,2.9994,2.9994,2.9994,2.9994,2.9994,2.9994,2.9994,2.9994,2.9994,2.9994,2.9994,2.9994,2.9994,2.9994,2.9994,2.9994,2.9994,2.9994,2.9994,2.9994,2.9994,2.9994,2.9994,2.9994,2.9994,2.9994,2.9994,2.9994,2.9994,2.9994,2.9994,2.9994,2.9994,2.9994,2.9994,2.9994,0.0,0.0,0.0,3.7528,0.0,0.0,0.0,3.7108,3.7062,3.6945,3.6828,3.6758,3.6758,3.664,3.6557,3.6557,3.6476,3.6405,3.6405,3.6405,3.6405,3.6405,3.6405,3.6405,3.6405,3.6405,3.6405,3.6405,3.6405,3.6405,3.6405,3.6405,3.6405,3.6405,3.6405,3.6405,3.6405,3.587,3.5319,3.4775,3.3735,3.2928,3.2362,3.1289,3.0785,3.0759,3.0245,2.9994,2.9994,2.9994,2.9994,2.9994,2.9994,2.9994,2.9994,2.9994,2.9994,2.9994,2.9994,2.9994,2.9994,2.9994,2.9994,2.9994,2.9994,2.9994,2.9994,2.9994,2.9994,2.9994,2.9994,2.9994,2.9994,2.9994,2.9994,2.9994,2.9994,2.9994,2.9994,2.9994,2.9994,2.9994,2.9994,2.9994,2.9994,2.9994,2.9994,2.9994,2.9994,2.9994,2.9994,2.9994,2.9994,2.9994,2.9994,2.9994,2.9994,2.9994,2.9994,2.9994,2.9994,2.9994,2.9994,2.9994,2.9994,2.9994,2.9994,2.9994,2.9994,2.9994,2.9994,2.9994,0.0,0.0,0.0,0.0,0.0,3.7785,0.0,0.0,0.0,3.7214,3.7132,3.7108,3.7108,0.0,0.0,3.6686,0.0,0.0,0.0,3.6405,0.0,3.6405,3.6405,3.6405,3.6405,3.6405,3.6405,3.6405,3.6405,3.6405,3.6405,3.6405,3.6405,3.6405,3.6216,3.6085,3.6085,3.503,3.4385,3.4153,3.2426,3.1472,3.1253,3.0391,2.9994,2.9994,2.9994,2.9994,2.9994,2.9994,2.9994,2.9994,2.9994,2.9994,2.9994,2.9994,2.9994,2.9994,2.9994,2.9994,2.9994,2.9994,2.9994,2.9994,2.9994,3.0056,3.0129,3.0129,3.0191,3.0263,3.0263,3.0263,3.0243,3.0149,3.0129,3.0098,3.0015,2.9994,2.9994,2.9994,2.9994,2.9994,2.9994,2.9994,2.9994,2.9994,2.9994,2.9994,2.9994,2.9994,2.9994,2.9994,2.9994,2.9994,2.9994,2.9994,2.9994,2.9994,2.9994,2.9994,2.9994,2.9994,2.9994,2.9994,2.9994,2.9994,2.9994,2.9994,2.9994,2.9994,2.9994,2.9994,0.0,0.0,0.0,0.0,3.7877,0.0,0.0,0.0,3.7482,3.7459,0.0,3.7108,0.0,0.0,0.0,0.0,0.0,0.0,3.6405,3.6405,3.6405,3.6405,3.6405,3.6405,3.6405,3.6405,3.6405,3.6405,3.6405,3.6405,3.6405,3.6405,3.6405,3.6405,3.5475,3.4969,3.4969,3.3919,3.2889,3.1957,3.1728,3.1109,3.0167,3.0073,2.9994,2.9994,2.9994,2.9994,2.9994,2.9994,2.9994,2.9994,2.9994,2.9994,2.9994,2.9994,2.9994,2.9994,2.9994,2.9994,2.9994,2.9994,2.9994,2.9994,2.9994,3.0284,3.0605,3.0605,3.0932,3.1243,3.1243,3.1243,3.1149,3.0735,3.0605,3.0501,3.0087,2.9994,2.9994,2.9994,2.9994,2.9994,2.9994,2.9994,2.9994,2.9994,2.9994,2.9994,2.9994,2.9994,2.9994,2.9994,2.9994,2.9994,2.9994,2.9994,2.9994,2.9994,2.9994,2.9994,2.9994,2.9994,2.9994,2.9994,2.9994,2.9994,2.9994,2.9994,2.9994,2.9994,2.9994,2.9994,0.0,0.0,0.0,0.0,0.0,0.0,3.79,0.0,3.7726,0.0,0.0,0.0,0.0,0.0,0.0,0.0,3.664,0.0,0.0,0.0,3.6405,3.6405,0.0,0.0,3.6405,3.6405,3.6405,3.6405,3.6405,3.6405,3.6405,3.6405,3.6405,3.6405,3.5367,3.4799,3.4799,3.3114,3.2058,3.1575,3.0955,3.0443,2.9994,2.9994,2.9994,2.9994,2.9994,2.9994,2.9994,2.9994,2.9994,2.9994,2.9994,2.9994,2.9994,2.9994,2.9994,2.9994,2.9994,2.9994,2.9994,2.9994,2.9994,2.9994,2.9994,3.0325,3.0714,3.0714,3.1046,3.1408,3.1408,3.1408,3.1357,3.116,3.1118,3.1056,3.0859,3.0611,3.0398,3.0398,3.018,2.9994,2.9994,2.9994,2.9994,2.9994,2.9994,2.9994,2.9994,2.9994,2.9994,2.9994,2.9994,2.9994,2.9994,2.9994,2.9994,2.9994,2.9994,2.9994,2.9994,2.9994,2.9994,2.9994,2.9994,2.9994,2.9994,2.9994,2.9994,2.9994,2.9994,2.9994,3.9179,0.0,0.0,0.0,0.0,0.0,0.0,0.0,0.0,0.0,0.0,0.0,0.0,0.0,0.0,0.0,0.0,3.6452,0.0,3.6405,0.0,0.0,0.0,0.0,0.0,3.6405,3.6405,3.6405,3.6405,3.6405,3.6405,3.6108,3.5966,3.5966,3.4654,3.3932,3.3932,3.2083,3.1161,3.1161,3.0365,2.9994,2.9994,2.9994,2.9994,2.9994,2.9994,2.9994,2.9994,2.9994,2.9994,2.9994,2.9994,2.9994,2.9994,2.9994,2.9994,2.9994,2.9994,2.9994,2.9994,2.9994,2.9994,3.0015,3.0149,3.0512,3.0895,3.1029,3.1391,3.1743,3.1743,3.1743,3.1712,3.1588,3.1557,3.1526,3.1429,3.1139,3.0859,3.0708,3.0419,3.0149,3.0015,2.9994,2.9994,2.9994,2.9994,2.9994,2.9994,2.9994,2.9994,2.9994,2.9994,2.9994,2.9994,2.9994,2.9994,2.9994,2.9994,2.9994,2.9994,2.9994,2.9994,2.9994,2.9994,2.9994,2.9994,2.9994,2.9994,2.9994,2.9994,2.9994,0.0,0.0,0.0,3.8757,0.0,0.0,0.0,0.0,3.79,0.0,0.0,0.0,0.0,0.0,0.0,0.0,0.0,0.0,0.0,0.0,0.0,0.0,0.0,0.0,0.0,3.6405,3.6405,3.6405,3.6405,3.6405,3.6405,3.5427,3.4848,3.4848,3.2803,3.1702,3.1702,3.0588,3.0047,3.0047,3.002,2.9994,2.9994,2.9994,2.9994,2.9994,2.9994,2.9994,2.9994,2.9994,2.9994,2.9994,2.9994,2.9994,2.9994,2.9994,2.9994,2.9994,2.9994,2.9994,2.9994,2.9994,2.9994,3.0077,3.0532,3.1015,3.1471,3.185,3.2305,3.2657,3.2657,3.2657,3.2543,3.2098,3.1984,3.1871,3.1464,3.1388,3.1243,3.0797,3.0704,3.0522,3.0067,2.9994,2.9994,2.9994,2.9994,2.9994,2.9994,2.9994,2.9994,2.9994,2.9994,2.9994,2.9994,2.9994,2.9994,2.9994,2.9994,2.9994,2.9994,2.9994,2.9994,2.9994,2.9994,2.9994,2.9994,2.9994,2.9994,2.9994,2.9994,2.9994,0.0,0.0,3.9382,3.9093,0.0,0.0,0.0,0.0,0.0,0.0,0.0,0.0,0.0,0.0,0.0,0.0,0.0,0.0,0.0,0.0,0.0,0.0,0.0,0.0,0.0,0.0,3.6405,3.6405,3.6405,3.6405,3.6405,3.5367,3.4799,3.4799,3.2728,3.16,3.16,3.0547,2.9994,2.9994,2.9994,2.9994,2.9994,2.9994,2.9994,2.9994,2.9994,2.9994,2.9994,2.9994,2.9994,2.9994,2.9994,2.9994,2.9994,2.9994,2.9994,2.9994,2.9994,2.9994,2.9994,2.9994,2.9994,3.0087,3.0553,3.1036,3.1464,3.1891,3.2346,3.2698,3.2698,3.2698,3.2667,3.2512,3.2471,3.2429,3.2274,3.2033,3.1736,3.1581,3.1102,3.0663,3.0481,3.0201,2.9994,2.9994,2.9994,2.9994,2.9994,2.9994,2.9994,2.9994,2.9994,2.9994,2.9994,2.9994,2.9994,2.9994,2.9994,2.9994,2.9994,2.9994,2.9994,2.9994,2.9994,2.9994,2.9994,2.9994,2.9994,2.9994,2.9994,2.9994,3.9879,3.9777,0.0,3.9407,3.9044,0.0,3.8744,0.0,0.0,0.0,0.0,0.0,0.0,0.0,0.0,0.0,0.0,0.0,0.0,3.6405,0.0,0.0,0.0,0.0,0.0,3.6405,3.6405,3.6405,3.6405,3.6227,3.5834,3.4799,3.4067,3.3674,3.1957,3.1032,3.1032,3.0339,2.9994,2.9994,2.9994,2.9994,2.9994,2.9994,2.9994,2.9994,2.9994,2.9994,2.9994,2.9994,2.9994,2.9994,2.9994,2.9994,2.9994,2.9994,2.9994,2.9994,2.9994,2.9994,2.9994,2.9994,3.0108,3.0325,3.0818,3.1257,3.1702,3.2129,3.2471,3.2698,3.2698,3.2698,3.2698,3.2698,3.2698,3.2698,3.2698,3.2471,3.2212,3.2047,3.154,3.1071,3.0739,3.0439,3.018,3.0025,2.9994,2.9994,2.9994,2.9994,2.9994,2.9994,2.9994,2.9994,2.9994,2.9994,2.9994,2.9994,2.9994,2.9994,2.9994,2.9994,3.0067,3.0243,3.0077,3.0077,3.0243,3.0077,2.9994,2.9994,2.9994,2.9994]},{"header":{"parameterUnit":"m.s-1","parameterCategory":1,"la1":30.6,"la2":29.2853,"lo1":-89.7004,"lo2":-87.6739,"dy":0.0162,"dx":0.0183,"nx":112,"ny":82,"refTime":"2023-11-20T18:00:00:Z","depth":0,"parameterNumber":3,"parameterNumberName":"V-component_of_WINDS"},"data":[0.0,0.0,0.0,0.0,0.0,0.0,0.0,0.0,0.0,0.0,0.0,0.0,0.0,0.0,0.0,0.0,0.0,0.0,0.0,0.0,0.0,0.0,0.0,0.0,0.0,0.0,0.0,0.0,0.0,0.0,0.0,0.0,0.0,0.0,0.0,0.0,0.0,0.0,0.0,0.0,0.0,0.0,0.0,0.0,0.0,0.0,0.0,0.0,0.0,0.0,0.0,0.0,0.0,0.0,0.0,0.0,0.0,0.0,0.0,0.0,0.0,0.0,0.0,0.0,0.0,0.0,0.0,0.0,0.0,0.0,0.0,0.0,0.0,0.0,0.0,0.0,0.0,0.0,0.0,0.0,0.0,0.0,0.0,0.0,0.0,0.0,0.0,0.0,0.0,0.0,1.9108,1.9108,1.9108,1.9108,1.9108,1.9108,1.8865,1.8337,0.0,0.0,0.0,0.0,0.0,0.0,0.0,0.0,0.0,0.0,0.0,0.0,0.0,0.0,0.0,0.0,0.0,0.0,0.0,0.0,0.0,0.0,0.0,0.0,0.0,0.0,0.0,0.0,0.0,0.0,0.0,0.0,0.0,0.0,0.0,0.0,0.0,0.0,0.0,0.0,0.0,0.0,0.0,0.0,0.0,0.0,0.0,0.0,0.0,0.0,0.0,0.0,0.0,0.0,0.0,0.0,0.0,0.0,0.0,0.0,0.0,0.0,0.0,0.0,0.0,0.0,0.0,0.0,0.0,0.0,0.0,0.0,0.0,0.0,0.0,0.0,0.0,0.0,0.0,0.0,0.0,0.0,0.0,0.0,0.0,0.0,0.0,0.0,0.0,0.0,0.0,0.0,0.0,0.0,0.0,0.0,0.0,0.0,0.0,0.0,0.0,0.0,0.0,0.0,1.9108,1.9108,1.9108,1.9108,1.9108,1.9108,1.8865,1.8337,0.0,0.0,0.0,0.0,0.0,0.0,0.0,0.0,0.0,0.0,0.0,0.0,0.0,0.0,0.0,0.0,0.0,0.0,0.0,0.0,0.0,0.0,0.0,0.0,0.0,0.0,0.0,0.0,0.0,0.0,0.0,0.0,0.0,0.0,0.0,0.0,0.0,0.0,0.0,0.0,0.0,0.0,0.0,0.0,0.0,0.0,0.0,0.0,0.0,0.0,0.0,0.0,0.0,0.0,0.0,0.0,0.0,0.0,0.0,0.0,0.0,0.0,0.0,0.0,0.0,0.0,0.0,0.0,0.0,0.0,0.0,0.0,0.0,0.0,0.0,0.0,0.0,0.0,0.0,0.0,0.0,0.0,0.0,0.0,0.0,0.0,0.0,0.0,0.0,0.0,0.0,0.0,0.0,0.0,0.0,0.0,0.0,0.0,0.0,0.0,0.0,0.0,0.0,1.9108,1.9108,1.9108,1.9108,1.9108,1.9108,1.9108,1.9008,1.8758,1.8741,0.0,0.0,0.0,0.0,0.0,0.0,0.0,0.0,0.0,0.0,0.0,0.0,0.0,0.0,0.0,0.0,0.0,0.0,0.0,0.0,0.0,0.0,0.0,0.0,0.0,0.0,0.0,0.0,0.0,0.0,0.0,0.0,0.0,0.0,0.0,0.0,0.0,0.0,0.0,0.0,0.0,0.0,0.0,0.0,0.0,0.0,0.0,0.0,0.0,0.0,0.0,0.0,0.0,0.0,0.0,0.0,0.0,0.0,0.0,0.0,0.0,0.0,0.0,0.0,0.0,0.0,0.0,0.0,0.0,0.0,0.0,0.0,0.0,0.0,0.0,0.0,0.0,0.0,0.0,0.0,0.0,0.0,0.0,0.0,0.0,0.0,0.0,0.0,0.0,0.0,0.0,0.0,0.0,0.0,0.0,0.0,0.0,0.0,0.0,0.0,0.0,0.0,1.932,1.9264,1.9264,1.917,1.9108,1.9108,1.9108,1.9108,1.9108,1.9108,0.0,0.0,0.0,0.0,0.0,0.0,0.0,0.0,0.0,0.0,0.0,0.0,0.0,0.0,0.0,0.0,0.0,0.0,0.0,0.0,0.0,0.0,0.0,0.0,0.0,0.0,0.0,0.0,0.0,0.0,0.0,0.0,0.0,0.0,0.0,0.0,0.0,0.0,0.0,0.0,0.0,0.0,0.0,0.0,0.0,0.0,0.0,0.0,0.0,0.0,0.0,0.0,0.0,0.0,0.0,0.0,0.0,0.0,0.0,0.0,0.0,0.0,0.0,0.0,0.0,0.0,0.0,0.0,0.0,0.0,0.0,0.0,0.0,0.0,0.0,0.0,0.0,0.0,0.0,0.0,0.0,0.0,0.0,0.0,0.0,0.0,0.0,0.0,0.0,0.0,0.0,0.0,0.0,0.0,0.0,0.0,0.0,0.0,0.0,0.0,0.0,0.0,1.9983,1.9741,1.9741,1.9357,1.9108,1.9108,1.9108,1.9108,1.9108,1.9108,0.0,0.0,0.0,0.0,0.0,0.0,0.0,0.0,0.0,0.0,0.0,0.0,0.0,0.0,0.0,0.0,0.0,0.0,0.0,0.0,0.0,0.0,0.0,0.0,0.0,0.0,0.0,0.0,0.0,0.0,0.0,0.0,0.0,0.0,0.0,0.0,0.0,0.0,0.0,0.0,0.0,0.0,0.0,0.0,0.0,0.0,0.0,0.0,0.0,0.0,0.0,0.0,0.0,0.0,0.0,0.0,0.0,0.0,0.0,0.0,0.0,0.0,0.0,0.0,0.0,0.0,0.0,0.0,0.0,0.0,0.0,0.0,0.0,0.0,0.0,0.0,0.0,0.0,0.0,0.0,0.0,0.0,0.0,0.0,0.0,0.0,0.0,0.0,0.0,0.0,0.0,0.0,0.0,0.0,0.0,0.0,0.0,0.0,0.0,0.0,0.0,0.0,2.0258,2.0172,0.0,2.0017,1.9913,1.9913,1.9913,1.9799,1.9554,0.0,0.0,0.0,0.0,0.0,0.0,0.0,0.0,0.0,0.0,0.0,0.0,0.0,0.0,0.0,0.0,0.0,0.0,0.0,0.0,0.0,0.0,0.0,0.0,0.0,0.0,0.0,0.0,0.0,0.0,0.0,0.0,0.0,0.0,0.0,0.0,0.0,0.0,0.0,0.0,0.0,0.0,0.0,0.0,0.0,0.0,0.0,0.0,0.0,0.0,0.0,0.0,0.0,0.0,0.0,0.0,0.0,0.0,0.0,0.0,0.0,0.0,0.0,0.0,0.0,0.0,0.0,0.0,0.0,0.0,0.0,0.0,0.0,0.0,0.0,0.0,0.0,0.0,0.0,0.0,0.0,0.0,0.0,0.0,0.0,0.0,0.0,0.0,0.0,0.0,0.0,0.0,0.0,0.0,0.0,0.0,0.0,0.0,0.0,0.0,0.0,0.0,2.0847,2.0713,2.062,0.0,2.0496,2.0403,2.0403,2.0403,2.0279,2.0003,0.0,0.0,0.0,0.0,0.0,0.0,0.0,0.0,0.0,0.0,0.0,0.0,0.0,0.0,0.0,0.0,0.0,0.0,0.0,0.0,0.0,0.0,0.0,0.0,0.0,0.0,0.0,0.0,0.0,0.0,0.0,0.0,0.0,0.0,0.0,0.0,0.0,0.0,0.0,0.0,0.0,0.0,0.0,0.0,0.0,0.0,0.0,0.0,0.0,0.0,0.0,0.0,0.0,0.0,0.0,0.0,0.0,0.0,0.0,0.0,0.0,0.0,0.0,0.0,0.0,0.0,0.0,0.0,0.0,0.0,0.0,0.0,0.0,0.0,0.0,0.0,0.0,0.0,0.0,0.0,0.0,0.0,0.0,0.0,0.0,0.0,0.0,0.0,0.0,0.0,0.0,0.0,0.0,0.0,0.0,0.0,0.0,0.0,0.0,0.0,0.0,0.0,2.1807,2.1385,2.1106,2.1106,2.0692,2.0423,2.0423,2.0423,2.0413,0.0,0.0,0.0,0.0,0.0,0.0,0.0,0.0,0.0,0.0,0.0,0.0,0.0,0.0,0.0,0.0,0.0,0.0,0.0,0.0,0.0,0.0,0.0,0.0,0.0,0.0,0.0,0.0,0.0,0.0,0.0,0.0,0.0,0.0,0.0,0.0,0.0,0.0,0.0,0.0,0.0,0.0,0.0,0.0,0.0,0.0,0.0,0.0,0.0,0.0,0.0,0.0,0.0,0.0,0.0,0.0,0.0,0.0,0.0,0.0,0.0,0.0,0.0,0.0,0.0,0.0,0.0,0.0,0.0,0.0,0.0,0.0,0.0,0.0,0.0,0.0,0.0,0.0,0.0,0.0,0.0,0.0,0.0,0.0,0.0,0.0,0.0,0.0,0.0,0.0,0.0,0.0,0.0,0.0,0.0,0.0,0.0,0.0,0.0,0.0,0.0,0.0,0.0,2.1807,2.1683,2.1582,2.1582,2.1476,2.1393,2.1393,2.1393,2.124,2.0909,0.0,0.0,0.0,0.0,0.0,0.0,0.0,0.0,0.0,0.0,0.0,0.0,0.0,0.0,0.0,0.0,0.0,0.0,0.0,0.0,0.0,0.0,0.0,0.0,0.0,0.0,0.0,0.0,0.0,0.0,0.0,0.0,0.0,0.0,0.0,0.0,0.0,0.0,0.0,0.0,0.0,0.0,0.0,0.0,0.0,0.0,0.0,0.0,0.0,0.0,0.0,0.0,0.0,0.0,0.0,0.0,0.0,0.0,0.0,0.0,0.0,0.0,0.0,0.0,0.0,0.0,0.0,0.0,0.0,0.0,0.0,0.0,0.0,0.0,0.0,0.0,0.0,0.0,0.0,0.0,0.0,0.0,0.0,0.0,0.0,0.0,0.0,0.0,0.0,0.0,0.0,0.0,0.0,0.0,0.0,0.0,0.0,0.0,0.0,0.0,0.0,0.0,2.1807,2.1807,2.1807,2.1807,2.1807,2.1807,2.1807,2.1807,2.1683,2.1395,0.0,0.0,0.0,0.0,0.0,0.0,0.0,0.0,0.0,0.0,0.0,0.0,0.0,0.0,0.0,0.0,0.0,0.0,0.0,0.0,0.0,0.0,0.0,0.0,0.0,0.0,0.0,0.0,0.0,0.0,0.0,0.0,0.0,0.0,0.0,0.0,0.0,0.0,0.0,0.0,0.0,0.0,0.0,0.0,0.0,0.0,0.0,0.0,0.0,0.0,0.0,0.0,0.0,0.0,0.0,0.0,0.0,0.0,0.0,0.0,0.0,0.0,0.0,0.0,0.0,0.0,0.0,0.0,0.0,0.0,0.0,0.0,0.0,0.0,0.0,0.0,0.0,0.0,0.0,0.0,0.0,0.0,0.0,0.0,0.0,0.0,0.0,0.0,0.0,0.0,0.0,0.0,0.0,0.0,0.0,0.0,0.0,0.0,0.0,0.0,0.0,0.0,2.1807,2.1911,2.1968,2.1826,2.1864,2.1921,2.1921,2.1921,2.193,2.2006,0.0,0.0,0.0,0.0,0.0,0.0,0.0,0.0,0.0,0.0,0.0,0.0,0.0,0.0,0.0,0.0,0.0,0.0,0.0,0.0,0.0,0.0,0.0,0.0,0.0,0.0,0.0,0.0,0.0,0.0,0.0,0.0,0.0,0.0,0.0,0.0,0.0,0.0,0.0,0.0,0.0,0.0,0.0,0.0,0.0,0.0,0.0,0.0,0.0,0.0,0.0,0.0,0.0,0.0,0.0,0.0,0.0,0.0,0.0,0.0,2.253,0.0,0.0,0.0,0.0,0.0,0.0,0.0,0.0,0.0,0.0,0.0,0.0,0.0,0.0,0.0,0.0,0.0,0.0,0.0,0.0,0.0,0.0,0.0,0.0,0.0,0.0,0.0,0.0,0.0,0.0,0.0,0.0,0.0,0.0,0.0,0.0,0.0,0.0,0.0,0.0,0.0,2.1883,2.2857,2.3143,2.193,2.2365,2.274,2.274,2.274,2.2979,2.3573,2.361,0.0,0.0,0.0,0.0,0.0,0.0,0.0,0.0,0.0,0.0,0.0,0.0,0.0,0.0,0.0,0.0,0.0,0.0,0.0,0.0,0.0,0.0,0.0,0.0,0.0,0.0,0.0,0.0,0.0,0.0,0.0,0.0,0.0,0.0,0.0,0.0,0.0,0.0,0.0,0.0,0.0,0.0,0.0,0.0,0.0,0.0,0.0,0.0,0.0,0.0,0.0,0.0,0.0,0.0,0.0,0.0,0.0,0.0,0.0,0.0,2.2913,0.0,0.0,0.0,0.0,0.0,0.0,0.0,0.0,0.0,0.0,0.0,0.0,0.0,0.0,0.0,0.0,0.0,0.0,0.0,0.0,0.0,0.0,0.0,0.0,0.0,0.0,0.0,0.0,0.0,0.0,0.0,0.0,0.0,0.0,0.0,0.0,0.0,0.0,0.0,0.0,2.2421,2.3072,2.3412,2.2939,2.2961,2.3139,2.3504,2.3614,2.3786,2.4084,2.4192,0.0,0.0,0.0,0.0,0.0,0.0,0.0,0.0,0.0,0.0,0.0,0.0,0.0,0.0,0.0,0.0,0.0,0.0,0.0,0.0,0.0,0.0,0.0,0.0,0.0,0.0,0.0,0.0,0.0,0.0,0.0,0.0,0.0,0.0,0.0,0.0,0.0,0.0,0.0,0.0,0.0,0.0,0.0,0.0,0.0,0.0,0.0,0.0,0.0,0.0,0.0,0.0,0.0,2.4516,2.4516,2.4516,2.4516,2.4516,2.4516,2.4516,2.4355,2.4047,2.3431,0.0,0.0,0.0,0.0,0.0,0.0,0.0,0.0,0.0,0.0,0.0,0.0,0.0,0.0,0.0,0.0,0.0,0.0,0.0,0.0,0.0,0.0,0.0,0.0,2.5235,2.5406,2.4749,0.0,0.0,0.0,0.0,0.0,0.0,0.0,0.0,0.0,0.0,0.0,2.3213,2.3434,2.3742,2.412,2.3724,2.3706,2.4319,2.4516,2.4588,2.4516,2.466,2.4636,0.0,0.0,0.0,0.0,0.0,0.0,0.0,0.0,0.0,0.0,0.0,0.0,0.0,0.0,0.0,0.0,0.0,0.0,0.0,0.0,0.0,0.0,0.0,0.0,0.0,0.0,0.0,0.0,0.0,0.0,0.0,0.0,2.6499,2.6499,0.0,0.0,0.0,0.0,0.0,0.0,0.0,0.0,0.0,0.0,0.0,0.0,0.0,2.6332,2.6332,2.6245,2.6181,2.6181,2.6181,2.6181,2.6181,2.6181,2.6181,2.6181,2.6181,0.0,2.4102,2.3993,0.0,0.0,0.0,0.0,0.0,0.0,0.0,0.0,0.0,0.0,0.0,0.0,0.0,0.0,0.0,0.0,0.0,0.0,0.0,0.0,0.0,0.0,2.6611,2.6658,2.6709,2.6756,0.0,2.5429,2.4355,2.4355,2.4415,0.0,0.0,0.0,0.0,0.0,0.0,0.0,2.4029,2.5182,2.5599,2.448,2.4904,2.5293,2.5399,2.5434,2.5657,2.6146,2.6198,2.5891,2.5176,2.5229,0.0,0.0,0.0,0.0,0.0,0.0,0.0,0.0,0.0,0.0,0.0,0.0,0.0,0.0,0.0,0.0,0.0,0.0,0.0,0.0,0.0,0.0,0.0,0.0,0.0,0.0,0.0,0.0,0.0,2.6499,2.6499,2.6499,2.6499,2.6499,0.0,0.0,0.0,0.0,0.0,0.0,0.0,0.0,0.0,2.6499,2.6801,2.6952,2.6952,2.7248,2.7399,2.7399,2.7399,2.7399,2.7399,2.7399,2.7399,2.7399,2.7399,2.7011,2.6275,2.5206,2.4576,2.4245,0.0,0.0,0.0,0.0,2.3087,2.3143,2.3504,2.3621,2.3676,2.3993,0.0,0.0,0.0,0.0,0.0,0.0,0.0,0.0,0.0,0.0,2.6479,2.7032,2.7079,2.7007,2.7007,2.6479,2.6005,0.0,2.5504,2.5193,2.5087,0.0,0.0,0.0,0.0,2.544,2.5093,2.568,2.5988,2.5727,2.5639,2.5744,2.6082,2.6272,2.6422,2.6499,2.6671,2.6538,2.599,2.5973,2.5973,0.0,0.0,0.0,0.0,0.0,0.0,0.0,0.0,0.0,0.0,0.0,0.0,0.0,0.0,0.0,0.0,0.0,0.0,0.0,0.0,0.0,0.0,0.0,0.0,0.0,0.0,0.0,0.0,2.6499,2.6499,2.6499,2.6499,2.6516,0.0,0.0,0.0,0.0,0.0,0.0,2.6774,2.6821,2.6932,2.7053,2.7458,2.7637,2.7571,2.7986,2.8152,2.8109,2.8109,2.8109,2.8109,2.8109,2.8109,2.8109,2.8109,2.8109,2.7967,2.644,2.5694,2.5421,2.4683,2.4282,2.409,2.409,2.409,2.4138,2.4337,2.442,2.4445,2.4654,2.457,2.4409,2.448,0.0,0.0,0.0,0.0,2.623,2.707,2.6773,2.6424,2.7171,2.7248,2.713,2.713,2.7231,2.7251,0.0,2.6547,2.6074,2.604,0.0,0.0,0.0,0.0,2.6109,2.6109,2.6109,2.6299,2.6799,2.6363,2.6191,2.6589,2.6858,2.6858,2.6521,2.6739,2.6756,2.6516,2.6499,2.6499,2.6499,0.0,0.0,0.0,0.0,0.0,0.0,0.0,0.0,0.0,0.0,0.0,0.0,0.0,0.0,0.0,0.0,0.0,0.0,0.0,0.0,0.0,0.0,0.0,0.0,0.0,0.0,0.0,0.0,0.0,2.6499,2.6499,0.0,0.0,0.0,0.0,2.6692,2.6679,2.6955,2.751,2.7736,2.8049,2.8569,2.862,2.853,2.8355,2.8363,2.8297,2.8109,2.8109,2.8109,2.8109,2.8109,2.8109,2.8109,2.8109,2.8109,2.8041,2.7446,2.6755,2.6009,2.5451,2.4761,2.409,2.409,2.409,2.421,2.4969,2.5229,2.5365,2.6129,2.5856,2.5282,2.5469,2.554,0.0,0.0,2.6471,2.7235,2.7285,2.7369,2.7423,2.7486,2.7486,2.7469,2.7469,2.7386,2.7302,0.0,2.7352,2.7356,2.7251,0.0,2.71,2.6892,2.6909,2.6943,2.6943,2.6943,2.7028,2.7251,2.7235,2.715,2.699,2.699,2.6858,2.6521,2.6516,2.6516,2.6499,2.6499,2.6499,2.6499,2.6499,0.0,0.0,0.0,0.0,0.0,0.0,0.0,0.0,0.0,0.0,0.0,0.0,0.0,0.0,0.0,0.0,0.0,0.0,0.0,0.0,0.0,0.0,0.0,0.0,0.0,0.0,0.0,0.0,2.6516,2.6688,0.0,2.6709,2.6773,2.7011,2.7442,2.748,2.7723,2.8285,2.8377,2.8503,2.8677,2.903,2.9173,2.9105,2.9481,2.9654,2.9579,2.9579,2.9579,2.9579,2.9579,2.9504,2.9385,2.9385,2.9309,2.9151,2.8574,2.7957,2.7371,2.7186,2.6936,2.6676,2.6676,2.6676,2.6663,2.6614,2.6662,2.6789,2.6802,2.6636,2.6418,2.6474,2.6491,2.6543,2.6718,2.7276,2.7846,2.797,2.8338,2.866,2.866,2.866,2.866,2.866,2.8625,2.8591,2.8591,2.7927,2.7352,2.7302,2.7369,2.7386,2.7231,2.7268,2.7319,2.7319,2.7319,2.7319,2.7302,2.718,2.7028,2.6811,2.6926,2.6858,2.6521,2.6705,2.6722,2.6516,2.6499,2.6499,2.6499,2.6922,2.6922,0.0,0.0,0.0,0.0,0.0,0.0,0.0,0.0,0.0,0.0,0.0,0.0,0.0,0.0,0.0,0.0,0.0,0.0,0.0,0.0,0.0,0.0,0.0,0.0,0.0,0.0,2.6658,2.6521,2.6972,2.7242,2.7109,2.7391,2.7776,2.8241,2.8267,2.8507,2.9042,2.9135,2.9261,2.9473,2.9829,2.9967,2.9905,3.0302,3.0476,3.0406,3.0406,3.0406,3.0406,3.0406,3.033,3.0209,3.0209,3.0094,2.987,2.9536,2.9157,2.873,2.8278,2.8109,2.8109,2.8109,2.8133,2.8156,2.7862,2.7855,2.7929,2.7651,2.757,2.7588,2.7644,2.7661,2.7713,2.7919,2.8226,2.8543,2.8669,2.9004,2.9292,2.9292,2.9292,2.9292,2.9292,2.9292,2.9292,2.9292,2.8591,2.7971,2.7971,2.8056,2.809,2.7988,2.8056,2.8107,2.8107,2.7924,2.7773,2.7672,2.7368,2.7096,2.693,2.696,2.6888,2.6589,2.6739,2.6739,2.6516,2.6499,2.6499,2.6499,2.7162,2.7384,2.7162,0.0,0.0,0.0,0.0,0.0,0.0,0.0,0.0,0.0,0.0,0.0,0.0,0.0,0.0,0.0,0.0,0.0,0.0,0.0,0.0,0.0,0.0,0.0,2.6709,2.6739,2.67,2.6559,2.7381,2.7935,2.7922,2.8405,2.8798,2.9025,2.9043,2.9284,2.9831,3.0048,3.0432,3.1031,3.1057,3.0963,3.075,3.075,3.0661,3.0477,3.0477,3.0477,3.0477,3.0477,3.0477,3.0458,3.0458,3.0356,3.0183,3.0362,3.0343,3.0043,2.8679,2.8178,2.8178,2.8178,2.828,2.8455,2.8661,2.8721,2.8708,2.8708,2.8726,2.8762,2.8946,2.9017,2.9053,2.9239,2.9305,2.9318,2.9318,2.9344,2.9344,2.9344,2.9344,2.9344,2.9344,2.9344,2.9344,2.9344,2.9344,2.9344,2.9305,2.9292,2.9292,2.9292,2.9292,0.0,2.9292,2.8782,2.8416,2.8403,2.7872,2.7449,2.7302,2.7113,2.6909,2.6726,2.6607,2.6538,2.6538,2.6555,2.6572,2.6589,2.7213,2.7855,2.8524,0.0,0.0,0.0,0.0,0.0,0.0,0.0,0.0,0.0,0.0,0.0,0.0,0.0,0.0,0.0,0.0,0.0,0.0,0.0,0.0,0.0,0.0,2.8001,2.7045,2.7288,2.7561,2.7522,2.8337,2.8863,2.8713,2.8957,2.9319,2.9772,2.9798,3.0228,3.1199,3.1289,3.1608,3.2202,3.2228,3.2208,3.215,3.215,3.213,3.2058,3.2058,3.2058,3.2058,3.2058,3.198,3.1855,3.1855,3.1737,3.1546,3.1612,3.1605,3.1431,3.0228,2.9775,2.9775,2.9775,2.9526,2.9237,2.9439,2.9241,2.8928,2.9097,2.9132,2.915,2.9203,2.9221,2.9239,2.9274,2.9575,2.9884,2.9884,3.0202,3.0534,3.0534,3.0534,3.0534,3.0534,3.0534,3.0534,3.0534,3.0534,3.0273,2.9436,2.9292,2.9292,2.9292,2.9292,0.0,2.9292,2.9161,2.8834,2.8248,2.7946,2.7601,2.7117,2.6909,2.6811,2.6909,2.733,2.7534,2.7443,2.7911,2.8355,2.8728,2.8392,2.8586,0.0,0.0,0.0,0.0,0.0,0.0,0.0,0.0,0.0,0.0,0.0,0.0,0.0,0.0,0.0,0.0,0.0,0.0,0.0,0.0,0.0,0.0,2.9383,2.9612,2.8966,2.886,2.8669,2.8291,2.9061,2.9647,2.9704,3.0111,3.0594,3.1137,3.119,3.1477,3.2143,3.2182,3.2326,3.2685,3.2685,3.2685,3.2685,3.2685,3.2685,3.2685,3.2685,3.2685,3.2685,3.2685,3.2639,3.252,3.252,3.242,3.2227,3.2327,3.2307,0.0,0.0,0.0,0.0,0.0,3.1023,3.0739,3.0949,3.081,3.0569,3.0693,3.0731,3.0731,3.0731,3.0731,3.0731,3.0731,3.0947,3.119,3.119,3.1457,3.1705,3.1705,3.1705,3.1705,3.1705,3.1705,3.1705,3.1705,3.1705,0.0,3.0503,3.015,3.0011,3.0011,3.0011,3.0011,3.0011,2.9784,2.9456,2.898,2.8662,2.8234,2.7648,2.766,0.0,0.0,0.0,2.826,2.8094,2.8471,0.0,0.0,0.0,2.9314,3.0022,0.0,0.0,0.0,3.0111,3.0515,0.0,0.0,0.0,0.0,0.0,0.0,0.0,0.0,0.0,0.0,0.0,0.0,0.0,0.0,0.0,0.0,3.1252,3.1385,3.1666,3.1047,3.0195,2.9194,2.9855,3.0533,3.0896,3.1512,3.213,3.2659,3.2685,3.2744,3.279,0.0,0.0,0.0,0.0,3.2881,3.2881,3.2881,3.2881,3.2881,3.2881,3.2881,3.2881,3.2881,3.2881,3.2881,3.2881,3.2795,3.2635,3.2835,3.2795,3.2602,3.2299,3.2175,3.2187,3.236,3.2433,3.246,3.2639,0.0,0.0,3.2685,3.2685,3.2685,3.2685,3.2685,3.2685,3.2685,3.2685,3.2685,3.2685,3.2685,3.2685,3.2685,3.2685,3.2685,3.2685,3.2685,3.2685,3.2685,3.2685,3.2529,3.198,3.1438,3.1065,3.1018,3.1005,3.1005,3.1005,3.0524,3.0202,3.0197,0.0,0.0,2.8757,2.9077,2.913,2.8695,2.8995,2.9141,2.9002,2.8986,2.9271,2.9912,2.9927,3.0221,3.083,3.1351,3.1612,3.1596,3.1002,3.1076,0.0,0.0,0.0,0.0,0.0,0.0,0.0,0.0,0.0,0.0,0.0,0.0,0.0,0.0,0.0,3.1148,3.2212,3.3004,3.2961,3.316,3.2873,3.1586,3.1897,3.2241,3.2306,3.2444,3.2568,3.2685,3.2685,3.2908,3.3391,3.3417,3.3613,3.4058,3.4071,3.4071,3.4071,3.4071,3.4071,3.4071,0.0,0.0,3.4071,3.4071,3.4071,3.4071,3.4071,3.405,3.4009,3.405,3.405,3.3917,3.2951,3.2586,3.2586,3.2639,3.2639,3.2659,3.2698,3.2685,3.2685,3.2685,3.2685,3.2685,3.2685,3.2685,0.0,3.2685,3.2685,3.2685,3.2685,3.2685,3.2685,3.2685,3.2685,3.2685,3.2685,3.2685,3.2685,3.2685,3.2685,3.2659,3.2555,3.2039,3.1503,3.1071,3.1005,3.1005,3.1005,3.0895,3.0824,3.0829,3.0722,3.0663,3.0654,3.0649,3.0707,3.0872,3.1359,3.1776,3.2123,3.2042,3.1962,3.1945,3.1945,3.2009,3.2119,3.225,3.2308,3.2308,3.2166,3.2457,0.0,0.0,0.0,0.0,0.0,0.0,0.0,0.0,0.0,0.0,0.0,3.2036,0.0,0.0,3.2877,3.3721,3.4501,3.5074,3.5318,3.5521,3.4994,3.3223,3.2831,3.2836,3.3117,3.3143,3.326,3.3522,3.3548,3.3679,3.3979,3.3992,3.4123,3.4384,3.4397,3.4397,3.4397,3.4397,3.4397,3.4397,3.4397,3.4397,3.4397,3.4397,3.4397,3.4397,3.4397,3.4397,3.4397,3.4397,3.4397,3.4345,3.377,3.3548,3.3548,3.3548,3.3548,3.3548,3.3548,3.3548,3.3548,3.3548,3.3548,3.3548,3.3548,3.3548,3.3548,3.3548,3.3548,3.3548,3.3548,3.3879,3.4206,3.4206,3.4498,3.4799,3.4799,3.4799,3.4799,3.4799,3.4799,3.4724,3.4452,3.4153,3.3498,3.2204,3.1995,3.2024,3.2087,3.2101,3.2087,3.2093,3.2101,3.2014,3.1828,3.1759,3.1882,3.223,3.2501,3.2674,3.2751,3.2686,3.2607,3.2497,3.2497,3.2497,3.2497,3.2846,3.2991,3.3006,3.3309,3.347,0.0,0.0,0.0,0.0,0.0,0.0,0.0,0.0,3.2783,3.3699,3.3509,3.3575,3.4965,3.48,3.4971,3.6451,3.6671,3.6881,3.7509,3.7381,3.6601,3.492,3.3881,3.3409,3.3725,3.3764,3.3927,3.4358,3.4397,3.4397,3.4397,3.4397,3.4397,3.4397,3.4397,3.4397,3.4397,3.4397,3.4397,3.4397,3.4397,3.4397,3.4397,3.4397,3.4397,3.4397,3.4397,3.4397,3.4397,3.4397,3.4397,3.4397,3.4397,3.4397,3.4397,3.4397,3.4397,3.4397,3.4397,3.4397,3.4397,3.4397,3.4397,3.4397,3.4397,3.4397,3.4397,3.4397,3.4397,3.4397,3.4397,3.4909,3.5447,3.5447,3.5943,3.6464,3.6641,3.668,3.6705,3.6861,3.69,3.6759,3.6319,3.6268,3.5619,3.3705,3.3434,3.3418,3.341,3.3396,3.3406,3.3419,3.3405,3.3293,3.3032,3.3059,3.32,3.3466,3.3482,3.3324,3.2987,3.2956,3.2938,3.2874,3.2874,3.2874,3.2874,3.3414,3.3661,3.369,3.4167,3.4138,3.1051,3.1871,3.2889,3.3732,3.4339,3.4778,0.0,0.0,3.5124,3.5262,3.5213,3.5408,3.6169,3.6272,3.6466,3.7178,3.73,3.7539,3.8182,3.7661,3.7334,3.7688,3.6337,3.5083,3.4376,3.4306,3.4332,3.4397,3.4397,3.4397,3.4397,3.4397,3.4397,3.4397,3.4397,3.4397,3.4397,3.4397,3.4397,3.4397,3.4397,3.4397,3.4397,3.4397,3.4397,3.4397,3.4397,3.4397,3.4397,3.4397,3.4397,3.4397,3.4397,3.4397,3.4397,3.4397,3.4397,3.4397,3.4397,3.4397,3.4397,3.4397,3.4397,3.4397,3.4397,3.4397,3.4397,3.4397,3.4397,3.4397,3.4397,3.4481,3.4551,3.4551,3.4613,3.4889,3.5655,3.5836,3.6056,3.6763,3.69,3.6885,3.6815,3.6801,3.6393,3.5138,3.4955,3.4731,3.4166,3.4082,3.4119,3.4167,3.4177,3.4447,3.5093,3.5164,3.5183,3.5215,3.5215,3.5038,3.4648,3.4631,3.4482,3.4196,3.4179,3.4179,3.4179,3.4252,3.4312,3.4312,3.4368,3.4353,3.3491,3.4058,3.4501,0.0,3.5197,3.5392,3.5488,3.5504,3.5576,3.5851,3.6007,3.6249,3.6807,3.6979,3.7225,0.0,3.7973,3.8212,3.8901,3.8689,3.8414,3.8229,3.7587,3.6643,3.5284,3.4696,3.4397,3.4397,3.4397,3.4397,3.4397,3.4397,3.4397,3.4397,3.4397,3.4397,3.4397,3.4397,3.4397,3.4397,3.4397,3.4397,3.4397,3.4397,3.4397,3.4397,3.4397,3.4397,3.4397,3.4397,3.4397,3.4397,3.4397,3.4397,3.4397,3.4397,3.4397,3.4397,3.4397,3.4397,3.4397,3.4397,3.4397,3.4397,3.4397,3.4397,3.4397,3.4397,3.4397,3.4522,3.5012,3.5494,3.5983,3.6492,3.6981,3.7424,3.7767,3.7857,3.7952,3.829,3.8345,3.8345,3.8345,3.8345,3.8189,3.7718,3.6899,3.6292,3.6082,3.5757,3.5407,3.5029,3.5003,3.5133,3.5472,3.5504,3.5455,3.5326,3.5326,3.5197,3.4918,3.4833,3.4716,3.458,3.4465,3.4397,3.4397,3.4397,3.4397,3.4397,3.4397,3.4617,3.5285,0.0,0.0,3.5774,3.5774,3.5818,3.5998,3.6028,3.6129,3.6458,3.6647,3.6907,3.7429,3.7602,3.7898,3.8571,3.8676,3.8856,3.9331,3.9406,3.9192,3.8608,3.8333,3.7625,3.6162,3.5454,3.5101,3.5101,3.4889,3.4847,3.508,3.4654,3.4522,3.4758,3.4543,3.4397,3.4397,3.4397,3.4397,3.4397,3.4397,3.4397,3.4397,3.4397,3.4397,3.4397,3.4397,3.4397,3.4397,3.4397,3.4397,3.4397,3.4397,3.4397,3.4397,3.4397,3.4397,3.4397,3.4397,3.4397,3.4397,3.4397,3.4397,3.4397,3.4397,3.4397,3.4397,3.4397,3.4397,3.4592,3.5467,3.6122,3.6777,3.763,3.8285,3.8778,3.9013,3.9083,3.9137,3.937,3.9406,3.9406,3.9406,3.9406,3.9406,3.9406,3.849,3.7785,3.7694,3.7002,3.6314,3.5833,3.5609,3.5504,3.5504,3.5504,3.5439,3.5294,3.523,3.5115,3.4918,3.4817,3.4748,3.4698,3.4563,3.4481,3.4481,3.4431,3.4501,3.4675,3.4675,3.5041,0.0,0.0,3.6479,3.6479,3.6479,3.6628,3.721,3.7327,3.7342,3.7357,3.7357,3.7584,3.8242,3.8362,3.8586,3.9257,3.9376,3.9376,3.9406,3.9406,3.9388,3.937,3.8682,3.7853,0.0,3.6841,3.6822,3.6822,3.6102,3.6002,3.6783,3.5271,3.4799,3.5629,3.484,3.4397,3.4397,3.4397,3.4397,3.4397,3.4397,3.4397,3.4397,3.4397,3.4397,3.4397,3.4397,3.4397,3.4397,3.4397,3.4397,3.4397,3.4397,3.4397,3.4397,3.4397,3.4397,3.4397,3.4397,3.4397,3.4397,3.4397,3.4397,3.4397,3.4397,3.4397,3.4397,3.4397,3.4397,3.4592,3.5467,3.5729,3.5936,3.6758,3.6958,3.7204,3.8056,3.824,3.8464,3.9247,3.9406,3.9406,3.9406,3.9406,3.9406,3.9406,3.9358,3.9104,3.8452,3.7287,3.6493,3.6479,3.5893,3.5504,3.5504,3.5504,3.5504,3.5488,3.531,3.5115,3.4918,3.4902,3.4819,3.4698,3.4681,3.4681,3.4681,3.4498,3.4733,3.5378,3.5378,3.5694,3.6821,0.0,3.7105,3.7105,3.7105,3.715,3.7342,3.7387,3.7539,3.7973,3.8063,3.8272,3.8945,3.9047,3.9155,3.9361,3.9406,3.9406,3.9406,3.9406,3.9406,3.9406,3.9156,0.0,0.0,0.0,0.0,3.5271,3.4991,3.4971,3.523,3.4716,3.4543,3.484,3.5114,3.5244,3.5244,3.5244,3.5244,3.5244,3.4675,3.4397,3.4397,3.4397,3.4397,3.4397,3.4397,3.4397,3.4397,3.4397,3.4397,3.4397,3.4397,3.4397,3.4397,3.4397,3.4397,3.4397,3.4397,3.4397,3.4397,3.4397,3.4397,3.4397,3.4397,3.4397,3.4397,3.4397,3.4397,3.4716,3.6128,3.6503,3.6836,3.8234,3.8564,3.8634,3.8922,3.901,3.9083,3.9352,3.9406,3.9406,3.9406,3.9406,3.9406,3.9406,3.9406,3.9152,3.8482,3.8035,3.7584,3.715,3.6911,3.6761,3.6761,3.6761,3.6761,3.6761,3.6694,3.6575,3.6371,3.6266,3.6143,3.5956,3.597,3.5886,3.5764,3.5834,3.5916,3.5996,3.5996,3.6344,3.7479,3.7584,3.7764,3.7764,3.7764,3.7823,3.806,3.8105,3.824,3.8676,3.8751,3.8901,3.9316,3.9406,3.9406,3.9406,3.9406,3.9406,3.9406,3.9406,3.9406,3.9406,3.9406,3.9283,0.0,0.0,0.0,3.6181,3.5916,3.5876,3.6162,3.5615,3.5433,3.5749,3.5996,3.6122,3.6122,3.6122,3.5983,3.5689,3.4819,3.4397,3.4397,3.4397,3.4397,3.4397,3.4397,3.4397,3.4397,3.4397,3.4397,3.4397,3.4397,3.4397,3.4397,3.4397,3.4397,3.4397,3.4397,3.4397,3.4397,3.4397,3.4397,3.446,3.4778,3.4847,3.493,3.521,3.5291,3.5602,3.7005,3.7352,3.771,3.9086,3.9406,3.9406,3.9406,3.9406,3.9406,3.9406,3.9406,3.9406,3.9406,3.9406,3.9406,3.9406,3.9406,3.9242,3.8811,3.8542,3.8227,3.7808,3.7539,3.7387,3.7387,3.7387,3.7387,3.7387,3.7368,3.7265,3.7141,3.6983,3.684,3.6702,3.6649,3.6529,3.6404,3.6458,3.6539,3.6664,3.6664,3.7012,3.7689,3.7973,3.8437,3.8437,3.8437,3.8616,3.9257,3.9406,3.9406,3.9406,3.9406,3.9406,0.0,0.0,3.9406,3.9406,3.9436,3.9451,3.9451,3.9481,3.9496,0.0,0.0,0.0,0.0,0.0,0.0,3.9372,0.0,3.8352,3.9104,3.7639,3.716,3.7981,3.7265,3.6878,3.6878,3.6906,3.6522,3.571,3.4852,3.445,3.445,3.441,3.4397,3.4397,3.4397,3.4397,3.4397,3.4397,3.4397,3.4397,3.4397,3.4397,3.4397,3.4397,3.4397,3.4397,3.4397,3.4397,3.4397,3.4397,3.4439,3.4613,3.5447,3.5729,3.5916,3.6699,3.69,3.7107,3.7966,3.8202,3.8389,3.921,3.9406,3.9406,3.9406,3.9406,3.9406,3.9406,3.9406,3.9406,3.9406,3.9406,3.9406,3.9406,3.9406,3.9406,3.9406,3.8841,3.8437,3.8437,3.7883,3.7492,3.7492,3.7492,3.7492,3.7492,3.7352,3.728,3.728,3.7103,3.6996,3.6978,3.6805,3.6702,3.6684,3.6492,3.6736,3.736,3.736,3.7651,3.8928,3.9017,3.9137,3.9137,3.9137,3.9182,3.9361,3.9406,3.9406,3.9406,3.9406,3.9406,0.0,0.0,0.0,3.9406,3.981,0.0,4.0157,4.0576,0.0,4.0894,0.0,4.0801,4.0598,4.0394,0.0,0.0,3.7448,3.5467,3.5655,3.5271,3.5142,3.5366,3.6157,3.6593,3.6593,3.7037,3.6831,3.5996,3.5367,3.5064,3.5051,3.4607,3.4397,3.4397,3.4397,3.4397,3.4397,3.4397,3.4397,3.4397,3.4397,3.4397,3.4397,3.4397,3.4397,3.4397,3.4397,3.4397,3.4397,3.4397,3.484,3.5406,3.5629,3.6122,3.6641,3.6841,3.69,3.7107,3.7966,3.8202,3.8389,3.921,3.9406,3.9406,3.9406,3.9406,3.9406,3.9406,3.9406,3.9406,3.9406,3.9406,3.9406,3.9406,3.9406,3.9406,3.9406,3.9257,3.9137,3.9137,3.8987,3.8898,3.8898,3.8743,3.8671,3.8671,3.8491,3.8386,3.8386,3.8347,3.8252,3.8088,3.8183,3.8091,3.7797,3.7889,3.794,3.797,3.797,3.8057,3.9406,3.9406,3.9406,3.9406,3.9406,3.9406,3.9406,3.9406,3.9406,3.9406,3.9406,0.0,0.0,0.0,0.0,0.0,0.0,0.0,4.0786,4.1164,4.1403,0.0,4.1403,0.0,4.1403,4.105,4.0829,0.0,3.8753,3.747,3.747,3.747,3.747,3.747,3.8226,3.8644,3.8644,3.824,3.7762,3.7263,3.6171,3.5652,3.5639,3.5299,3.5142,3.5142,0.0,3.5142,3.5129,3.4894,3.4789,3.4763,3.4502,3.4397,3.4397,3.4397,3.4397,3.4397,3.4397,3.4397,3.4397,3.4397,3.4991,3.577,3.6122,3.6811,3.7525,3.79,3.7994,3.8121,3.8594,3.8738,3.883,3.9283,3.9406,3.9406,3.9406,3.9406,3.9406,3.9406,3.9406,3.9406,3.9406,3.9406,3.9406,3.9406,3.9406,3.9406,3.9406,3.9406,3.9406,3.9406,3.9406,3.9406,3.9406,3.9301,3.9177,3.9104,3.898,3.8889,3.88,3.88,3.8705,3.8497,3.8612,3.8519,3.8202,3.8296,3.8296,3.8202,3.8202,3.8202,3.9406,3.9406,3.9406,3.9406,3.9406,3.9406,3.9406,3.9406,3.9406,3.9406,0.0,3.9406,3.9406,3.9466,3.972,4.0307,0.0,4.0879,4.1448,4.1613,4.1639,4.1639,4.1639,4.1639,4.1639,4.0964,4.0524,4.0524,4.1211,4.1473,4.1084,4.1069,4.1095,4.1169,4.1184,4.1209,4.1283,3.9788,3.8981,3.8837,3.719,3.6345,3.6227,3.6136,3.6109,3.6109,3.6109,3.6109,3.607,3.56,3.5404,3.5351,3.4829,3.462,3.462,3.4541,3.4515,3.4502,3.4424,3.4481,3.4571,3.4571,3.5155,3.6016,3.6836,3.7687,3.8501,3.921,3.9406,3.9406,3.9406,3.9406,3.9406,3.9406,3.9406,3.9406,3.9406,3.9406,3.9406,3.9406,3.9406,3.9406,3.9406,3.9406,3.9406,3.9406,3.9406,3.9406,3.9406,3.9406,3.9406,3.9406,3.9406,3.9406,3.9406,3.9388,3.9283,3.9104,3.905,3.8943,3.88,3.8764,3.8686,3.8497,3.8497,3.8404,3.8202,3.8202,3.8202,3.8202,3.8202,3.8202,3.9406,3.9406,3.9406,3.9406,3.9406,3.9406,3.9406,3.9406,0.0,0.0,3.9406,3.9406,3.9406,3.984,4.0262,4.0382,0.0,0.0,0.0,0.0,4.298,0.0,0.0,0.0,0.0,0.0,0.0,0.0,4.2887,4.1907,3.9447,3.933,3.9532,3.9983,3.9997,4.0232,4.073,4.0449,3.9896,3.9125,3.8358,3.7589,3.6828,3.6332,3.6109,3.6109,3.6109,0.0,3.6096,3.6005,3.5966,3.5953,3.5848,3.5809,3.5757,3.5312,3.5142,3.5064,3.4567,3.4868,3.5467,3.5467,3.6022,3.6855,3.7706,3.8538,3.9228,3.9355,3.9406,3.9406,3.9406,3.9406,3.9406,3.9406,3.9406,3.9406,3.9406,3.9406,3.9406,3.9406,3.9406,3.9406,3.9406,3.9406,3.9406,3.9406,3.9406,3.9406,3.9406,3.9406,3.9406,3.9406,3.9406,3.9406,3.9406,3.9247,3.9141,3.9104,3.8793,3.8649,3.8782,3.8631,3.8534,3.8497,3.8497,3.8404,3.8202,3.8202,3.8202,3.8202,3.8202,3.8202,3.9406,3.9406,3.9406,3.9406,3.9406,3.9406,3.9406,0.0,0.0,0.0,3.9406,3.9369,3.9224,0.0,0.0,0.0,0.0,0.0,0.0,0.0,0.0,0.0,0.0,0.0,0.0,0.0,0.0,4.329,4.329,4.2674,4.1266,4.0758,4.0621,4.088,4.0894,4.1251,4.2003,4.1547,4.1092,4.0646,3.9903,3.9304,3.8855,3.8067,3.7714,3.7692,3.7235,3.7037,3.7011,3.6698,3.6567,3.6541,3.6227,3.6109,3.607,3.5809,3.5717,3.5678,3.5391,3.5875,3.6702,3.7173,3.7422,3.7634,3.8075,3.8756,3.9406,3.9406,3.9406,3.9406,3.9406,3.9406,3.9406,3.9406,3.9406,3.9406,3.9406,3.9406,3.9406,3.9406,3.9406,3.9406,3.9406,3.9406,3.9406,3.9406,3.9406,3.9406,3.9406,3.9406,3.9406,3.9406,3.9406,3.9406,3.9406,3.9301,3.921,3.9104,3.8815,3.8649,3.8631,3.8553,3.8441,3.8348,3.8441,3.8404,3.8202,3.8202,3.8202,3.8202,3.8202,3.8202,3.9406,3.9406,3.9406,3.9406,3.9406,3.9406,3.9406,3.9406,0.0,0.0,3.9455,3.9287,3.9228,0.0,0.0,0.0,0.0,0.0,0.0,0.0,0.0,0.0,0.0,0.0,0.0,0.0,0.0,4.329,4.329,4.329,4.329,4.2638,4.2293,4.2293,4.2293,4.2598,4.329,4.2618,4.2176,4.199,4.105,4.0603,4.0568,3.9637,3.9307,3.9453,3.8562,3.8194,3.8132,3.7468,3.7194,3.7164,3.688,3.6652,3.6497,3.6573,3.6468,3.6279,3.6149,3.6828,3.7895,3.8579,3.8714,3.8632,3.8835,3.9317,3.9825,3.9825,3.9825,3.9825,3.9825,3.9825,3.9825,3.9825,3.9825,3.978,3.9645,3.9616,3.9571,3.9436,3.9406,3.9406,3.9406,3.9406,3.9406,3.9406,3.9406,3.9406,3.9406,3.9406,3.9406,3.9406,3.9406,3.9406,3.9406,3.9406,3.9319,3.9159,3.898,3.8778,3.8571,3.8516,3.8404,3.8202,3.8366,3.8366,3.8202,3.8202,3.8202,3.8202,3.8202,3.8202,3.9406,3.9406,3.9406,3.9406,3.9406,3.9406,3.9406,0.0,0.0,4.0187,3.9633,3.9223,3.9803,0.0,0.0,0.0,0.0,0.0,0.0,0.0,0.0,0.0,0.0,0.0,0.0,0.0,0.0,4.329,4.329,4.329,4.329,4.323,4.319,4.319,4.319,4.321,4.329,4.321,4.2795,4.199,4.105,4.0603,4.0568,3.9637,3.9659,4.0418,3.9497,3.9077,0.0,3.8173,3.7821,3.79,3.8635,3.8421,3.7779,3.8089,3.7647,3.6841,3.6292,3.7221,3.8681,3.8763,3.9304,4.0062,4.0872,4.1167,4.1224,4.1224,4.1224,4.1224,4.1224,4.1224,4.1224,4.1224,4.1224,4.1059,4.0442,4.0307,4.0127,3.9511,3.9406,3.9406,3.9406,3.9406,3.9406,3.9406,3.9406,3.9406,3.9406,3.9406,3.9406,3.9406,3.9406,3.9406,3.9406,3.9406,3.9388,3.9355,3.9177,3.898,3.8778,3.8608,3.8404,3.8202,3.8221,3.8221,3.8202,3.8202,3.8202,3.8202,3.8202,3.8202,3.9406,3.9406,3.9406,3.9406,3.9406,3.9369,3.9194,0.0,3.9877,3.9396,3.9473,3.9641,3.9737,0.0,0.0,0.0,0.0,0.0,0.0,0.0,0.0,0.0,0.0,0.0,0.0,0.0,4.329,4.329,4.329,4.329,4.329,4.2795,4.2517,4.2517,4.2517,4.2774,4.329,4.329,4.2855,4.199,4.1624,4.1134,4.0568,3.9637,3.9703,4.0546,3.9615,3.921,0.0,3.8836,3.8372,3.7992,3.8859,3.9002,3.8778,3.9455,3.9503,3.9136,3.889,3.9648,4.0732,4.0732,4.1322,4.1942,4.1532,4.1403,4.1403,4.1403,4.1403,4.1403,4.1403,4.1403,4.1403,4.1403,4.1403,4.1328,4.1074,4.1014,4.0905,4.0651,4.0591,4.0591,4.0591,4.0277,4.0008,4.0008,3.966,3.9406,3.9406,3.9406,3.9406,3.9406,3.9406,3.9406,3.9406,3.9406,3.9406,3.9406,3.9104,3.8889,3.88,3.8501,3.8277,3.8202,3.8202,3.8202,3.8202,3.8202,3.8202,3.8202,3.8202,3.842,3.9301,3.9337,3.9382,3.9305,3.9295,3.922,0.0,0.0,4.0021,3.9087,3.9418,3.9888,3.9893,4.0209,0.0,0.0,0.0,4.1233,0.0,0.0,0.0,0.0,0.0,0.0,0.0,4.329,4.329,4.329,4.329,4.329,4.329,4.2734,4.2395,4.2395,4.2395,4.2679,4.329,4.329,4.2996,4.2395,4.2114,4.1645,4.0986,4.0029,3.9964,4.0546,3.9899,3.9615,0.0,3.9615,3.9082,3.8372,3.9268,3.9439,3.9307,4.0246,4.0603,4.0603,4.0603,4.1212,4.199,4.199,4.2598,4.3145,4.2237,4.1953,4.1953,4.1953,4.1953,4.1953,4.1953,4.1953,4.1953,4.1953,4.1953,4.1908,4.1733,4.1688,4.1628,4.1433,4.1403,4.1403,4.1403,4.1014,4.0696,4.0696,4.0292,3.9993,3.9993,3.9993,3.9933,3.9705,3.969,3.9616,3.9421,3.9337,3.9301,3.9301,3.898,3.8764,3.8705,3.8427,3.8258,3.8202,3.8202,3.8202,3.8202,3.8202,3.8202,3.8202,3.8202,3.8565,3.9104,3.9247,3.9341,3.9076,3.9011,3.8937,0.0,0.0,3.9942,3.9639,3.9613,3.9817,4.0477,3.9842,3.9527,4.0439,0.0,0.0,4.1831,0.0,0.0,0.0,0.0,0.0,4.313,4.329,4.329,4.329,4.329,0.0,4.329,4.329,4.329,4.329,4.329,4.329,4.329,4.329,4.329,4.327,4.2415,4.199,4.1949,4.1007,4.0603,4.0603,4.0603,4.0603,0.0,4.0603,4.0029,3.9285,4.0224,4.0029,3.9307,4.0246,4.0603,4.0603,4.0603,4.1212,4.199,4.199,4.2598,4.329,4.3275,4.3275,4.3275,4.3275,4.3275,4.3275,4.3275,4.3275,4.3275,4.3275,4.3275,4.3115,4.2511,4.2396,4.2186,4.1523,4.1403,4.1403,4.1403,4.1388,4.1388,4.1388,4.1388,4.1373,4.1373,4.1373,4.1134,4.0457,4.0382,4.0127,3.9466,3.9228,3.9104,3.9104,3.8907,3.8705,3.8516,3.8497,3.8404,3.8202,3.8202,3.8202,3.8202,3.8202,3.8202,3.8202,3.8202,3.8565,3.7677,3.8141,3.8755,3.8082,3.8311,3.8785,3.8964,0.0,3.9654,3.9377,3.9341,3.9396,3.961,3.9395,3.9285,3.9593,4.0181,0.0,0.0,0.0,0.0,0.0,0.0,0.0,0.0,0.0,4.329,4.329,4.329,4.329,4.329,4.329,4.329,4.329,4.329,4.329,4.329,4.329,4.2996,4.2415,4.2135,4.1665,4.1029,4.0753,4.0603,4.0646,4.1275,4.1191,4.0646,4.1296,4.1007,4.0246,4.1191,4.138,4.1218,4.212,4.2441,4.2441,4.2441,4.2638,4.2895,4.2895,4.309,4.329,4.329,4.329,4.329,4.329,4.329,4.329,4.329,4.329,4.329,4.329,4.329,4.3265,4.3055,4.301,4.2936,4.2726,4.2696,4.2696,4.2696,4.2361,4.2096,4.2096,4.1688,4.1403,4.1403,4.1403,4.1313,4.1104,4.1089,4.0565,3.93,3.9141,3.905,3.8907,3.8837,3.8705,3.8497,3.8497,3.8404,3.8202,3.8202,3.8202,3.8202,3.8202,3.8434,3.8884,3.9305,3.9857,0.0,3.8045,3.8817,3.8244,3.8242,0.0,0.0,0.0,3.9306,3.8814,3.8979,3.921,3.921,3.921,3.921,3.921,3.9681,0.0,0.0,0.0,0.0,0.0,0.0,0.0,0.0,4.311,4.329,4.329,4.329,4.329,4.329,4.329,4.329,4.329,4.329,4.329,4.329,4.329,4.3036,4.2496,4.2496,4.2017,4.1134,4.1134,4.0923,4.0646,4.1603,4.1665,0.0,4.2099,4.1955,4.1191,4.1769,4.199,4.2073,4.2618,4.3016,4.329,4.329,4.329,4.329,4.329,4.329,4.329,4.329,4.329,4.329,4.329,4.329,4.329,4.329,4.329,4.329,4.329,4.329,4.329,4.329,4.329,4.329,4.329,4.329,4.329,4.329,4.3,4.275,4.275,4.2387,4.2117,4.2117,4.2117,4.2028,4.1792,4.1777,4.1268,3.997,3.9791,3.9698,3.9571,3.9388,3.9237,3.91,3.91,3.9028,3.8913,3.8913,3.8913,3.8913,3.8913,3.9131,3.9552,4.0176,4.0699,0.0,3.8665,0.0,0.0,0.0,0.0,0.0,0.0,0.0,3.8148,3.8594,3.9099,3.9099,3.9099,3.9099,3.9099,3.9232,0.0,0.0,0.0,0.0,0.0,4.2284,0.0,4.2155,4.282,4.329,4.329,4.329,4.329,4.329,4.329,4.329,4.329,4.329,4.329,4.329,4.329,4.329,4.329,4.329,4.2875,4.2093,4.2093,4.1568,0.0,4.1686,4.2052,4.2073,4.2935,4.282,4.2093,4.2093,4.2093,4.2093,4.2093,4.2598,4.329,4.329,4.329,4.329,4.329,4.329,4.329,4.329,4.329,4.329,4.329,4.329,4.329,4.329,4.329,4.329,4.329,4.329,4.329,4.329,4.329,4.329,4.329,4.329,4.329,4.329,4.329,4.329,4.329,4.329,4.329,4.329,4.329,4.3085,4.2511,4.247,4.2134,4.1326,4.0985,4.0791,4.0772,4.0373,4.0123,4.0104,4.0123,4.0123,4.0104,4.0104,4.0104,4.0104,4.0104,4.0118,4.0191,4.08,4.112,3.7706,0.0,3.8652,3.8198,3.7815,3.7792,0.0,0.0,0.0,0.0,0.0,3.8217,3.8217,3.8217,3.8217,3.8217,3.937,4.0353,4.0568,0.0,0.0,4.2644,4.3036,4.321,4.3016,4.319,4.329,4.329,4.329,4.329,4.329,4.329,4.329,4.329,4.329,4.329,4.329,4.329,4.329,4.329,4.329,4.319,4.2996,4.2996,4.2517,4.1728,4.2618,4.2618,4.2073,4.2935,4.319,4.2996,4.2996,4.2996,4.2996,4.2996,4.3115,4.329,4.329,4.329,4.329,4.329,4.329,4.329,4.329,4.329,4.329,4.329,4.329,4.329,4.329,4.329,4.329,4.329,4.329,4.329,4.329,4.329,4.329,4.329,4.329,4.329,4.329,4.329,4.329,4.329,4.329,4.329,4.329,4.329,4.3265,4.31,4.3085,4.3006,4.2797,4.1566,4.0733,4.0573,4.0427,4.0261,4.0123,4.0241,4.0261,4.0104,4.0104,4.0104,4.0104,4.0104,4.0365,4.0858,4.1018,4.1366,3.8317,3.8414,3.8844,3.8749,3.8017,3.7595,0.0,0.0,0.0,0.0,0.0,0.0,3.79,3.8226,3.8494,3.8494,3.9686,0.0,0.0,0.0,0.0,4.325,4.2955,4.2855,0.0,4.329,4.329,4.329,4.329,4.329,4.329,4.329,4.329,4.329,4.329,4.329,4.329,4.329,4.329,4.329,4.329,4.329,4.329,4.329,4.3036,4.2618,4.311,4.3036,4.2618,4.311,4.329,4.329,4.329,4.329,4.329,4.329,4.329,4.329,4.329,4.329,4.329,4.329,4.329,4.329,4.329,4.329,4.329,4.329,4.329,4.329,4.329,4.329,4.329,4.329,4.329,4.329,4.329,4.329,4.329,4.329,4.329,4.329,4.329,4.329,4.329,4.329,4.329,4.329,4.329,4.329,4.329,4.329,4.329,4.329,4.329,4.2377,4.172,4.1518,4.1299,4.1139,4.1018,4.1119,4.1139,4.1018,4.1018,4.1018,4.1018,4.1018,4.1192,4.1555,4.1555,4.1744,3.8898,3.8997,3.9307,3.9585,3.85,3.7605,0.0,0.0,0.0,0.0,0.0,0.0,0.0,0.0,0.0,0.0,0.0,0.0,4.2052,4.2211,4.2476,4.321,4.2638,0.0,4.323,4.329,4.329,4.329,4.329,4.329,4.329,4.329,4.329,4.329,4.329,4.329,4.329,4.329,4.329,4.329,4.329,4.329,4.329,4.329,4.329,4.329,0.0,0.0,4.329,4.329,4.329,4.329,4.329,4.329,4.329,4.329,4.329,4.329,4.329,4.329,4.329,4.329,4.329,4.329,4.329,4.329,4.329,4.329,4.329,4.329,4.329,4.329,4.329,4.329,4.329,4.329,4.329,4.329,4.329,4.329,4.329,4.329,4.329,4.329,4.329,4.329,4.329,4.329,4.329,4.329,4.329,4.329,4.329,4.329,4.329,4.3115,4.2915,4.2708,4.2351,4.2133,4.2092,4.2092,4.2092,4.2092,4.2092,4.2092,4.2092,4.2092,4.2092,4.2092,4.2092,4.2092,3.7057,3.8121,3.928,3.8626,3.8549,3.8459,3.7848,0.0,0.0,0.0,0.0,0.0,0.0,0.0,0.0,0.0,0.0,4.1197,0.0,0.0,4.315,4.327,0.0,4.315,4.329,4.329,4.329,4.329,4.329,4.329,4.329,4.329,4.329,4.329,4.329,4.329,4.329,4.329,4.329,4.329,4.329,4.329,4.329,4.329,4.329,4.329,0.0,4.329,4.329,4.329,4.329,4.329,4.329,4.329,4.329,4.329,4.329,4.329,4.329,4.329,4.329,4.329,4.329,4.329,4.329,4.329,4.329,4.329,4.329,4.329,4.329,4.329,4.329,4.329,4.329,4.329,4.329,4.329,4.329,4.329,4.329,4.329,4.329,4.329,4.329,4.329,4.329,4.329,4.329,4.329,4.329,4.329,4.329,4.329,4.329,4.3115,4.2915,4.2708,4.2479,4.2284,4.2113,4.2092,4.2092,4.2092,4.2092,4.2092,4.2092,4.2092,4.2092,4.2092,4.2092,4.2092,3.7556,3.8033,3.8841,3.8283,3.8877,3.9615,3.9703,0.0,0.0,0.0,0.0,0.0,0.0,0.0,3.9796,4.1183,0.0,4.2345,4.319,4.2895,4.2774,0.0,0.0,4.2795,4.325,4.329,4.329,4.329,4.329,4.329,4.329,4.329,4.329,4.329,4.329,4.329,4.329,4.329,4.329,4.329,4.329,4.329,4.329,4.329,4.329,4.329,0.0,4.329,4.329,4.329,4.329,4.329,4.329,4.329,4.329,4.329,4.329,4.329,4.329,4.329,4.329,4.329,4.329,4.329,4.329,4.329,4.329,4.329,4.329,4.329,4.329,4.329,4.329,4.329,4.329,4.329,4.329,4.329,4.329,4.329,4.329,4.329,4.329,4.329,4.329,4.329,4.329,4.329,4.329,4.329,4.329,4.329,4.329,4.329,4.329,4.323,4.299,4.2561,4.2366,4.2195,4.2092,4.2092,4.2092,4.2092,4.2092,4.2092,4.2092,4.2092,4.2092,4.2092,4.2092,4.2092,3.7864,3.7933,3.836,3.8234,0.0,4.0204,4.107,0.0,0.0,0.0,0.0,0.0,0.0,4.0116,0.0,4.2739,4.2996,4.307,4.327,4.2734,4.2557,4.321,4.2699,4.2557,4.323,4.329,4.329,4.329,4.329,4.329,4.329,4.329,4.329,4.329,4.329,4.329,4.329,4.329,4.329,4.329,4.329,4.329,4.329,4.329,4.329,4.329,4.329,4.329,4.329,4.329,4.329,4.329,4.329,4.329,4.329,4.329,4.329,4.329,4.329,4.329,4.329,4.329,4.329,4.329,4.329,4.329,4.329,4.329,4.329,4.329,4.329,4.329,4.329,4.329,4.329,4.329,4.329,4.329,4.329,4.329,4.329,4.329,4.329,4.329,4.329,4.329,4.329,4.329,4.329,4.329,4.329,4.329,4.329,4.329,4.329,4.321,4.295,4.2514,4.2284,4.2154,4.2092,4.2092,4.2092,4.2092,4.2092,4.2092,4.2092,4.2092,4.2092,4.2092,4.2092,4.2092,3.6546,3.7312,3.8189,3.8405,3.8877,0.0,4.0139,4.0468,0.0,0.0,0.0,0.0,0.0,4.0546,4.0923,4.1914,4.2093,4.2374,4.319,0.0,4.323,4.329,4.325,4.323,4.329,4.329,4.329,4.329,4.329,4.329,4.329,4.329,4.329,4.329,4.329,4.329,4.329,4.329,4.329,4.329,4.329,4.329,4.329,4.329,4.329,4.329,4.329,4.329,4.329,4.329,4.329,4.329,4.329,4.329,4.329,4.329,4.329,4.329,4.329,4.329,4.329,4.329,4.329,4.329,4.329,4.329,4.329,4.329,4.329,4.329,4.329,4.329,4.329,4.329,4.329,4.329,4.329,4.329,4.329,4.329,4.329,4.329,4.329,4.329,4.329,4.329,4.329,4.329,4.329,4.329,4.329,4.329,4.329,4.329,4.329,4.295,4.2729,4.2668,4.2494,4.2304,4.2113,4.2092,4.2092,4.2092,4.2092,4.2092,4.2092,4.2092,4.2092,4.2092,4.2092,4.2092,3.6873,3.8211,3.9842,3.8765,0.0,0.0,0.0,0.0,0.0,0.0,0.0,0.0,0.0,0.0,4.24,4.2739,4.2815,4.2915,4.325,4.329,4.329,4.329,4.329,4.329,4.329,4.329,4.329,4.329,4.329,4.329,4.329,4.329,4.329,4.329,4.329,4.329,4.329,4.329,4.329,4.329,4.329,4.329,4.329,4.329,4.329,4.329,4.329,4.329,4.329,4.329,4.329,4.329,4.329,4.329,4.329,4.329,4.329,4.329,4.329,4.329,4.329,4.329,4.329,4.329,4.329,4.329,4.329,4.329,4.329,4.329,4.329,4.329,4.329,4.329,4.329,4.329,4.329,4.329,4.329,4.329,4.329,4.329,4.329,4.329,4.329,4.329,4.329,4.329,4.329,4.329,4.329,4.329,4.329,4.329,4.329,4.315,4.297,4.2708,4.2392,4.2195,4.2092,4.2092,4.2092,4.2092,4.2092,4.2092,4.2092,4.2092,4.2092,4.2092,4.2092,4.2092,3.7461,3.8581,4.008,0.0,0.0,0.0,0.0,0.0,0.0,0.0,0.0,0.0,0.0,0.0,0.0,0.0,4.329,4.329,4.329,4.329,4.329,4.329,4.329,4.329,4.329,4.329,4.329,4.329,4.329,4.329,4.329,4.329,4.329,4.329,4.329,4.329,4.329,4.329,4.329,4.329,4.329,4.329,4.329,4.329,4.329,4.329,4.329,4.329,4.329,4.329,4.329,4.329,4.329,4.329,4.329,4.329,4.329,4.329,4.329,4.329,4.329,4.329,4.329,4.329,4.329,4.329,4.329,4.329,4.329,4.329,4.329,4.329,4.329,4.329,4.329,4.329,4.329,4.329,4.329,4.329,4.329,4.329,4.329,4.329,4.329,4.329,4.329,4.329,4.329,4.329,4.329,4.329,4.329,4.329,4.329,4.325,4.309,4.2795,4.2474,4.2263,4.2195,4.2181,4.2222,4.2284,4.2222,4.2181,4.2181,4.2133,4.2092,4.2092,4.2092,4.2092,3.8085,3.8107,3.8456,0.0,0.0,0.0,0.0,0.0,0.0,0.0,0.0,0.0,0.0,0.0,0.0,4.317,4.329,4.329,4.329,4.329,4.329,4.329,4.329,4.329,4.329,4.329,4.329,4.329,4.329,4.329,4.329,4.329,4.329,4.329,4.329,4.329,4.329,4.329,4.329,4.329,4.329,4.329,4.329,4.329,4.329,4.329,4.329,4.329,4.329,4.329,4.329,4.329,4.329,4.329,4.329,4.329,4.329,4.329,4.329,4.329,4.329,4.329,4.329,4.329,4.329,4.329,4.329,4.329,4.329,4.329,4.329,4.329,4.329,4.329,4.329,4.329,4.329,4.329,4.329,4.329,4.329,4.329,4.329,4.329,4.329,4.329,4.329,4.329,4.329,4.329,4.329,4.329,4.329,4.329,4.329,4.3115,4.3001,4.3001,4.2795,4.2622,4.2412,4.2392,4.2514,4.2703,4.25,4.2392,4.2392,4.2195,4.2092,4.2092,4.2092,4.2092,3.7312,3.8841,0.0,3.9511,0.0,0.0,0.0,0.0,0.0,0.0,0.0,0.0,0.0,0.0,0.0,4.325,4.329,4.329,4.329,4.329,4.329,4.329,4.329,4.329,4.329,4.329,4.329,4.329,4.329,4.329,4.329,4.329,4.329,4.329,4.329,4.329,4.329,4.329,4.329,4.329,4.329,4.329,4.329,4.329,4.329,4.329,4.329,4.329,4.329,4.329,4.329,4.329,4.329,4.329,4.329,4.329,4.329,4.329,4.329,4.329,4.329,4.329,4.329,4.329,4.329,4.329,4.329,4.329,4.329,4.329,4.329,4.329,4.329,4.329,4.329,4.329,4.329,4.329,4.329,4.329,4.329,4.329,4.329,4.329,4.329,4.329,4.329,4.329,4.329,4.329,4.329,4.329,4.329,4.329,4.329,4.325,4.3135,4.3016,4.2941,4.2815,4.2622,4.2622,4.2642,4.2688,4.25,4.2392,4.2392,4.2195,4.2092,4.2092,4.2092,4.2092,3.8693,4.0124,0.0,4.0831,4.1637,0.0,0.0,0.0,0.0,0.0,0.0,4.2679,4.321,4.329,0.0,4.329,4.329,4.329,4.329,4.329,4.329,4.329,4.329,4.329,4.329,4.329,4.329,4.329,4.329,4.329,4.329,4.329,4.329,4.329,4.329,4.329,4.329,4.329,4.329,4.329,4.329,4.329,4.329,4.329,4.329,4.329,4.329,4.329,4.329,4.329,4.329,4.329,4.329,4.329,4.329,4.329,4.329,4.329,4.329,4.329,4.329,4.329,4.329,4.329,4.329,4.329,4.329,4.329,4.329,4.329,4.329,4.329,4.329,4.329,4.329,4.329,4.329,4.329,4.329,4.329,4.329,4.329,4.329,4.329,4.329,4.329,4.329,4.329,4.329,4.329,4.329,4.329,4.329,4.329,4.329,4.329,4.325,4.3135,4.3115,4.3056,4.293,4.287,4.287,4.293,4.2729,4.2642,4.2642,4.2366,4.2222,4.2222,4.2133,4.2092,4.1169,0.0,0.0,4.2921,4.2467,0.0,4.3056,0.0,0.0,0.0,0.0,4.329,4.329,4.329,4.329,4.329,4.329,4.329,4.329,4.329,4.329,4.329,4.329,4.329,4.329,4.329,4.329,4.329,4.329,4.329,4.329,4.329,4.329,4.329,4.329,4.329,4.329,4.329,4.329,4.329,4.329,4.329,4.329,4.329,4.329,4.329,4.329,4.329,4.329,4.329,4.329,4.329,4.329,4.329,4.329,4.329,4.329,4.329,4.329,4.329,4.329,4.329,4.329,4.329,4.329,4.329,4.329,4.329,4.329,4.329,4.329,4.329,4.329,4.329,4.329,4.329,4.329,4.329,4.329,4.329,4.329,4.329,4.329,4.329,4.329,4.329,4.329,4.329,4.329,4.329,4.329,4.329,4.329,4.329,4.329,4.329,4.329,4.329,4.329,4.329,4.329,4.3115,4.3115,4.329,4.3095,4.3001,4.3001,4.2607,4.2453,4.25,4.231,4.2222,4.0189,4.1071,0.0,0.0,4.2618,4.3001,4.325,4.329,4.329,4.329,4.329,4.329,4.329,4.329,4.329,4.329,4.329,4.329,4.329,4.329,4.329,4.329,4.329,4.329,4.329,4.329,4.329,4.329,4.329,4.329,4.329,4.329,4.329,4.329,4.329,4.329,4.329,4.329,4.329,4.329,4.329,4.329,4.329,4.329,4.329,4.329,4.329,4.329,4.329,4.329,4.329,4.329,4.329,4.329,4.329,4.329,4.329,4.329,4.329,4.329,4.329,4.329,4.329,4.329,4.329,4.329,4.329,4.329,4.329,4.329,4.329,4.329,4.329,4.329,4.329,4.329,4.329,4.329,4.329,4.329,4.329,4.329,4.329,4.329,4.329,4.329,4.329,4.329,4.329,4.329,4.329,4.329,4.329,4.329,4.329,4.329,4.329,4.329,4.329,4.329,4.329,4.327,4.327,4.329,4.3095,4.3001,4.3001,4.2749,4.2875,4.3344,4.3304,4.3185,4.112,0.0,0.0,4.2618,0.0,4.329,4.329,4.329,4.329,4.329,4.329,4.329,4.329,4.329,4.329,4.329,4.329,4.329,4.329,4.329,4.329,4.329,4.329,4.329,4.329,4.329,4.329,4.329,4.329,4.329,4.329,4.329,4.329,4.329,4.329,4.329,4.329,4.329,4.329,4.329,4.329,4.329,4.329,4.329,4.329,4.329,4.329,4.329,4.329,4.329,4.329,4.329,4.329,4.329,4.329,4.329,4.329,4.329,4.329,4.329,4.329,4.329,4.329,4.329,4.329,4.329,4.329,4.329,4.329,4.329,4.329,4.329,4.329,4.329,4.329,4.329,4.329,4.329,4.329,4.329,4.329,4.329,4.329,4.329,4.329,4.329,4.329,4.329,4.329,4.329,4.329,4.329,4.329,4.329,4.329,4.329,4.329,4.329,4.329,4.329,4.329,4.329,4.329,4.329,4.3576,4.3717,4.3717,4.3881,4.4117,4.4407,4.4316,4.422,4.2482,0.0,4.329,4.329,4.329,0.0,4.329,4.329,4.329,4.329,4.329,4.329,4.329,4.329,4.329,4.329,4.329,4.329,4.329,4.329,4.329,4.329,4.329,4.329,4.329,4.329,4.329,4.329,4.329,4.329,4.329,4.329,4.329,4.329,4.329,4.329,4.329,4.329,4.329,4.329,4.329,4.329,4.329,4.329,4.329,4.329,4.329,4.329,4.329,4.329,4.329,4.329,4.329,4.329,4.329,4.329,4.329,4.329,4.329,4.329,4.329,4.329,4.329,4.329,4.329,4.329,4.329,4.329,4.329,4.329,4.329,4.329,4.329,4.329,4.3409,4.3472,4.3329,4.329,4.329,4.329,4.329,4.329,4.329,4.329,4.329,4.329,4.329,4.329,4.329,4.329,4.329,4.329,4.3413,4.3512,4.3512,4.3615,4.3669,4.3512,4.3512,4.3512,4.3512,4.3512,4.3571,4.3713,4.4239,4.4567,4.4718,4.5153,4.5416,4.5522,4.5348,4.5256,0.0,0.0,4.329,0.0,4.329,4.329,0.0,0.0,4.329,0.0,4.329,4.329,4.329,4.329,4.329,4.329,4.329,4.329,4.329,4.329,4.329,4.329,4.329,4.329,4.329,4.329,4.329,4.329,4.329,4.329,4.329,4.329,4.329,4.329,4.329,4.329,4.329,4.329,4.329,4.329,4.329,4.329,4.329,4.329,4.329,4.329,4.329,4.329,4.329,4.329,4.329,4.329,4.329,4.329,4.329,4.329,4.329,4.329,4.329,4.329,4.329,4.329,4.329,4.329,4.329,4.329,4.329,4.329,4.329,4.329,4.329,4.329,4.329,4.329,4.383,4.4143,4.3448,4.329,4.329,4.329,4.329,4.329,4.329,4.329,4.329,4.329,4.329,4.329,4.329,4.329,4.329,4.329,4.3927,4.4354,4.4354,4.498,4.5092,4.4377,4.4354,4.4354,4.4354,4.4354,4.4662,4.5369,4.4793,4.4849,4.5551,4.5606,4.5913,4.6426,4.6409,4.6253,4.2633,4.309,4.329,0.0,4.329,4.329,4.329,0.0,4.329,4.329,4.329,4.329,4.329,4.329,4.329,4.329,4.329,4.329,4.329,4.329,4.329,4.329,4.329,4.329,4.329,4.329,4.329,4.329,4.329,4.329,4.329,4.329,4.329,4.329,4.329,4.329,4.329,4.329,4.329,4.329,4.329,4.329,4.329,4.329,4.329,4.329,4.329,4.329,4.329,4.329,4.329,4.329,4.329,4.329,4.329,4.329,4.329,4.329,4.329,4.329,4.329,4.329,4.329,4.329,4.329,4.329,4.329,4.329,4.363,4.397,4.397,4.4316,4.4643,4.4643,4.4906,4.5073,4.4718,4.4643,4.4643,4.4643,4.3927,4.3433,4.3888,4.361,4.329,4.329,4.329,4.3453,4.3907,4.397,4.4143,4.4586,4.4962,4.5184,4.5184,4.5497,4.5551,4.5187,4.5184,4.5184,4.5184,4.5184,4.5536,4.6306,4.5971,4.5953,4.6324,4.6775,4.7133,4.7387,4.7387,4.732,0.0,0.0,4.329,4.329,4.329,4.329,0.0,0.0,4.329,0.0,4.329,4.329,4.329,4.329,4.329,4.329,4.329,4.329,4.329,4.329,4.329,4.329,4.329,4.329,4.329,4.329,4.329,4.329,4.329,4.329,4.329,4.329,4.329,4.329,4.329,4.329,4.329,4.329,4.329,4.329,4.329,4.329,4.329,4.329,4.329,4.329,4.329,4.329,4.329,4.329,4.329,4.329,4.329,4.329,4.3309,4.3532,4.361,4.361,4.361,4.361,4.3571,4.3369,4.329,4.329,4.329,4.3433,4.361,4.361,4.4182,4.4812,4.4812,4.5258,4.5697,4.5697,4.5841,4.5931,4.5733,4.5697,4.5697,4.5697,4.4737,4.4105,4.4699,4.4316,4.3907,4.3907,4.3907,4.4124,4.4718,4.4812,4.5036,4.5642,4.5877,4.5969,4.5969,4.6163,4.6198,4.6003,4.5969,4.5969,4.5969,4.5969,4.6324,4.7084,4.7101,4.7101,4.7118,4.7704,4.8001,4.8001,4.8001,4.8001,0.0,4.3135,0.0,4.329,4.329,0.0,0.0,0.0,4.329,4.329,4.329,4.329,4.329,4.329,4.329,4.329,4.329,4.329,4.329,4.329,4.329,4.329,4.329,4.329,4.329,4.329,4.329,4.329,4.329,4.329,4.329,4.329,4.329,4.329,4.329,4.329,4.329,4.329,4.329,4.329,4.329,4.329,4.329,4.329,4.329,4.329,4.329,4.329,4.329,4.329,4.329,4.329,4.329,4.329,4.3389,4.4163,4.4434,4.4434,4.4434,4.4434,4.4316,4.3551,4.329,4.329,4.329,4.383,4.4434,4.4434,4.5017,4.5642,4.5642,4.566,4.5697,4.5697,4.6236,4.6551,4.5859,4.5697,4.5697,4.5697,4.5624,4.5588,4.5624,4.5606,4.557,4.557,4.557,4.5588,4.5624,4.5642,4.566,4.5697,4.6324,4.6742,4.6742,4.7454,4.7555,4.6777,4.6742,4.6742,4.6742,4.6742,4.7118,4.7919,4.7952,4.7952,4.7952,4.7984,4.8001,4.8001,4.8001,4.8001,0.0,0.0,0.0,4.3115,4.321,4.329,4.329,4.329,4.329,4.329,4.329,4.329,4.329,4.329,4.329,4.329,4.329,4.329,4.329,4.329,4.329,4.329,4.329,4.329,4.329,4.329,4.329,4.329,4.329,4.329,4.329,4.329,4.329,4.329,4.329,4.329,4.329,4.329,4.329,4.329,4.329,4.329,4.329,4.329,4.329,4.3329,4.3849,4.3771,4.329,4.329,4.329,4.329,4.329,4.361,4.412,4.4377,4.4831,4.5277,4.5277,4.5277,4.5221,4.4943,4.4831,4.4831,4.4831,4.5036,4.5277,4.5277,4.5825,4.6412,4.6412,4.6792,4.7184,4.7184,4.7387,4.7505,4.7219,4.6775,4.6568,4.7083,4.6391,4.5859,4.6324,4.6005,4.5697,4.5697,4.5697,4.5877,4.6341,4.6412,4.6602,4.7117,4.7421,4.7571,4.7571,4.7836,4.7869,4.7588,4.7571,4.7571,4.7571,4.7571,4.7704,4.7984,4.8001,4.8001,4.8001,4.8001,4.8001,4.8001,4.8001,4.8001,4.2479,0.0,0.0,0.0,4.3135,4.329,4.329,4.329,4.329,4.329,4.329,4.329,4.329,4.329,4.329,4.329,4.329,4.329,4.329,4.329,4.329,4.329,4.329,4.329,4.329,4.329,4.329,4.329,4.329,0.0,4.329,4.329,4.329,4.329,4.329,4.329,4.329,4.329,4.329,4.329,4.329,4.329,4.3309,4.3571,4.3693,4.3752,4.4548,4.445,4.3713,4.3989,4.412,4.412,4.412,4.4415,4.4943,4.5187,4.5611,4.6058,4.6058,4.6058,4.6022,4.5787,4.5697,4.5697,4.5697,4.5877,4.6058,4.6058,4.662,4.7203,4.7203,4.7588,4.8001,4.8001,4.8001,4.8001,4.8001,4.7571,4.7354,4.7902,4.7168,4.6636,4.7118,4.6809,4.6479,4.6479,4.6479,4.6653,4.7135,4.7203,4.7404,4.7952,4.8001,4.8001,4.8001,4.8001,4.8001,4.8001,4.8001,4.8001,4.8001,4.8001,4.8001,4.8001,4.8001,4.8001,4.8001,4.8001,4.8001,4.8001,4.8001,4.8001,0.0,0.0,0.0,0.0,0.0,0.0,4.329,4.329,4.329,4.329,4.329,4.329,4.329,4.329,4.329,4.329,4.329,4.329,4.329,4.329,4.329,4.329,4.329,4.329,4.329,4.329,4.329,4.329,4.329,4.329,4.329,4.329,4.329,4.329,4.329,4.329,4.329,4.329,4.329,4.329,4.329,4.329,4.3329,4.4124,4.4491,4.4548,4.5369,4.5295,4.4624,4.5387,4.5697,4.5697,4.5697,4.5715,4.5823,4.6534,4.6828,4.6845,4.6845,4.6845,4.6708,4.6003,4.5769,4.5769,4.5769,4.6253,4.6845,4.6845,4.7404,4.8001,4.8001,4.8001,4.8001,4.8001,4.8001,4.8001,4.8001,4.8001,4.8001,4.8001,4.8001,4.8001,4.8001,4.8001,4.8001,4.8001,4.8001,4.8001,4.8001,4.8001,4.8001,4.8001,4.8001,4.8001,4.8001,4.8001,4.8001,4.8001,4.8001,4.8001,4.8001,4.8001,4.8001,4.8001,4.8001,4.8001,4.8001,4.8001,4.8001,4.8001,4.8001,4.8001,4.2242,0.0,0.0,0.0,0.0,0.0,4.329,4.329,4.329,4.329,4.329,4.329,4.329,4.329,4.329,4.329,4.329,4.329,4.329,4.329,4.329,4.329,4.329,4.329,4.329,4.329,4.329,0.0,4.329,4.329,4.329,4.329,4.329,4.329,4.329,4.329,4.329,4.329,4.329,4.329,4.329,4.329,4.3329,4.4124,4.4491,4.4567,4.5899,4.6376,4.6131,4.5841,4.5697,4.5697,4.5697,4.6038,4.6517,4.6725,4.7169,4.7671,4.7671,4.7671,4.7638,4.7421,4.7354,4.7354,4.7354,4.7521,4.7671,4.7671,4.7836,4.8001,4.8001,4.8001,4.8001,4.8001,4.8001,4.8001,4.8001,4.8001,4.8001,4.8001,4.8001,4.8001,4.8001,4.8001,4.8001,4.8001,4.8001,4.8001,4.8001,4.8001,4.8001,4.8001,4.8001,4.8001,4.8001,4.8001,4.8001,4.8001,4.8001,4.8001,4.8001,4.8001,4.8001,4.8001,4.8001,4.8001,4.8001,4.8001,4.8001,4.8001,4.8001,4.8001,0.0,0.0,0.0,0.0,0.0,0.0,4.327,4.325,4.321,4.327,4.329,4.329,4.329,4.329,4.329,4.329,4.329,4.329,4.329,4.329,4.329,4.329,4.329,4.329,4.329,4.329,4.329,4.329,4.329,4.329,4.329,4.329,4.329,4.329,4.329,4.329,4.329,4.329,4.329,4.3309,4.3649,4.3791,4.383,4.4965,4.5465,4.552,4.6776,4.7303,4.727,4.6844,4.6671,4.6671,4.6671,4.693,4.7303,4.7303,4.7605,4.8001,4.8001,4.8001,4.8001,4.8001,4.8001,4.8001,4.8001,4.8001,4.8001,4.8001,4.8001,4.8001,4.8001,4.8001,4.8001,4.8001,4.8001,4.8001,4.8001,4.8001,4.8001,4.8001,4.8001,4.8001,4.8001,4.8001,4.8001,4.8001,4.8001,4.8001,4.8001,4.8001,4.8001,4.8001,4.8001,4.8001,4.8001,4.8001,4.8001,4.8001,4.8001,4.8001,4.8001,4.8001,4.8001,4.8001,4.8001,4.8001,4.8001,4.8001,4.8001,4.8001,4.8001,4.8001,0.0,0.0,0.0,0.0,0.0,0.0,4.315,4.3115,4.3056,4.323,4.327,4.329,4.329,4.329,4.329,4.329,4.329,4.329,4.329,4.329,4.329,4.329,4.329,4.329,4.329,4.329,4.329,4.329,4.329,4.329,4.329,4.329,4.329,4.329,4.329,4.329,4.329,4.329,4.3349,4.3433,4.4163,4.4548,4.468,4.6131,4.6794,4.6829,4.7654,4.8001,4.8001,4.8001,4.8001,4.8001,4.8001,4.8001,4.8001,4.8001,4.8001,4.8001,4.8001,4.8001,4.8001,4.8001,4.8001,4.8001,4.8001,4.8001,4.8001,4.8001,4.8001,4.8001,4.8001,4.8001,4.8001,4.8001,4.8001,4.8001,4.8001,4.8001,4.8001,4.8001,4.8001,4.8001,4.8001,4.8001,4.8001,4.8001,4.8001,4.8001,4.8001,4.8001,4.8001,4.8001,4.8001,4.8001,4.8001,4.8001,4.8001,4.8001,4.8001,4.8001,4.8001,4.8001,4.8001,4.8001,4.8001,4.8001,4.8001,4.8001,4.8001,4.8001,4.8001,4.8001,0.0,0.0,0.0,0.0,0.0,0.0,4.2809,4.2915,4.3016,4.3056,4.319,4.329,4.329,4.329,4.329,4.329,4.329,4.329,4.329,4.329,4.329,4.329,4.329,4.329,4.329,4.329,4.329,4.329,4.329,4.329,4.329,4.329,4.329,4.329,4.329,4.329,4.329,4.329,4.363,4.4278,4.4415,4.4831,4.5497,4.6394,4.6794,4.6829,4.7654,4.8001,4.8001,4.8001,4.8001,4.8001,4.8001,4.8001,4.8001,4.8001,4.8001,4.8001,4.8001,4.8001,4.8001,4.8001,4.8001,4.8001,4.8001,4.8001,4.8001,4.8001,4.8001,4.8001,4.8001,4.8001,4.8001,4.8001,4.8001,4.8001,4.8001,4.8001,4.8001,4.8001,4.8001,4.8001,4.8001,4.8001,4.8001,4.8001,4.8001,4.8001,4.8001,4.8001,4.8001,4.8001,4.8001,4.8001,4.8001,4.8001,4.8001,4.8001,4.8001,4.8001,4.8001,4.8001,4.8001,4.8001,4.8001,4.8001,4.8001,4.8001,4.8001,4.8001,4.8001,4.8001,0.0,0.0,0.0,4.2372,0.0,0.0,0.0,4.2688,4.2729,4.283,4.293,4.299,4.299,4.309,4.3135,4.3135,4.323,4.329,4.329,4.329,4.329,4.329,4.329,4.329,4.329,4.329,4.329,4.329,4.329,4.329,4.329,4.329,4.329,4.329,4.329,4.329,4.329,4.3708,4.4105,4.451,4.5279,4.5845,4.6271,4.705,4.7404,4.7421,4.782,4.8001,4.8001,4.8001,4.8001,4.8001,4.8001,4.8001,4.8001,4.8001,4.8001,4.8001,4.8001,4.8001,4.8001,4.8001,4.8001,4.8001,4.8001,4.8001,4.8001,4.8001,4.8001,4.8001,4.8001,4.8001,4.8001,4.8001,4.8001,4.8001,4.8001,4.8001,4.8001,4.8001,4.8001,4.8001,4.8001,4.8001,4.8001,4.8001,4.8001,4.8001,4.8001,4.8001,4.8001,4.8001,4.8001,4.8001,4.8001,4.8001,4.8001,4.8001,4.8001,4.8001,4.8001,4.8001,4.8001,4.8001,4.8001,4.8001,4.8001,4.8001,4.8001,4.8001,4.8001,4.8001,0.0,0.0,0.0,0.0,0.0,4.2195,0.0,0.0,0.0,4.2622,4.2668,4.2688,4.2688,0.0,0.0,4.3001,0.0,0.0,0.0,4.329,0.0,4.329,4.329,4.329,4.329,4.329,4.329,4.329,4.329,4.329,4.329,4.329,4.329,4.329,4.3448,4.3532,4.3532,4.4335,4.4812,4.4965,4.6202,4.688,4.705,4.7704,4.8001,4.8001,4.8001,4.8001,4.8001,4.8001,4.8001,4.8001,4.8001,4.8001,4.8001,4.8001,4.8001,4.8001,4.8001,4.8001,4.8001,4.8001,4.8001,4.8001,4.8001,4.81,4.8216,4.8216,4.8315,4.8431,4.8431,4.8431,4.8398,4.8249,4.8216,4.8166,4.8034,4.8001,4.8001,4.8001,4.8001,4.8001,4.8001,4.8001,4.8001,4.8001,4.8001,4.8001,4.8001,4.8001,4.8001,4.8001,4.8001,4.8001,4.8001,4.8001,4.8001,4.8001,4.8001,4.8001,4.8001,4.8001,4.8001,4.8001,4.8001,4.8001,4.8001,4.8001,4.8001,4.8001,4.8001,4.8001,0.0,0.0,0.0,0.0,4.2113,0.0,0.0,0.0,4.2412,4.2433,0.0,4.2688,0.0,0.0,0.0,0.0,0.0,0.0,4.329,4.329,4.329,4.329,4.329,4.329,4.329,4.329,4.329,4.329,4.329,4.329,4.329,4.329,4.329,4.329,4.4004,4.4358,4.4358,4.5166,4.5897,4.6551,4.6708,4.7169,4.7869,4.7952,4.8001,4.8001,4.8001,4.8001,4.8001,4.8001,4.8001,4.8001,4.8001,4.8001,4.8001,4.8001,4.8001,4.8001,4.8001,4.8001,4.8001,4.8001,4.8001,4.8001,4.8001,4.8465,4.8978,4.8978,4.9441,4.9938,4.9938,4.9938,4.9789,4.9127,4.8978,4.8812,4.815,4.8001,4.8001,4.8001,4.8001,4.8001,4.8001,4.8001,4.8001,4.8001,4.8001,4.8001,4.8001,4.8001,4.8001,4.8001,4.8001,4.8001,4.8001,4.8001,4.8001,4.8001,4.8001,4.8001,4.8001,4.8001,4.8001,4.8001,4.8001,4.8001,4.8001,4.8001,4.8001,4.8001,4.8001,4.8001,0.0,0.0,0.0,0.0,0.0,0.0,4.2092,0.0,4.2222,0.0,0.0,0.0,0.0,0.0,0.0,0.0,4.309,0.0,0.0,0.0,4.329,4.329,0.0,0.0,4.329,4.329,4.329,4.329,4.329,4.329,4.329,4.329,4.329,4.329,4.4066,4.4491,4.4491,4.5735,4.6482,4.6811,4.727,4.7671,4.8001,4.8001,4.8001,4.8001,4.8001,4.8001,4.8001,4.8001,4.8001,4.8001,4.8001,4.8001,4.8001,4.8001,4.8001,4.8001,4.8001,4.8001,4.8001,4.8001,4.8001,4.8001,4.8001,4.8531,4.9094,4.9094,4.9624,5.0203,5.0203,5.0203,5.012,4.9806,4.9739,4.964,4.9326,4.8928,4.8647,4.8647,4.8299,4.8001,4.8001,4.8001,4.8001,4.8001,4.8001,4.8001,4.8001,4.8001,4.8001,4.8001,4.8001,4.8001,4.8001,4.8001,4.8001,4.8001,4.8001,4.8001,4.8001,4.8001,4.8001,4.8001,4.8001,4.8001,4.8001,4.8001,4.8001,4.8001,4.8001,4.8001,4.3752,0.0,0.0,0.0,0.0,0.0,0.0,0.0,0.0,0.0,0.0,0.0,0.0,0.0,0.0,0.0,0.0,4.325,0.0,4.329,0.0,0.0,0.0,0.0,0.0,4.329,4.329,4.329,4.329,4.329,4.329,4.3512,4.363,4.363,4.4605,4.5132,4.5132,4.6464,4.7135,4.7135,4.7721,4.8001,4.8001,4.8001,4.8001,4.8001,4.8001,4.8001,4.8001,4.8001,4.8001,4.8001,4.8001,4.8001,4.8001,4.8001,4.8001,4.8001,4.8001,4.8001,4.8001,4.8001,4.8001,4.8034,4.8249,4.8829,4.9442,4.9657,5.0237,5.08,5.08,5.08,5.075,5.0551,5.0502,5.0452,5.0236,4.9773,4.9326,4.9144,4.868,4.8249,4.8034,4.8001,4.8001,4.8001,4.8001,4.8001,4.8001,4.8001,4.8001,4.8001,4.8001,4.8001,4.8001,4.8001,4.8001,4.8001,4.8001,4.8001,4.8001,4.8001,4.8001,4.8001,4.8001,4.8001,4.8001,4.8001,4.8001,4.8001,4.8001,4.8001,0.0,0.0,0.0,4.3186,0.0,0.0,0.0,0.0,4.2092,0.0,0.0,0.0,0.0,0.0,0.0,0.0,0.0,0.0,0.0,0.0,0.0,0.0,0.0,0.0,0.0,4.329,4.329,4.329,4.329,4.329,4.329,4.4043,4.4453,4.4453,4.5935,4.6725,4.6725,4.7555,4.7968,4.7968,4.7984,4.8001,4.8001,4.8001,4.8001,4.8001,4.8001,4.8001,4.8001,4.8001,4.8001,4.8001,4.8001,4.8001,4.8001,4.8001,4.8001,4.8001,4.8001,4.8001,4.8001,4.8001,4.8001,4.8133,4.8862,4.9574,5.0302,5.1033,5.1762,5.2325,5.2325,5.2325,5.2143,5.143,5.1248,5.1066,5.0353,5.017,4.9938,4.9226,4.9077,4.8845,4.8117,4.8001,4.8001,4.8001,4.8001,4.8001,4.8001,4.8001,4.8001,4.8001,4.8001,4.8001,4.8001,4.8001,4.8001,4.8001,4.8001,4.8001,4.8001,4.8001,4.8001,4.8001,4.8001,4.8001,4.8001,4.8001,4.8001,4.8001,4.8001,4.8001,0.0,0.0,4.4956,4.409,0.0,0.0,0.0,0.0,0.0,0.0,0.0,0.0,0.0,0.0,0.0,0.0,0.0,0.0,0.0,0.0,0.0,0.0,0.0,0.0,0.0,0.0,4.329,4.329,4.329,4.329,4.329,4.4066,4.4491,4.4491,4.5989,4.6794,4.6794,4.7605,4.8001,4.8001,4.8001,4.8001,4.8001,4.8001,4.8001,4.8001,4.8001,4.8001,4.8001,4.8001,4.8001,4.8001,4.8001,4.8001,4.8001,4.8001,4.8001,4.8001,4.8001,4.8001,4.8001,4.8001,4.8001,4.815,4.8895,4.9607,5.0353,5.1099,5.1828,5.2391,5.2391,5.2391,5.2342,5.2093,5.2027,5.1961,5.1712,5.1264,5.085,5.0602,4.9773,4.9011,4.8779,4.8332,4.8001,4.8001,4.8001,4.8001,4.8001,4.8001,4.8001,4.8001,4.8001,4.8001,4.8001,4.8001,4.8001,4.8001,4.8001,4.8001,4.8001,4.8001,4.8001,4.8001,4.8001,4.8001,4.8001,4.8001,4.8001,4.8001,4.8001,4.8001,4.618,4.6061,0.0,4.4985,4.4472,0.0,4.3696,0.0,0.0,0.0,0.0,0.0,0.0,0.0,0.0,0.0,0.0,0.0,0.0,4.329,0.0,0.0,0.0,0.0,0.0,4.329,4.329,4.329,4.329,4.3413,4.3713,4.4491,4.5055,4.53,4.6551,4.722,4.722,4.7737,4.8001,4.8001,4.8001,4.8001,4.8001,4.8001,4.8001,4.8001,4.8001,4.8001,4.8001,4.8001,4.8001,4.8001,4.8001,4.8001,4.8001,4.8001,4.8001,4.8001,4.8001,4.8001,4.8001,4.8001,4.8183,4.8531,4.9259,5.0021,5.0734,5.148,5.2027,5.2391,5.2391,5.2391,5.2391,5.2391,5.2391,5.2391,5.2391,5.2027,5.1613,5.1347,5.0536,4.9723,4.9193,4.8713,4.8299,4.805,4.8001,4.8001,4.8001,4.8001,4.8001,4.8001,4.8001,4.8001,4.8001,4.8001,4.8001,4.8001,4.8001,4.8001,4.8001,4.8001,4.8117,4.8398,4.8133,4.8133,4.8398,4.8133,4.8001,4.8001,4.8001,4.8001]}]]